GFSCGP_850_thetae_003.txt.gz
Theta_e
320 323 323 321 320 320 320 320 320 321 321 321 322 321 322 322 322 322 321 321 320 320 325 327 324 324 325 327 325 325 325 322 321 319 318 316 316 316 316 316 316 316 315 313
320 322 320 320 321 321 321 321 321 321 320 321 323 322 321 321 321 321 321 321 322 323 323 322 322 322 323 327 326 325 323 319 316 316 316 315 314 315 315 315 314 313 312 311
322 320 319 320 322 322 322 321 323 322 322 321 322 323 321 321 320 320 320 320 320 320 320 320 321 322 323 323 321 320 318 316 315 314 314 314 314 314 313 313 312 312 311 310
320 319 320 321 322 322 323 320 321 321 322 324 323 324 323 321 321 320 320 320 319 319 318 318 319 319 320 319 318 317 315 314 313 312 313 313 313 312 312 312 312 310 308 307
321 321 322 322 321 321 323 321 321 322 323 323 323 322 324 321 321 320 319 319 318 318 319 318 318 318 318 317 317 316 315 314 313 312 312 312 313 313 313 312 309 307 306 306
321 320 321 322 320 320 321 322 323 324 325 325 325 323 325 323 322 320 319 319 319 318 318 317 317 317 317 317 316 315 314 313 313 313 313 313 313 311 309 308 307 306 305 304
322 322 321 320 323 323 322 324 327 328 327 327 323 321 324 321 320 320 319 319 319 319 318 318 317 317 316 316 315 314 314 314 313 313 312 309 308 308 308 307 306 304 303 303
323 325 321 320 321 322 322 323 328 324 325 324 322 320 323 320 318 318 317 317 317 318 318 317 317 316 316 316 315 315 314 313 312 311 311 310 309 308 307 305 304 302 302 301
323 323 320 320 320 321 322 323 320 324 322 325 321 321 321 319 319 318 317 317 317 317 317 316 316 315 315 315 315 314 313 313 313 312 310 309 307 306 305 303 302 301 301 300
319 324 319 319 320 321 322 320 324 322 325 318 319 318 322 320 319 318 317 317 317 317 317 316 316 315 315 314 314 313 313 312 312 311 308 306 305 304 302 301 301 300 300 299
318 319 320 319 321 322 323 323 320 318 320 321 320 320 319 319 318 317 316 316 316 317 317 316 315 315 314 314 314 313 313 312 309 307 305 304 303 302 301 300 300 299 299 298
318 320 319 318 319 320 320 321 319 318 318 318 320 320 319 318 317 316 317 316 316 316 316 315 314 314 313 313 313 312 310 307 306 304 303 302 301 301 300 300 298 297 297 297
319 321 320 320 321 320 320 319 317 318 317 319 324 321 318 318 317 316 316 316 315 315 314 314 314 313 312 312 311 309 307 305 304 303 302 301 300 299 299 297 296 295 295 295
317 319 318 319 317 316 316 316 316 317 319 320 320 319 318 317 317 316 315 316 315 314 313 313 312 311 310 308 306 307 306 305 304 302 301 299 298 297 296 295 295 294 293 292
319 319 319 318 316 315 315 316 316 316 316 319 319 318 317 317 316 315 315 314 314 313 313 312 310 308 306 305 305 304 305 304 303 301 300 298 296 295 295 294 293 292 291 290
318 320 318 317 316 315 315 315 315 316 317 317 317 317 317 315 315 315 314 314 313 312 311 309 307 305 304 304 303 303 304 302 302 301 299 297 295 295 294 292 291 290 290 289
319 319 318 320 317 317 320 318 316 316 316 317 317 316 315 315 314 313 312 313 312 309 308 307 305 304 303 302 301 302 302 301 300 299 298 296 295 295 293 292 290 290 289 289
320 318 318 320 317 324 318 316 315 315 315 315 315 315 315 314 313 313 311 309 308 307 306 305 303 302 300 299 300 301 301 300 299 298 297 296 295 294 293 291 290 289 289 289
317 319 317 320 318 316 316 315 315 315 315 315 316 316 314 313 312 312 310 308 306 305 304 302 301 299 298 298 298 299 299 299 298 298 297 296 295 294 293 291 290 289 289 289
315 317 320 318 318 319 318 315 313 314 316 315 315 314 311 311 313 311 307 306 304 302 301 300 300 298 297 297 297 297 297 297 298 296 295 294 294 293 292 291 290 289 289 289
314 314 319 316 318 316 315 313 313 317 318 315 312 311 311 310 309 307 305 303 301 300 300 299 298 297 296 296 296 296 296 297 296 294 294 294 293 293 291 290 289 289 289 288
317 318 315 316 317 316 313 313 316 315 314 313 311 311 309 308 306 304 302 300 300 299 299 298 296 296 295 295 295 295 295 296 295 294 294 293 292 291 290 289 289 289 288 288
317 316 317 317 317 314 314 313 314 313 312 311 310 309 307 306 303 301 300 300 299 298 297 296 295 295 294 294 294 293 295 296 294 293 293 292 291 290 289 289 288 288 288 287
316 314 317 316 314 313 313 314 313 312 311 309 308 308 305 303 301 300 299 299 297 296 296 295 294 294 294 294 293 293 294 294 293 292 291 291 290 290 289 288 288 287 286 285
316 315 316 317 314 313 313 313 312 311 309 308 307 305 303 301 300 300 299 297 296 296 295 294 294 294 294 294 293 293 292 292 291 290 290 289 289 289 289 288 287 286 285 284
314 315 318 318 314 313 313 311 311 310 309 308 304 302 301 300 300 298 297 296 296 295 294 294 294 294 294 294 293 292 292 290 289 289 289 289 289 288 288 287 287 286 284 283

GFSCGP_850_thetae_006.txt.gz
Theta_e
321 322 323 322 321 320 320 320 320 322 321 320 321 322 322 322 322 322 322 322 322 322 326 327 327 325 326 327 326 326 328 323 322 322 320 318 317 316 316 317 316 314 313 313
320 322 320 320 320 321 320 321 321 322 321 319 322 321 322 322 322 322 322 322 324 325 324 324 324 324 326 328 326 325 323 320 318 317 317 316 315 315 315 315 314 313 312 312
323 321 320 320 322 322 322 321 323 322 322 322 321 323 322 321 321 321 321 321 322 322 322 322 324 324 324 323 321 320 318 318 317 315 315 314 314 314 313 313 313 313 312 312
321 320 321 322 323 322 322 322 321 321 321 322 321 322 322 321 321 321 321 320 320 319 320 320 321 321 320 319 318 317 315 314 313 313 313 313 313 314 314 314 313 311 310 308
322 322 323 323 322 321 323 322 321 322 322 322 323 324 324 322 321 321 320 319 319 320 319 319 319 319 319 318 317 316 315 314 314 313 314 314 314 314 311 310 309 308 307 306
321 321 322 322 321 321 322 323 323 323 324 330 323 324 325 323 322 321 320 320 320 319 319 318 318 318 318 317 316 315 314 314 314 314 315 314 310 309 309 309 308 307 306 304
323 322 322 320 323 324 322 325 331 334 334 332 324 322 325 322 321 321 320 320 320 319 319 318 318 318 317 317 316 316 316 316 314 313 312 311 310 310 309 307 306 306 302 302
324 326 322 321 321 321 323 323 333 328 331 328 322 320 322 321 319 319 318 318 318 319 318 318 317 317 317 316 316 316 316 314 314 313 313 311 310 308 306 306 305 302 302 301
324 323 321 319 320 320 323 323 320 325 323 327 321 323 321 320 319 318 318 318 318 318 318 317 317 317 317 316 315 315 314 314 313 313 311 309 308 306 306 304 301 301 301 300
319 324 319 319 320 321 321 320 324 327 327 321 319 321 323 321 320 318 318 317 317 318 317 317 316 316 315 315 314 314 314 313 313 311 309 308 307 304 303 302 301 300 300 299
319 321 321 320 321 321 322 323 321 319 322 323 323 320 319 320 318 318 317 317 317 317 317 316 315 315 314 313 313 313 312 312 311 308 307 305 303 302 302 300 300 300 298 295
318 320 325 319 319 319 319 320 319 326 320 324 323 319 319 319 318 317 317 317 316 316 315 315 314 313 313 311 311 311 310 309 308 306 305 303 302 301 300 299 299 296 295 295
319 323 326 322 322 320 319 319 318 320 320 320 325 322 320 318 318 317 316 317 316 315 314 314 313 312 311 309 309 307 307 307 306 305 304 302 301 299 298 297 296 295 294 293
318 320 319 321 318 317 317 316 316 316 324 321 321 319 318 319 317 316 316 315 315 314 313 313 312 310 308 307 306 306 305 304 305 304 303 301 300 298 296 296 295 294 293 292
319 320 319 318 316 316 316 316 316 316 317 318 319 317 317 317 317 315 315 314 314 314 313 311 309 308 307 305 304 303 303 303 304 303 302 300 300 298 296 295 294 293 291 290
319 323 319 318 316 316 316 315 315 315 316 316 317 317 317 316 315 315 314 313 313 312 310 308 307 306 305 304 302 301 300 301 303 301 301 300 299 297 296 295 293 292 291 290
321 323 321 322 317 317 322 320 317 316 316 316 318 317 316 316 315 314 313 313 311 309 307 306 305 304 302 300 299 299 299 299 300 300 300 299 298 297 296 295 293 292 291 290
320 319 319 320 318 324 319 316 316 316 316 315 315 316 316 315 313 313 312 310 308 307 306 304 302 301 300 299 298 297 297 297 297 298 299 298 298 296 295 295 294 291 290 289
319 320 316 322 318 317 316 316 316 315 316 315 317 316 315 313 312 311 309 307 306 304 303 301 301 300 299 298 297 296 296 296 296 296 298 297 295 295 294 294 293 291 290 289
317 320 322 316 317 318 318 316 314 314 317 317 316 314 313 312 313 310 308 306 304 302 301 300 299 298 297 297 296 295 295 295 295 296 296 295 294 294 294 293 292 290 289 289
314 316 317 317 316 317 315 314 314 316 318 315 314 313 312 311 310 308 306 303 301 301 300 299 298 297 296 295 295 295 294 294 295 295 295 294 294 293 292 292 290 290 289 289
315 317 314 316 316 316 314 314 315 317 315 314 313 311 311 309 309 306 304 301 301 300 299 297 297 296 295 295 295 294 294 294 294 293 294 293 293 292 292 290 290 289 288 288
319 320 321 318 318 315 315 314 314 314 314 312 311 310 308 308 307 304 301 301 300 299 297 297 296 295 295 295 295 294 294 294 293 292 292 292 291 291 290 290 289 288 288 287
316 315 321 319 316 315 314 313 314 313 312 311 310 309 308 306 303 301 301 300 299 297 297 296 295 295 295 294 294 294 294 293 293 292 291 291 290 290 289 289 288 288 287 286
318 316 317 317 316 315 315 313 313 312 310 310 309 308 305 303 301 301 299 298 297 297 296 295 295 294 294 294 294 294 293 292 291 291 290 289 289 289 289 288 288 287 286 286
315 315 317 318 316 316 315 312 311 310 309 308 307 304 302 302 300 298 297 297 296 295 294 294 294 294 294 294 294 293 292 291 290 289 288 288 288 288 287 288 287 286 285 285

GFSCGP_850_thetae_009.txt.gz
Theta_e
321 318 318 318 319 319 319 318 318 318 319 319 318 318 318 320 320 320 323 326 325 325 324 325 325 326 326 327 329 327 323 323 323 323 322 320 319 316 316 316 316 316 315 314
317 318 318 319 320 320 319 321 320 318 319 317 317 319 317 319 319 319 321 322 323 323 324 325 326 325 324 325 325 323 322 320 319 318 318 317 316 315 314 314 314 313 313 313
318 319 319 320 320 320 320 320 320 320 318 318 319 318 318 318 319 320 320 321 321 322 323 323 325 323 320 320 319 319 318 317 316 316 315 314 313 313 314 313 313 311 309 308
318 319 321 321 321 319 323 321 321 320 319 318 316 318 318 318 319 318 319 319 320 321 321 321 320 320 319 317 317 317 316 315 314 313 314 314 314 314 313 313 310 308 308 308
320 320 321 321 320 320 322 321 320 320 320 320 319 319 319 319 319 318 318 319 319 319 319 319 319 318 317 317 316 315 315 314 315 314 314 314 313 310 309 309 309 308 307 307
319 320 319 319 321 320 320 322 322 321 320 321 322 322 323 322 319 318 319 319 319 319 318 318 318 318 317 317 316 316 316 316 315 314 314 312 311 310 309 309 309 308 307 306
320 320 320 320 321 320 319 321 322 323 321 322 325 323 321 319 318 319 318 319 319 318 318 318 318 317 317 316 316 316 316 316 315 314 313 312 311 310 309 307 306 306 304 301
322 322 319 319 319 319 320 321 317 326 322 321 316 322 319 317 318 318 318 318 319 319 318 317 317 316 316 316 315 315 314 314 314 313 313 312 310 309 306 306 305 301 301 300
323 321 318 317 318 319 322 318 318 320 320 316 319 319 318 317 317 317 317 318 318 318 317 317 317 316 316 314 314 314 313 313 313 313 312 309 308 306 306 303 302 301 300 300
318 321 318 318 319 320 318 318 319 316 319 320 317 322 322 320 319 317 316 316 317 317 317 316 315 314 314 314 313 312 312 312 311 310 309 308 306 303 302 302 301 300 300 299
318 321 319 319 318 319 319 320 318 317 315 316 316 317 318 318 317 316 316 316 315 315 315 314 314 313 312 311 310 310 309 308 308 307 306 304 304 303 302 301 301 300 297 295
317 317 315 319 318 318 318 319 318 313 318 313 312 313 316 316 317 317 316 316 315 314 314 313 313 312 311 310 309 307 306 305 305 304 304 305 304 302 301 300 299 296 295 294
318 318 316 320 320 318 318 317 319 317 311 314 309 313 318 317 317 317 315 315 314 313 313 313 312 309 308 308 306 305 304 303 303 302 304 304 303 302 301 300 296 295 295 294
318 318 316 316 317 315 315 315 315 317 312 315 314 316 315 317 316 314 314 314 314 313 312 311 308 308 307 305 304 303 301 300 300 300 303 302 301 301 300 297 296 294 294 292
317 318 317 316 315 315 315 314 314 314 314 313 313 316 316 314 314 314 313 313 312 311 309 308 306 305 304 303 301 300 299 299 298 297 298 299 300 300 298 298 296 295 294 291
318 316 315 316 316 314 314 313 313 313 314 314 315 315 314 315 314 313 313 311 309 307 307 306 304 304 302 301 300 299 298 297 297 296 296 296 299 299 298 297 296 294 293 291
317 311 310 315 314 313 311 315 316 315 315 315 314 315 314 312 312 312 310 308 307 306 304 302 303 301 300 299 298 297 296 296 295 295 295 297 296 296 296 295 295 294 294 291
313 313 308 307 306 309 317 314 314 315 314 313 315 313 312 311 311 310 308 307 305 304 302 301 300 299 298 297 297 296 295 295 294 294 295 295 295 295 295 295 294 293 291 290
316 309 305 309 310 311 314 315 314 313 313 315 314 313 312 311 310 308 307 305 304 302 301 300 299 298 297 296 296 295 295 294 294 294 295 294 294 294 294 294 293 291 290 290
314 308 306 308 305 305 312 314 314 314 310 315 314 312 311 311 305 307 307 305 303 301 300 299 298 297 296 295 295 295 294 294 294 294 294 293 293 293 293 292 292 290 289 289
305 305 305 311 302 308 312 314 313 312 310 315 314 312 311 309 309 309 306 303 301 300 300 298 297 296 295 295 295 295 295 294 294 294 293 292 292 292 292 291 290 289 289 288
307 306 309 309 307 309 312 313 310 311 315 314 312 311 310 309 308 307 303 302 301 300 298 297 296 296 295 295 295 294 294 294 294 293 293 292 291 291 291 290 290 289 288 288
313 311 309 309 308 310 314 314 313 314 314 312 312 310 308 308 307 304 302 301 299 298 297 296 296 295 295 295 294 294 294 294 294 293 292 291 290 290 289 289 289 288 288 287
313 314 309 312 314 315 314 314 314 314 313 310 310 308 307 307 304 302 301 298 297 296 296 295 294 294 294 294 294 294 294 293 293 291 290 290 289 289 289 289 288 288 287 287
312 314 313 310 314 314 314 314 313 312 311 311 310 307 307 303 301 299 297 297 296 295 294 294 293 293 293 294 294 293 293 292 292 291 290 289 288 287 287 287 287 287 287 285
315 312 309 308 314 314 313 313 312 312 310 309 308 304 302 301 298 297 296 295 295 294 294 293 292 291 292 293 293 291 292 292 292 291 289 288 287 287 287 288 287 287 286 284

GFSCGP_850_thetae_012.txt.gz
Theta_e
319 316 316 317 317 317 317 316 316 316 317 317 315 315 315 317 321 321 323 323 324 325 326 326 326 328 332 331 329 327 327 325 324 322 322 321 319 316 315 315 314 314 314 313
315 317 317 318 319 319 319 318 318 318 318 315 314 315 315 317 317 321 322 322 321 321 323 325 326 329 329 328 325 324 324 324 323 323 320 318 315 314 314 314 313 313 313 312
316 318 318 319 318 320 319 318 319 319 318 315 316 316 317 317 318 319 321 322 322 322 320 320 321 322 322 322 319 318 317 317 317 315 314 313 313 313 313 313 312 311 309 308
317 319 319 319 319 318 321 320 319 319 317 315 315 317 317 317 317 317 319 321 320 320 320 319 318 317 317 317 316 315 314 314 314 314 314 314 313 313 312 311 310 309 309 308
319 319 319 319 319 319 320 320 320 319 318 318 318 316 317 317 317 316 316 320 319 319 319 318 317 317 316 316 314 315 315 315 315 315 313 313 313 312 311 310 309 308 307 307
318 319 318 318 319 319 318 320 320 319 318 319 321 319 318 318 317 317 316 318 318 318 318 317 317 317 317 316 316 316 316 316 315 314 313 313 312 311 310 309 307 307 307 305
319 318 318 319 320 318 317 320 319 321 319 320 321 320 319 317 317 317 317 317 317 318 317 317 317 317 316 316 316 316 315 314 314 314 313 312 311 309 307 307 306 307 305 304
319 320 317 317 318 319 319 318 316 325 319 318 317 321 318 316 318 319 318 318 318 318 318 317 317 316 315 315 314 314 314 313 313 313 311 309 307 307 307 306 306 304 302 301
320 319 318 316 317 318 319 316 316 317 314 314 318 318 317 316 316 317 317 318 318 316 315 315 315 315 315 314 313 312 311 311 311 311 309 307 303 303 304 302 302 301 301 301
318 318 317 317 319 318 315 316 319 313 317 318 316 320 318 317 316 314 313 315 315 315 315 314 313 313 312 311 310 309 307 306 305 304 303 303 302 303 303 302 302 301 300 300
318 316 317 319 317 318 317 317 316 315 312 315 314 315 316 316 315 314 314 314 314 314 313 312 311 311 309 308 307 305 305 304 303 302 301 301 302 302 302 303 302 301 300 298
316 314 313 318 317 317 317 317 315 311 317 310 310 312 316 314 314 315 314 314 313 313 312 311 310 308 306 306 304 304 303 302 301 300 300 302 303 303 302 302 301 298 296 294
315 315 314 318 318 316 317 316 317 312 308 311 307 310 314 316 315 315 313 313 312 311 311 310 307 304 303 304 304 303 301 300 299 299 298 297 296 296 298 301 300 297 295 295
317 316 314 316 317 313 314 314 316 313 310 312 310 313 315 313 312 313 312 312 311 311 311 309 304 303 304 303 302 300 300 299 299 298 297 296 294 295 299 298 297 297 296 294
314 316 316 314 314 314 314 314 313 313 313 313 312 313 315 313 311 312 312 311 311 310 307 303 303 303 302 301 300 299 298 298 297 296 295 294 293 294 294 294 294 296 293 293
315 313 313 315 314 314 313 312 312 312 312 313 313 315 313 313 313 312 310 310 308 306 303 302 302 302 300 299 298 298 297 296 295 294 294 294 293 294 293 293 294 295 294 291
314 309 307 311 310 311 309 313 315 314 313 313 312 313 311 311 311 310 309 308 307 304 302 302 301 299 298 298 297 296 295 295 294 294 294 294 294 293 292 293 294 294 294 292
310 309 302 304 302 305 313 312 312 313 313 313 312 311 310 311 310 309 308 307 305 303 301 300 299 298 297 297 296 295 295 294 294 294 294 294 294 293 292 293 292 293 291 291
311 303 305 302 307 306 311 313 313 312 312 313 312 311 310 310 308 307 307 305 303 302 301 300 298 297 296 296 295 295 295 295 294 294 294 294 293 292 291 292 292 291 291 290
310 303 303 306 302 302 306 313 313 312 311 313 313 311 311 309 304 305 307 306 302 301 300 298 297 296 296 296 295 295 294 294 294 294 294 293 293 292 292 291 291 290 289 289
304 301 303 298 299 305 306 312 313 310 309 314 313 312 310 307 308 308 306 302 301 300 298 297 297 296 296 295 295 294 294 294 294 294 293 292 292 291 291 291 290 290 289 288
307 306 305 302 300 308 309 312 310 309 314 314 313 312 310 309 309 306 305 301 300 298 298 297 296 296 294 294 294 294 293 294 293 293 293 291 291 290 290 289 289 288 288 287
311 307 307 309 309 308 312 313 313 313 314 314 312 311 310 307 307 306 302 300 298 297 296 296 295 294 293 293 292 293 293 293 292 292 292 291 290 289 289 289 289 288 287 287
310 311 308 310 311 311 313 313 313 314 314 313 312 310 308 306 307 301 299 298 297 296 296 295 293 292 291 290 291 292 292 291 291 292 292 291 289 288 287 287 287 287 287 286
309 312 311 308 311 313 314 314 314 314 313 311 310 309 307 305 301 299 298 297 296 295 294 293 291 290 290 290 290 290 290 291 291 291 291 291 288 287 286 286 287 287 287 286
312 310 308 310 312 311 312 313 313 312 311 311 310 304 302 301 299 297 296 296 295 294 292 290 290 290 290 290 290 289 289 289 290 290 291 290 289 287 286 286 286 286 286 284

GFSCGP_850_thetae_015.txt.gz
Theta_e
317 314 314 315 316 315 316 315 315 315 315 314 314 313 313 319 320 321 321 322 325 326 326 326 327 326 327 329 329 328 326 325 323 323 321 318 319 316 315 314 314 314 315 314
314 316 316 316 317 317 317 316 317 317 314 314 315 314 315 316 319 320 319 321 326 327 327 328 330 331 330 328 325 325 326 324 321 320 320 320 315 314 313 313 314 313 312 311
315 317 317 317 317 319 319 317 318 318 314 314 316 316 315 316 318 320 319 320 324 324 325 327 326 325 324 322 322 318 318 319 318 318 316 313 314 313 313 312 311 312 311 309
318 317 318 317 317 318 321 319 318 318 314 317 314 316 318 316 317 318 318 318 319 320 320 320 319 319 318 317 316 316 314 314 314 314 313 313 312 312 312 312 311 310 309 308
319 318 318 317 318 318 319 318 318 318 315 315 316 315 317 316 318 317 317 318 317 317 317 317 316 316 315 315 315 315 315 315 315 314 314 313 313 312 311 309 309 308 306 305
317 318 317 318 318 318 317 319 317 317 316 318 319 316 316 315 316 315 316 317 317 317 317 316 316 316 315 315 314 315 315 315 314 314 314 313 312 310 309 308 307 307 306 304
317 317 316 317 320 317 317 318 318 320 318 319 318 319 317 316 315 316 316 318 318 317 317 317 316 316 315 315 315 315 314 313 313 312 312 311 308 306 304 303 302 301 302 301
318 318 316 315 317 318 317 317 317 325 319 317 316 320 317 316 317 317 317 317 317 317 316 316 316 316 315 314 313 313 312 311 310 310 309 306 303 302 300 301 302 301 302 302
318 318 316 316 316 317 318 315 315 315 312 314 316 317 315 315 315 316 316 315 316 316 316 316 315 314 313 312 311 309 307 305 305 303 302 301 301 300 302 302 301 301 301 301
317 317 316 316 317 316 315 315 316 311 315 318 316 318 316 315 315 313 313 313 313 313 313 313 312 311 311 310 308 305 304 303 302 300 300 300 301 303 303 302 300 301 301 299
317 313 315 316 316 317 316 315 313 313 310 313 313 316 313 314 313 312 312 312 312 312 312 311 311 311 309 306 304 303 303 302 301 300 299 299 298 299 296 295 298 300 298 297
315 312 313 317 315 315 316 316 312 310 316 309 309 311 314 312 313 313 313 313 313 312 311 310 310 307 305 304 304 303 302 301 300 299 299 297 296 294 293 294 298 298 297 296
314 313 314 317 316 314 317 316 313 309 306 312 307 309 312 314 313 313 312 311 311 310 309 309 306 304 304 304 303 301 301 300 299 298 297 296 295 293 292 292 292 292 293 295
315 314 312 315 315 313 313 314 314 311 309 310 308 310 315 312 311 311 311 311 310 310 309 306 303 303 303 302 301 300 299 298 297 297 296 295 293 293 293 293 293 291 294 295
312 314 314 312 312 312 313 312 313 314 312 312 311 311 311 312 310 311 311 310 309 308 306 304 302 302 302 301 300 299 298 297 296 296 295 294 293 294 293 293 292 292 294 294
312 312 311 315 312 312 312 311 310 310 311 312 311 312 312 312 312 311 310 309 309 308 305 303 302 301 301 300 298 297 296 296 295 295 294 294 294 294 293 293 291 292 293 293
311 307 305 306 309 309 305 309 312 312 311 311 311 311 310 310 311 311 310 309 309 307 304 302 301 300 299 298 297 296 296 295 295 294 294 294 294 294 293 292 291 292 292 292
309 305 300 304 302 304 308 309 311 312 312 312 311 310 310 310 312 311 310 309 308 305 302 301 300 299 297 296 296 295 295 295 294 294 294 294 293 293 292 291 291 292 291 291
309 302 304 303 305 305 309 312 311 312 310 311 310 309 310 311 310 309 309 307 305 303 301 300 299 297 296 295 295 295 295 294 294 294 293 293 293 292 291 291 291 291 290 290
306 301 302 303 300 301 305 311 312 311 310 312 311 309 309 307 305 305 308 306 305 301 300 299 297 296 296 296 295 294 294 293 293 292 293 293 292 291 291 291 290 290 290 289
304 299 301 294 298 304 305 311 312 310 307 313 313 312 309 306 308 309 308 306 302 300 299 297 297 296 295 294 293 293 292 291 292 292 292 292 291 290 290 289 290 289 289 288
309 308 303 302 301 307 307 310 311 310 310 314 313 313 311 310 309 308 306 301 300 299 297 297 296 296 294 292 291 290 290 291 292 291 291 292 291 291 289 289 289 289 288 287
309 306 307 307 308 307 309 311 313 312 312 314 314 314 313 311 309 307 305 301 299 298 297 296 295 293 291 290 290 290 290 290 290 290 291 292 291 291 288 288 288 287 287 286
309 308 306 308 309 309 310 312 312 312 312 313 314 313 311 309 307 307 302 299 297 296 296 295 293 291 290 290 290 290 290 289 289 289 290 290 290 290 288 287 287 287 286 286
308 309 309 307 308 311 313 313 312 312 313 313 312 312 310 307 307 304 299 297 296 295 294 292 290 290 290 290 290 290 289 289 289 289 289 290 290 289 287 286 286 286 286 285
310 309 306 309 310 312 313 314 314 313 313 313 311 309 308 308 304 298 297 296 294 293 291 290 290 290 290 289 289 289 289 289 288 288 289 289 289 288 287 286 286 285 284 284

GFSCGP_850_thetae_021.txt.gz
Theta_e
314 317 317 316 313 312 313 314 315 314 314 319 319 321 319 318 320 321 322 323 324 325 326 326 325 325 325 325 326 327 327 325 323 323 321 318 318 319 315 314 314 313 312 311
317 318 316 317 315 316 315 316 316 316 316 319 320 321 320 319 318 319 321 322 323 325 326 326 326 326 326 326 327 327 325 323 321 319 318 318 314 313 312 312 312 312 311 311
318 317 315 317 317 319 317 318 317 319 317 317 319 321 322 320 320 319 320 322 324 327 327 327 327 325 324 325 325 325 321 318 318 317 313 313 313 312 312 312 312 311 309 308
318 316 316 317 318 317 320 317 316 318 319 321 315 321 321 322 322 321 321 323 324 326 324 322 320 318 318 318 317 316 314 314 314 313 313 313 313 313 313 312 310 308 307 304
318 317 317 319 317 316 319 316 317 315 317 318 318 322 320 322 324 324 321 320 321 324 320 318 316 316 315 315 313 313 314 314 314 314 313 313 313 312 310 308 305 302 300 298
316 315 316 317 315 315 316 318 318 317 318 320 319 319 320 324 325 323 319 318 319 319 316 315 314 313 313 313 314 314 315 315 314 313 312 310 309 306 302 300 299 299 298 298
317 316 314 315 319 316 318 320 323 325 325 323 317 319 320 318 319 322 319 318 318 317 315 314 314 313 313 313 314 315 314 313 312 309 305 301 298 297 297 297 297 298 299 297
317 318 315 314 317 318 317 320 326 323 325 323 316 322 321 316 316 320 319 318 316 316 315 314 314 314 314 314 314 314 312 309 305 303 300 299 299 298 299 299 299 296 294 294
319 317 315 314 315 317 317 318 316 318 313 320 319 318 317 315 315 317 317 317 316 315 315 314 314 314 314 314 313 310 307 305 302 302 299 299 298 297 296 296 295 293 292 292
317 319 314 315 315 315 317 314 319 316 318 318 316 318 320 318 317 318 316 316 316 316 315 315 315 314 312 310 308 310 312 310 308 300 299 299 297 296 296 295 293 292 292 291
313 317 316 315 317 318 317 316 314 314 314 316 316 316 315 318 318 318 317 316 316 316 315 315 313 311 309 307 309 310 305 303 300 300 299 297 296 296 294 292 292 292 292 291
314 315 318 316 314 315 315 315 315 317 315 312 313 316 310 314 316 316 316 314 315 316 315 313 311 309 307 306 307 303 304 301 300 299 298 296 296 295 293 293 293 293 292 291
314 316 319 318 315 314 316 314 311 310 312 315 322 316 310 313 312 314 315 314 314 314 313 311 309 308 306 305 304 303 302 300 299 298 296 296 295 293 293 293 293 293 292 291
313 313 316 318 315 314 315 315 311 313 316 313 316 314 311 315 314 312 312 313 312 312 311 310 309 307 304 304 304 303 300 299 298 296 296 296 294 294 293 293 293 292 291 291
313 316 313 312 312 312 311 313 313 313 313 317 313 311 312 313 315 313 311 310 310 310 309 309 308 305 304 303 305 301 299 298 296 296 296 295 294 294 294 293 292 291 291 291
311 315 311 313 311 311 313 311 311 313 312 311 311 313 311 310 311 311 311 310 309 309 309 309 307 304 303 305 302 300 298 296 296 296 295 294 294 293 293 292 291 291 290 290
311 311 311 312 308 308 311 311 312 311 311 314 314 314 311 312 311 312 311 311 310 310 310 309 306 304 304 304 300 298 297 296 296 295 293 293 291 292 292 291 290 290 290 290
308 306 304 311 306 312 311 310 309 311 310 309 309 310 311 311 311 311 311 312 311 311 310 308 304 303 305 300 298 297 296 296 295 293 291 290 291 291 291 290 290 290 290 289
306 306 306 313 310 308 309 307 310 312 313 310 310 310 309 309 310 311 312 312 312 311 310 308 304 301 300 298 297 296 296 295 292 290 290 290 290 290 289 291 291 290 289 289
305 304 311 305 310 311 309 306 310 310 316 310 310 310 309 310 315 314 312 312 311 310 309 306 302 300 298 297 296 296 294 291 290 290 290 290 289 289 289 291 291 290 289 289
310 307 310 302 312 309 306 308 310 314 314 308 310 311 309 312 313 311 312 312 311 309 305 302 300 298 297 296 296 294 291 290 290 290 289 289 289 289 289 290 290 290 288 288
312 312 311 303 308 313 305 311 314 313 310 309 311 312 312 312 311 311 311 311 308 306 304 300 298 297 296 296 293 291 290 290 289 289 289 289 289 289 289 290 289 290 288 287
312 311 313 310 313 307 307 311 312 311 311 310 311 311 311 311 311 310 310 308 306 304 299 300 299 296 295 293 290 290 289 289 289 289 289 289 289 288 289 289 289 289 287 287
308 306 310 309 309 306 308 309 309 310 310 310 311 311 311 312 310 309 308 305 300 300 300 298 296 294 292 290 290 289 289 289 289 289 289 289 288 287 288 289 289 288 286 286
309 307 308 308 308 309 310 310 310 310 311 311 312 311 310 311 310 308 306 299 301 302 297 295 294 291 290 290 289 289 289 289 289 289 289 288 287 287 287 288 288 287 286 285
307 310 312 313 311 309 310 310 311 312 312 312 313 312 311 310 310 307 300 302 302 296 295 293 292 290 290 289 289 289 289 289 289 289 288 287 288 287 287 287 287 287 285 285

GFSCGP_850_thetae_027.txt.gz
Theta_e
320 321 321 321 321 320 320 320 318 320 322 320 319 322 323 325 325 326 327 329 330 330 331 330 330 330 331 332 331 332 330 327 326 325 324 323 321 319 318 317 315 314 313 312
321 321 322 321 319 320 319 319 320 320 320 322 320 321 324 326 326 326 326 327 328 330 331 330 331 331 332 331 330 329 330 327 327 325 325 323 321 319 316 314 313 313 312 311
322 322 321 320 319 319 320 320 321 321 321 321 323 324 326 325 327 328 328 328 328 329 331 331 332 331 330 329 329 328 328 328 326 323 321 321 320 316 315 314 314 312 311 309
322 322 321 320 321 321 321 322 322 322 323 322 323 321 325 327 326 327 328 329 330 330 331 331 332 330 329 328 327 328 327 325 322 320 319 319 318 317 317 315 313 311 309 307
323 322 322 322 323 323 324 322 323 323 324 325 324 322 324 327 327 327 326 327 329 329 330 331 331 330 330 327 327 326 323 321 320 318 318 318 317 315 313 310 308 306 306 305
322 321 323 323 322 323 323 323 323 324 323 324 321 323 324 328 327 328 328 329 329 330 328 327 327 327 327 327 323 321 319 318 317 317 316 315 312 308 307 306 305 305 304 303
322 322 322 322 323 323 322 323 325 325 324 324 323 323 322 321 325 328 330 329 329 326 323 322 322 322 323 322 320 318 317 316 315 313 311 308 306 308 309 305 304 302 301 300
322 323 322 322 323 323 323 323 325 322 322 321 324 321 322 324 323 326 328 328 328 324 321 320 319 319 319 319 318 316 316 315 313 309 307 308 306 305 304 303 301 300 299 298
322 322 321 321 322 321 323 322 323 324 326 324 319 319 324 323 323 325 328 327 326 323 321 320 319 319 319 318 317 316 316 313 309 308 308 303 301 300 301 300 300 299 298 297
322 323 321 321 321 322 322 322 322 321 322 322 320 320 322 324 323 325 327 326 325 323 321 320 319 319 319 318 317 317 314 310 309 306 304 301 300 301 300 300 299 298 298 297
322 321 323 321 321 321 323 322 321 322 324 323 319 320 320 320 322 323 325 325 324 323 322 320 320 319 318 317 317 314 312 310 306 304 304 303 301 300 300 300 299 298 298 297
322 322 323 323 322 321 322 323 323 322 321 321 324 321 319 320 320 322 323 324 324 323 322 321 320 319 318 317 315 313 311 308 305 307 304 301 301 300 300 299 298 298 298 297
323 321 323 323 323 321 320 320 321 320 321 321 326 320 319 319 319 319 320 322 323 322 322 321 320 319 318 316 314 312 309 306 308 306 303 301 300 300 300 299 298 298 297 297
318 321 322 324 323 322 322 321 320 320 321 319 319 318 318 319 319 318 318 319 321 322 322 322 321 319 317 315 314 310 307 306 307 303 302 300 300 300 299 298 297 297 297 296
322 323 322 322 321 320 320 319 320 320 319 320 319 317 316 317 317 317 317 318 318 321 321 321 320 319 317 314 312 308 306 307 306 302 301 300 299 299 298 297 297 297 296 295
321 322 322 323 321 320 319 319 318 319 318 318 318 318 318 317 317 317 316 317 317 318 320 320 320 319 317 314 311 307 305 305 304 301 300 299 299 298 297 296 296 296 295 294
323 322 321 319 317 318 320 320 319 319 318 319 320 319 318 317 317 316 316 317 317 317 318 318 318 318 316 314 310 306 304 305 302 300 299 298 298 296 295 295 295 294 294 294
323 322 321 321 316 323 316 316 316 317 317 317 317 317 316 316 316 316 316 316 316 316 316 317 317 316 315 312 308 305 305 302 300 299 298 298 296 295 295 294 294 294 294 294
318 320 320 325 318 317 316 314 315 315 316 316 315 315 315 316 316 316 316 315 314 314 315 316 315 315 313 310 306 304 302 299 299 298 297 296 294 294 294 293 293 293 294 293
315 317 319 318 325 325 318 315 314 315 316 314 314 314 314 315 316 316 316 314 314 314 315 315 315 313 311 307 304 301 300 299 298 297 295 294 293 293 293 293 293 293 293 293
321 321 323 321 324 321 317 314 314 317 318 315 314 314 315 316 314 317 315 314 314 314 314 314 314 311 307 303 301 299 299 298 297 294 291 291 292 292 293 292 292 293 293 292
321 324 322 323 321 322 313 315 316 318 314 314 315 314 315 316 316 315 315 314 314 314 314 310 307 305 300 298 299 299 297 295 293 291 292 292 292 293 292 292 292 292 292 292
321 321 322 320 320 316 314 314 314 314 314 314 314 314 314 314 314 314 314 314 313 312 308 304 302 298 297 296 296 296 294 293 292 291 292 292 292 292 292 292 291 291 291 291
318 316 318 317 315 315 314 314 313 314 314 314 314 314 315 315 315 315 315 312 309 306 302 299 298 297 298 297 294 293 291 293 290 291 292 292 292 292 291 291 291 291 290 290
318 316 317 317 315 314 314 315 314 314 315 315 315 315 315 315 315 315 314 308 303 299 297 297 299 296 294 294 292 293 293 290 290 291 291 291 291 291 291 291 291 290 289 289
316 317 319 318 315 316 316 315 315 315 314 312 312 312 310 310 312 310 304 300 298 296 297 295 294 293 293 293 293 290 290 290 290 289 289 290 290 290 290 290 290 289 289 289

GFSCGP_850_thetae_030.txt.gz
Theta_e
321 322 321 321 322 321 320 320 320 319 320 320 323 321 321 322 324 329 329 329 329 328 329 328 326 325 326 332 332 330 328 326 325 324 324 324 322 320 321 318 317 315 314 313
323 322 321 322 321 321 321 321 321 320 320 320 319 320 321 322 324 326 328 329 330 330 331 331 329 330 333 333 332 330 328 328 325 326 325 323 322 320 318 317 314 313 312 312
323 322 322 322 320 320 320 320 322 320 319 318 320 319 322 323 324 324 325 327 328 330 332 331 331 332 333 333 331 329 328 327 326 326 324 323 321 319 317 314 314 313 312 310
323 322 322 320 320 320 322 323 322 322 321 320 322 322 325 325 325 326 326 326 327 328 332 331 332 333 333 332 329 329 328 327 325 324 322 321 320 317 316 316 314 312 310 307
324 322 322 321 322 323 322 322 323 321 322 326 324 323 325 325 325 327 328 329 328 329 331 331 333 332 330 329 328 330 328 325 324 321 321 319 318 317 316 313 312 308 306 306
321 321 322 323 323 323 323 323 323 323 323 328 323 326 325 325 324 327 326 327 329 331 330 330 332 330 328 327 328 327 325 323 322 320 319 319 317 314 311 308 309 307 305 304
320 321 322 323 323 322 321 322 327 330 330 329 323 323 325 324 326 326 328 327 329 329 330 330 331 330 327 326 326 324 322 320 319 318 318 316 315 311 308 310 306 305 304 301
322 323 322 322 322 323 323 321 327 329 328 327 323 322 323 324 323 327 328 329 330 329 328 328 327 327 328 325 323 321 319 318 317 315 312 310 309 309 307 305 305 303 301 300
323 323 322 322 322 321 322 322 322 322 328 332 321 319 323 323 323 326 329 329 329 327 324 324 323 324 324 322 320 319 318 317 315 311 309 308 308 306 304 304 305 300 300 298
324 324 323 321 321 321 321 321 324 322 324 323 320 320 325 324 322 324 329 328 329 326 323 322 321 321 321 320 319 317 317 316 313 309 309 308 305 304 305 301 300 300 299 298
323 324 323 322 321 319 323 322 320 319 325 329 329 321 320 321 322 323 326 327 327 326 324 322 321 320 320 319 319 317 317 315 311 309 308 306 306 304 302 301 301 300 298 298
321 322 324 322 322 322 321 323 322 331 323 326 329 324 320 320 320 321 322 325 326 326 324 322 321 320 320 320 319 318 317 313 310 308 307 306 305 304 301 301 300 299 298 298
323 322 323 321 323 323 321 320 320 322 324 325 332 324 320 319 318 318 320 322 324 325 324 323 322 321 320 320 319 318 315 313 310 306 305 305 303 301 301 300 300 299 298 298
322 321 320 325 322 322 323 321 319 321 328 323 322 319 319 319 319 319 318 318 320 323 323 323 322 321 321 320 318 317 315 312 308 305 306 303 302 301 300 300 300 298 298 297
322 321 320 320 321 322 322 321 320 320 321 322 322 319 319 318 319 318 317 318 318 318 322 322 322 322 321 320 318 317 314 311 307 306 304 302 301 300 300 300 298 297 297 297
322 324 322 324 322 322 321 321 320 319 319 319 319 319 319 318 318 317 316 316 317 317 317 320 321 322 321 320 318 316 313 309 306 306 303 301 302 300 299 298 297 296 296 296
325 326 325 324 319 318 319 320 319 318 319 319 320 320 319 318 317 317 317 317 316 317 317 317 319 319 320 320 318 315 312 307 306 305 302 301 300 299 298 296 295 295 295 294
325 326 328 328 317 322 317 317 316 317 317 317 317 317 316 317 316 315 315 316 316 316 316 316 316 317 318 319 317 314 310 306 305 304 301 300 298 297 296 295 294 294 294 294
322 324 326 327 322 318 317 316 316 316 316 316 315 315 315 315 315 316 316 316 314 314 313 313 315 316 316 317 315 311 307 305 304 301 299 299 297 295 295 293 293 293 293 293
317 322 326 322 327 325 320 315 315 315 318 315 315 315 315 315 319 318 317 315 314 314 314 314 314 315 315 314 311 307 305 302 300 299 297 296 295 293 292 293 293 293 293 293
322 324 323 323 325 323 318 315 315 319 322 316 315 315 315 317 316 316 316 316 315 315 315 315 315 314 312 309 306 302 300 299 298 296 296 294 294 292 292 292 292 292 292 293
322 326 322 327 322 322 315 315 317 320 316 315 315 315 315 315 315 315 315 315 315 314 313 311 309 306 304 302 300 299 299 296 295 292 294 293 291 292 293 293 292 292 291 292
323 323 327 323 324 318 314 314 314 314 314 315 315 315 315 315 315 315 315 315 314 312 308 305 302 300 299 298 298 297 296 294 293 293 292 292 291 292 292 293 293 292 291 291
320 319 322 320 317 316 315 314 314 315 315 315 316 316 316 316 316 316 315 312 309 305 301 299 298 298 298 298 298 296 294 294 293 292 292 291 292 292 292 290 291 292 291 291
320 319 318 318 317 316 316 317 317 316 316 315 315 314 311 312 314 312 307 304 300 300 299 298 298 297 296 296 296 295 293 293 291 290 290 290 290 290 290 291 291 291 291 290
319 319 323 323 317 318 317 313 313 312 310 309 309 307 305 305 304 303 301 299 300 299 298 298 298 298 296 296 293 293 292 291 290 289 289 289 289 289 290 291 291 290 289 289

GFSCGP_850_thetae_033.txt.gz
Theta_e
321 318 319 321 320 321 321 319 318 317 317 321 322 318 317 321 326 327 328 327 327 325 324 325 326 328 328 329 328 325 325 327 325 322 320 320 323 320 320 320 320 317 314 313
320 321 320 321 322 322 322 320 319 318 318 319 319 318 316 318 322 327 328 329 329 327 326 325 325 327 329 330 329 328 326 327 327 322 322 323 323 321 320 319 317 314 313 312
322 321 322 321 320 321 321 322 319 319 318 317 316 316 319 319 322 327 328 329 329 328 329 327 328 328 331 331 331 330 329 325 326 325 324 325 321 319 318 317 313 313 312 312
320 321 322 321 321 321 321 321 322 322 318 317 319 321 324 322 323 322 326 328 329 328 330 329 329 332 332 332 331 330 329 327 326 325 326 323 321 319 318 315 315 313 312 308
321 322 322 322 322 322 322 321 321 322 322 323 321 319 319 323 321 323 324 325 329 330 331 331 330 331 333 333 331 329 328 327 325 324 323 322 320 319 317 316 314 313 308 306
319 321 322 322 322 321 321 321 322 322 321 323 322 321 323 323 322 324 323 326 328 331 332 331 331 332 332 332 329 328 328 325 324 324 323 321 320 319 316 314 313 308 306 306
321 320 321 321 321 321 321 321 322 322 323 324 324 323 321 322 321 324 325 325 326 331 331 331 331 332 332 330 327 328 328 325 324 321 321 320 319 317 316 314 309 308 307 305
321 323 321 322 321 323 321 320 323 327 325 324 324 325 323 320 322 323 325 322 326 329 329 330 332 331 328 327 326 327 325 324 322 321 319 319 316 314 313 309 309 309 308 305
322 324 322 322 321 321 322 323 321 324 323 321 320 317 321 320 322 323 323 322 329 329 330 331 330 330 327 325 326 326 324 321 320 319 319 318 317 314 309 309 308 309 306 302
322 323 322 322 321 319 320 319 320 320 320 321 319 321 323 321 325 323 325 329 330 329 329 328 328 328 327 326 325 323 321 319 319 318 317 315 312 310 307 305 304 304 300 299
320 323 324 322 322 319 320 319 320 319 320 321 321 318 318 320 319 323 326 329 329 327 326 325 325 324 325 325 323 321 319 318 317 316 313 310 309 306 302 304 303 300 300 299
321 322 323 324 321 320 320 321 321 317 319 320 315 318 317 317 318 320 324 327 328 327 324 323 322 321 321 321 320 319 318 317 316 315 311 309 309 305 305 302 301 302 300 299
322 319 318 318 320 321 320 319 319 320 318 320 314 316 316 317 317 320 320 322 327 327 325 323 321 320 320 320 319 319 318 317 316 313 310 309 308 306 303 301 301 300 299 298
322 321 318 317 318 321 322 320 319 318 315 317 316 318 316 315 315 316 318 318 323 326 326 324 322 321 320 320 320 319 318 318 317 312 309 309 307 304 302 302 300 300 300 298
319 319 318 318 320 321 321 321 319 318 318 317 317 318 317 316 314 315 317 318 318 319 322 324 323 322 320 320 320 319 318 318 317 313 310 308 304 303 302 300 301 301 297 297
319 321 320 321 321 318 319 319 318 318 318 317 317 317 315 316 316 316 316 316 316 317 317 317 320 322 322 321 320 319 318 317 316 314 308 307 303 302 301 300 301 297 295 294
320 320 316 319 314 314 312 315 316 318 317 316 316 315 313 313 314 315 315 316 316 316 316 316 316 317 321 321 320 319 318 315 312 309 307 303 302 301 299 299 297 296 294 294
321 320 313 314 311 310 314 315 314 314 314 312 312 311 313 313 315 315 315 315 314 314 313 313 314 315 315 318 320 319 317 313 309 306 303 302 300 299 297 297 294 294 293 293
321 315 315 312 313 315 315 315 316 314 314 313 312 312 313 314 315 316 315 314 314 314 314 314 314 315 316 317 317 317 312 307 305 303 301 299 298 296 295 294 293 293 293 293
317 316 310 313 313 310 315 314 315 314 314 314 314 313 314 314 310 313 316 315 315 314 314 314 314 315 315 313 312 309 305 305 301 300 298 296 296 294 294 295 293 293 293 292
311 311 310 307 309 313 318 314 314 311 312 315 314 315 314 313 314 315 315 315 314 314 314 314 314 313 309 308 308 306 302 300 298 298 297 297 297 297 293 293 292 292 292 292
314 314 309 312 315 316 315 314 312 315 314 314 314 315 315 315 315 316 315 315 313 313 311 310 311 308 304 303 304 301 299 297 298 297 299 298 294 293 293 292 292 293 293 292
317 317 315 315 314 315 314 313 314 314 315 315 316 316 316 316 316 315 314 312 308 308 308 307 307 304 301 301 300 299 300 300 300 300 295 293 293 292 291 291 292 292 292 291
318 318 316 314 316 315 314 316 316 315 316 315 315 315 315 314 314 312 310 306 305 303 302 301 301 301 300 300 301 300 298 297 295 294 292 292 290 290 291 291 291 290 290 291
316 316 316 315 315 316 315 315 315 314 314 312 313 311 309 311 307 307 304 302 301 301 300 300 300 299 298 297 297 295 294 293 292 291 290 290 289 289 289 289 290 290 290 291
316 315 311 311 316 314 311 311 312 312 309 308 309 307 305 305 303 303 302 300 299 299 298 298 297 297 297 294 293 293 292 290 290 290 290 289 289 290 290 290 290 290 290 288

GFSCGP_850_thetae_036.txt.gz
Theta_e
320 318 318 317 318 318 320 321 319 315 316 322 321 318 316 325 328 332 329 325 328 331 331 330 330 330 330 329 325 317 319 322 324 324 324 324 320 318 321 320 320 319 318 317
318 320 319 318 321 321 320 320 319 317 316 320 319 318 315 320 325 328 326 324 327 330 330 330 331 330 329 328 324 321 317 320 324 325 323 320 318 320 321 320 319 317 314 312
319 320 321 321 321 320 319 320 320 320 317 315 315 316 319 317 323 325 325 326 325 326 328 328 329 329 328 328 327 327 325 324 326 326 323 320 320 323 321 319 318 316 313 312
319 319 321 321 321 320 320 319 319 320 317 314 316 319 320 321 320 323 325 326 326 324 325 325 327 328 328 328 328 329 328 327 327 326 323 321 323 323 321 319 318 314 312 312
318 320 321 321 321 321 321 320 320 320 320 319 320 317 317 321 320 320 322 326 327 326 325 324 324 325 327 328 329 330 328 328 326 326 325 323 325 322 319 318 315 313 313 312
318 320 320 321 321 320 320 320 320 320 320 321 321 318 317 321 320 319 320 324 327 327 326 327 327 328 328 329 330 329 329 328 327 326 325 324 323 321 319 317 315 314 311 309
320 321 320 321 321 320 321 319 319 320 320 320 323 320 319 318 320 319 320 323 325 327 329 328 329 330 331 331 330 330 329 327 327 325 324 323 322 321 319 317 315 313 310 307
319 320 320 321 321 321 320 318 319 322 321 320 322 324 322 319 319 321 322 322 326 328 329 330 330 330 331 331 331 329 327 327 325 324 324 323 323 321 319 317 314 309 307 307
321 323 321 320 320 320 320 320 319 322 320 319 321 318 318 319 319 321 322 323 329 330 331 331 330 331 331 330 329 328 328 328 325 325 323 322 320 316 314 311 308 307 304 304
320 321 320 321 321 320 318 319 320 318 322 323 318 319 319 324 324 322 321 322 326 328 329 330 331 331 331 329 326 326 327 327 325 323 320 319 316 313 311 309 307 305 304 303
319 318 320 321 321 321 318 318 318 317 316 318 319 317 313 320 323 321 321 322 327 328 329 329 330 330 329 328 326 325 325 325 324 322 320 319 317 315 312 308 306 303 302 301
319 320 321 321 320 319 317 319 318 315 317 317 313 316 315 315 317 323 325 325 328 329 329 329 329 329 328 327 326 325 324 324 322 320 319 318 316 314 311 306 302 305 303 302
318 319 319 319 316 319 319 317 318 317 314 316 314 316 314 313 315 320 326 327 328 328 329 328 328 327 326 325 322 323 324 321 321 319 317 316 314 311 308 306 306 306 303 300
318 317 317 317 316 317 320 320 318 316 314 316 315 317 316 314 313 313 317 320 327 328 328 327 326 325 324 323 322 323 322 320 319 317 317 316 314 310 308 306 304 305 299 300
317 318 317 316 317 320 320 320 319 317 316 316 315 316 315 315 313 314 315 316 320 325 325 323 322 322 322 322 322 322 320 319 318 317 314 311 309 306 304 302 301 299 299 298
317 317 318 319 317 316 318 316 315 317 317 316 316 316 311 312 314 315 315 316 315 315 315 316 318 322 321 320 320 320 319 319 318 316 312 308 305 302 303 301 299 298 298 299
318 317 313 318 312 313 312 314 315 316 316 316 314 313 311 310 311 312 314 314 314 313 314 314 315 316 320 321 320 320 319 318 317 313 308 306 304 303 302 301 297 297 296 295
316 316 309 311 309 311 315 313 314 312 311 311 311 311 311 312 313 313 313 313 313 313 313 313 313 313 315 318 320 319 318 317 312 308 306 304 302 302 298 296 296 298 298 296
318 312 313 311 311 313 314 313 312 312 314 312 310 311 312 315 316 315 315 314 314 314 314 314 314 313 313 314 317 318 316 312 308 306 303 301 300 297 296 297 298 299 294 293
314 312 312 310 311 310 312 313 313 312 312 313 312 312 313 312 311 311 315 315 314 314 314 314 314 314 314 315 316 316 312 308 306 302 301 299 296 297 300 299 295 293 293 292
309 309 309 304 307 308 311 313 313 310 309 313 313 313 313 311 312 314 314 314 314 313 313 313 313 313 313 312 311 310 305 302 300 299 298 298 300 300 296 293 292 292 292 292
313 311 307 311 309 313 314 313 312 310 313 314 314 314 315 315 315 314 312 312 311 311 310 309 309 308 305 304 305 305 305 302 300 299 300 300 297 293 293 292 291 290 291 291
315 311 311 312 312 312 312 314 314 314 315 315 315 315 315 315 313 311 309 308 307 306 305 304 304 302 301 300 300 300 299 300 300 300 298 294 293 292 291 290 290 290 290 290
315 316 315 314 314 314 314 314 315 315 315 314 315 315 315 313 309 307 305 303 302 301 300 300 300 299 299 299 298 298 297 296 294 293 292 292 290 290 290 289 289 289 289 289
314 314 314 313 314 313 312 311 312 312 312 312 312 312 311 311 305 304 301 300 299 299 299 299 299 298 297 296 294 293 292 291 290 290 290 290 289 289 289 289 289 290 290 289
313 313 311 310 315 312 310 309 310 311 309 309 309 306 304 306 303 301 300 299 298 298 297 297 296 295 293 292 292 291 291 290 290 290 290 290 289 290 290 290 290 290 290 290

GFSCGP_850_thetae_039.txt.gz
Theta_e
319 317 318 316 316 317 319 319 319 315 317 321 320 317 323 325 329 331 330 332 332 330 330 328 324 322 321 325 326 327 327 324 323 323 325 326 328 327 323 318 321 320 320 320
316 318 317 318 318 319 319 319 318 318 318 319 317 318 316 323 329 331 332 332 332 330 330 330 326 325 325 327 326 327 325 325 323 323 325 327 327 323 319 320 320 319 319 318
317 318 319 320 319 319 318 319 319 319 317 314 316 317 316 316 325 329 330 332 328 331 330 330 328 327 328 328 328 326 320 321 322 322 326 326 324 320 320 320 320 319 317 315
317 318 319 320 320 319 319 318 318 318 318 313 315 316 317 316 321 322 326 328 325 328 330 330 329 328 329 328 328 327 322 319 319 323 325 325 324 320 319 321 321 318 316 313
317 319 320 320 319 319 319 320 319 319 318 318 317 315 315 318 317 321 323 324 325 326 329 330 329 328 328 329 329 327 323 320 320 322 325 326 324 320 322 322 320 317 315 313
316 318 319 318 320 319 319 319 317 318 318 319 320 317 316 318 319 317 321 324 325 324 326 328 328 329 329 329 329 327 326 324 324 326 327 326 322 321 322 323 319 317 314 312
319 320 319 320 319 319 318 318 319 319 319 319 319 319 318 317 316 317 317 322 325 325 324 325 326 327 328 328 328 327 327 326 327 328 327 327 325 322 323 321 319 317 314 313
318 318 318 320 320 320 319 317 317 321 319 318 320 322 320 318 318 318 320 321 323 325 325 324 325 325 325 326 327 327 327 327 328 328 327 326 326 324 323 321 319 317 315 312
319 320 320 319 320 319 320 320 317 319 317 317 318 318 315 317 319 319 320 321 324 323 326 326 326 327 326 326 327 328 328 328 328 328 327 325 325 324 322 321 319 315 312 308
317 318 319 320 320 319 319 317 319 317 320 323 317 317 317 320 320 320 319 323 324 326 327 327 327 328 329 329 330 330 330 328 327 327 325 324 323 323 322 320 317 314 308 305
317 315 317 320 319 318 317 317 316 315 314 317 317 317 311 317 318 321 319 321 324 327 328 329 330 329 330 330 330 330 327 326 326 326 325 324 323 322 321 318 314 312 310 310
317 315 316 318 319 318 317 317 315 315 316 315 313 315 313 313 314 319 322 322 323 325 325 326 327 329 329 330 331 329 327 325 324 324 324 324 320 318 316 315 314 311 308 303
317 317 317 317 316 317 319 316 317 315 311 316 313 315 312 312 313 317 322 324 323 325 327 327 328 328 327 329 329 328 326 325 324 323 322 322 319 318 315 311 306 304 301 301
317 316 316 317 317 317 319 318 316 316 314 315 313 315 315 314 313 313 315 321 324 325 327 327 328 329 328 328 328 327 325 325 323 322 322 319 317 315 311 307 305 304 301 303
316 317 315 315 315 318 317 318 316 315 314 315 315 314 315 314 312 312 313 316 319 320 324 326 326 327 328 328 328 326 325 323 322 321 319 318 316 312 308 306 303 301 302 300
315 315 316 317 315 315 318 316 315 315 315 314 314 314 311 311 312 312 313 314 315 316 318 319 320 322 322 323 324 325 323 322 322 320 318 316 310 307 306 303 302 302 299 298
315 315 312 315 312 312 312 313 314 314 315 315 314 312 310 310 310 311 312 313 313 314 314 314 315 315 318 319 319 319 320 321 320 318 316 312 308 306 302 302 302 300 298 298
314 312 308 311 309 312 314 312 312 313 311 310 310 310 311 310 311 312 313 313 313 313 313 313 313 313 313 314 315 318 318 318 317 314 310 307 306 304 302 301 299 299 300 299
315 310 310 312 312 313 314 311 311 311 312 311 309 309 312 313 314 314 314 314 314 314 314 314 313 313 314 314 315 317 317 314 312 309 306 304 302 301 299 298 300 299 298 295
310 309 312 307 311 313 313 311 312 310 311 311 310 310 311 312 309 310 313 314 314 314 313 313 313 314 314 313 314 314 314 310 307 304 303 300 297 298 299 300 299 296 293 293
310 308 311 304 307 310 309 312 311 311 310 312 312 312 311 309 309 313 313 313 313 313 312 312 312 312 311 311 310 311 308 305 302 299 299 301 300 298 299 297 294 293 292 292
314 311 307 305 305 313 311 311 310 309 311 313 313 313 313 314 313 312 311 310 310 309 308 307 308 307 305 305 305 304 303 301 301 301 299 299 300 298 295 293 292 291 290 290
314 312 312 312 311 311 312 311 313 314 314 313 314 314 314 313 310 309 308 306 305 305 304 303 304 302 300 300 300 301 300 299 299 299 297 295 294 293 292 291 290 290 290 289
314 312 311 312 314 313 312 313 313 313 314 314 314 314 313 312 307 306 304 303 303 302 301 301 300 300 299 299 299 298 296 294 293 292 291 290 290 289 289 289 289 289 289 289
312 313 312 312 312 311 311 312 314 314 314 315 314 313 312 311 306 305 302 301 300 299 299 299 299 298 296 293 293 292 291 291 290 290 290 290 290 289 289 289 289 290 290 290
312 312 312 311 313 312 311 310 311 312 311 312 312 309 307 308 305 302 300 299 298 298 297 296 294 293 292 292 291 291 291 290 290 290 290 290 290 290 290 290 290 290 290 291

GFSCGP_850_thetae_042.txt.gz
Theta_e
318 316 317 315 314 316 318 318 319 317 316 322 320 318 321 323 326 328 330 330 328 328 328 328 326 324 321 322 322 323 325 324 319 315 322 326 327 326 326 324 321 319 319 320
316 317 316 316 316 318 318 319 318 316 316 317 316 316 318 322 325 328 329 329 329 329 329 329 327 327 324 323 321 321 321 325 320 320 323 324 323 325 326 324 323 319 320 320
316 316 318 319 318 318 318 318 318 318 316 314 316 316 313 318 325 329 329 329 329 330 330 329 329 325 323 321 323 322 323 325 324 321 322 323 326 327 326 325 320 319 319 319
317 316 318 319 319 316 319 317 318 318 317 316 313 315 315 314 324 323 328 330 330 331 331 330 329 328 325 323 324 326 325 325 325 324 323 322 324 326 326 324 320 319 318 317
317 318 319 319 318 317 317 318 319 318 318 317 317 315 314 315 316 323 325 328 330 331 331 330 330 328 327 326 326 327 327 327 324 324 324 323 325 326 324 322 319 319 317 315
315 317 317 317 318 317 318 318 315 315 316 319 318 315 316 316 317 316 322 325 329 328 330 328 329 329 328 327 327 328 328 327 326 324 323 323 325 325 324 321 320 319 317 315
317 318 318 319 319 317 316 316 318 319 319 320 318 318 317 316 316 316 316 321 326 329 329 328 327 329 328 327 327 328 328 328 327 324 322 321 322 325 322 321 321 320 318 316
316 316 318 318 318 317 318 317 317 320 319 317 318 320 318 317 317 319 317 318 319 323 325 327 326 327 328 327 327 328 329 329 328 326 323 323 323 326 323 321 323 321 318 317
317 318 318 318 319 318 318 318 315 317 316 316 316 316 313 316 319 319 319 318 319 322 323 325 325 325 326 327 326 327 327 327 327 327 325 326 326 326 324 323 321 320 317 316
316 316 318 319 319 318 318 316 317 315 320 321 316 316 315 315 317 320 319 320 322 321 323 324 324 324 325 325 325 325 325 325 326 327 326 326 327 326 323 322 322 321 319 317
314 314 314 319 318 317 317 316 314 314 313 316 316 315 311 313 315 317 318 320 322 323 324 324 325 326 325 325 325 325 327 328 328 328 328 327 326 325 322 322 319 319 319 317
315 312 312 315 317 316 315 316 314 314 316 313 312 314 312 310 311 313 318 321 321 323 324 326 327 327 327 327 328 328 329 329 325 325 326 325 324 323 321 320 321 319 317 314
315 314 314 314 314 316 318 316 315 312 310 315 313 315 311 311 311 314 316 320 322 322 324 326 328 328 328 328 328 329 327 325 324 324 322 322 322 321 321 320 319 316 311 306
315 314 313 314 314 314 318 316 315 315 313 314 313 314 313 313 312 312 315 314 317 324 324 325 326 327 328 329 328 327 326 325 325 324 324 323 322 320 317 316 313 310 306 305
314 315 314 314 315 315 316 317 314 314 314 315 316 313 313 312 311 310 311 314 317 319 323 325 325 326 326 327 328 327 326 326 325 324 323 322 318 315 313 312 308 303 302 301
313 315 313 316 314 314 318 315 314 314 314 313 313 313 310 311 311 311 312 315 316 317 318 319 319 319 319 320 320 321 322 323 324 323 322 319 314 311 310 307 304 302 301 301
313 313 311 316 311 313 312 312 314 313 313 314 314 312 308 309 309 310 312 313 313 313 314 314 314 314 314 314 315 317 318 318 319 320 318 315 312 308 305 302 302 301 300 300
312 311 308 309 309 312 314 312 312 313 312 311 310 309 308 309 310 311 311 312 312 313 313 313 313 313 313 313 313 314 316 317 316 315 313 310 308 306 303 301 299 299 300 300
311 309 310 312 311 312 314 311 311 311 310 308 308 308 309 311 312 311 312 312 312 312 313 313 313 313 313 313 313 314 315 315 313 311 309 307 304 302 300 298 299 300 300 298
310 308 311 306 311 312 312 312 310 309 310 308 309 308 310 311 309 308 310 310 311 312 312 312 313 313 313 312 312 313 312 310 308 306 305 303 300 299 299 300 300 299 298 294
309 308 309 302 307 310 310 310 310 311 310 310 311 312 311 308 307 311 310 311 311 311 311 311 311 311 310 309 308 309 306 305 303 301 300 300 301 300 300 300 298 295 293 292
316 313 307 304 306 316 310 310 310 309 310 311 312 313 311 311 311 311 310 310 309 309 308 307 307 306 304 304 305 303 301 299 299 300 300 300 300 297 296 294 292 292 290 290
316 314 313 313 314 311 311 310 312 312 311 311 312 312 312 312 311 310 309 307 306 306 305 303 304 302 301 300 300 301 300 299 299 298 295 293 292 291 290 290 289 289 289 289
311 310 311 312 312 311 313 312 312 312 312 312 313 313 313 312 310 308 306 304 303 302 301 301 300 300 299 298 298 297 296 294 292 291 290 290 290 289 289 289 289 289 289 289
311 310 311 310 311 311 312 312 312 312 313 313 313 313 313 312 307 306 303 302 301 300 299 299 299 298 297 294 294 292 292 291 290 290 290 290 289 289 289 289 289 290 290 290
311 311 312 313 312 313 312 312 312 312 313 313 313 311 309 309 308 304 302 300 299 299 298 298 297 295 293 292 291 291 290 290 290 289 289 290 290 290 289 289 287 286 285 283

GFSCGP_850_thetae_045.txt.gz
Theta_e
318 320 321 318 316 317 318 319 320 318 316 323 324 324 323 327 328 328 328 328 327 325 325 323 322 321 319 321 322 323 323 323 323 319 314 315 318 319 324 324 324 322 319 318
318 321 318 316 316 318 318 319 319 318 317 318 318 319 318 325 328 329 328 329 327 326 326 327 326 323 321 319 321 323 324 325 324 320 314 315 320 323 326 325 324 323 320 319
319 318 317 319 318 319 319 319 319 320 318 315 317 318 317 322 324 326 328 329 328 328 327 327 328 326 324 321 319 320 322 323 325 322 317 317 323 325 325 324 325 324 321 319
318 316 317 319 320 318 319 317 318 319 320 320 315 319 316 317 325 325 326 328 329 328 327 328 328 328 326 325 323 321 322 322 322 325 321 319 321 323 322 324 324 323 320 319
319 318 319 319 319 317 320 317 319 319 320 319 318 320 319 316 318 326 326 328 329 327 327 328 328 328 327 325 323 322 322 322 323 324 325 322 322 322 323 324 325 323 319 319
316 316 318 319 318 317 317 318 317 317 319 322 319 319 321 319 320 319 320 326 327 327 327 327 329 330 328 328 326 324 323 325 325 326 326 326 326 324 324 325 325 321 319 319
317 318 317 318 319 318 318 320 322 323 324 324 319 321 322 320 317 318 319 318 323 327 327 328 329 329 330 329 328 326 326 326 327 327 327 326 325 324 325 326 325 322 320 318
318 317 318 318 319 321 319 320 325 322 323 321 319 322 321 319 316 318 319 318 317 320 324 328 328 328 329 327 329 328 327 327 327 327 327 327 325 324 323 324 324 322 321 320
318 318 316 317 318 319 319 321 318 320 317 323 320 319 318 318 320 320 320 319 318 317 318 321 326 328 329 327 326 327 328 327 327 327 327 327 327 325 323 322 323 324 321 319
318 318 318 319 319 318 318 317 322 319 323 323 319 318 318 318 318 319 321 320 321 320 321 321 322 323 325 326 326 327 328 327 327 327 327 327 327 326 324 324 324 323 321 320
316 317 316 319 320 320 319 319 316 318 318 321 320 319 317 317 317 318 319 320 321 322 322 322 323 323 324 324 324 324 325 325 325 325 326 326 326 326 325 325 323 321 321 320
316 317 318 318 317 316 317 319 318 323 319 317 317 319 314 315 314 314 315 319 321 322 323 324 324 325 325 326 326 326 326 325 325 327 326 325 322 322 322 322 321 321 320 319
317 316 317 317 316 316 319 317 315 315 315 318 325 321 313 313 314 313 314 317 320 322 322 323 323 323 323 323 323 325 326 326 326 326 325 324 322 322 321 322 321 320 319 318
315 316 318 318 318 317 319 318 316 319 320 320 319 319 318 317 316 316 314 314 314 319 322 325 326 327 327 327 327 327 327 327 326 326 325 324 324 323 322 321 320 318 317 314
317 318 315 314 313 315 317 318 316 318 319 321 321 316 318 317 316 313 312 312 315 317 321 322 323 324 325 326 326 327 326 326 326 326 325 324 323 321 319 316 314 311 307 303
314 318 315 315 314 315 318 316 316 316 315 316 315 316 315 313 311 311 312 315 315 315 317 317 318 318 319 318 318 319 319 319 320 321 322 321 320 318 314 310 309 305 303 301
315 316 316 318 312 314 317 316 316 316 315 317 318 319 313 312 312 311 311 312 312 313 313 313 313 312 312 313 313 314 315 316 317 318 318 317 314 311 308 306 304 301 300 300
315 315 313 316 311 320 318 312 314 316 315 314 313 313 312 311 309 309 310 312 312 312 312 313 313 313 313 313 313 313 313 314 315 315 314 312 310 307 304 302 300 299 299 300
313 313 314 319 318 316 314 313 314 315 316 313 314 311 309 309 310 309 310 311 311 312 313 313 313 313 313 313 313 313 313 313 312 311 310 308 305 303 302 301 300 300 300 300
309 311 319 311 319 321 318 313 310 311 316 312 310 311 310 311 316 314 309 310 311 312 312 312 312 312 312 312 312 312 312 310 309 307 306 304 302 301 301 301 300 300 299 297
314 312 317 312 319 317 313 311 310 317 318 310 310 310 311 313 311 312 309 310 310 309 310 310 310 311 310 310 309 310 307 306 304 302 300 300 300 301 300 300 298 295 293 292
318 317 316 312 317 321 310 309 315 316 311 310 310 310 311 310 310 310 308 308 307 308 308 308 309 308 306 306 306 304 303 300 299 300 300 300 299 297 295 293 292 291 290 289
320 317 319 318 320 315 310 314 312 312 311 310 311 311 312 309 308 307 307 306 306 306 306 305 306 304 302 301 302 302 301 299 299 297 295 293 292 291 290 289 289 289 289 289
312 310 317 317 316 313 312 311 311 311 312 312 312 312 312 310 308 306 305 304 304 303 302 302 302 301 299 299 299 298 296 294 292 291 290 290 290 289 289 289 289 289 289 289
314 313 314 314 312 312 313 313 313 312 312 311 311 312 312 310 307 306 304 303 302 301 300 299 299 298 297 295 295 293 292 291 290 290 289 289 289 289 289 288 286 284 283 282
312 314 315 317 315 315 316 316 315 313 312 312 312 311 310 310 309 306 303 301 300 299 298 298 297 296 294 292 292 291 290 290 289 289 289 288 286 285 284 284 283 282 282 281

GFSCGP_850_thetae_048.txt.gz
Theta_e
320 322 322 320 320 319 321 321 320 322 322 325 325 323 324 330 331 328 327 328 329 329 327 326 324 324 324 324 325 324 325 325 326 325 321 318 320 323 325 324 321 323 323 322
322 323 321 321 321 320 322 321 321 322 320 321 322 322 322 328 330 328 327 327 327 328 329 327 327 326 324 324 325 324 325 326 326 327 323 320 319 322 324 324 323 324 323 321
322 321 320 321 322 322 323 322 321 322 322 320 321 321 322 324 327 329 328 327 327 327 329 328 328 327 327 325 326 325 325 326 328 327 325 322 321 323 324 324 324 324 323 322
321 321 320 322 322 322 322 322 321 322 322 321 321 322 320 323 325 328 328 329 328 328 328 329 329 329 328 327 325 326 326 327 328 327 327 324 321 323 324 325 325 324 324 323
321 322 322 322 321 321 321 321 322 322 322 322 322 321 321 321 322 325 327 327 328 328 327 328 329 330 330 329 328 326 325 326 327 327 327 326 323 322 325 326 324 324 324 324
321 320 321 321 321 321 321 322 322 323 323 324 321 322 321 321 321 322 323 326 327 329 329 328 328 331 331 331 330 329 327 327 327 327 325 327 327 325 325 324 322 323 324 324
320 320 320 320 322 322 322 322 324 325 325 325 323 323 322 322 322 323 323 322 323 327 329 330 329 330 332 332 332 328 326 327 326 325 324 323 324 326 326 324 323 323 324 324
320 320 320 320 320 322 322 322 324 325 325 324 322 323 322 322 321 321 323 323 322 322 326 329 330 330 332 333 333 331 328 326 326 324 325 326 326 326 326 325 324 324 324 324
319 319 319 321 321 321 323 323 322 324 324 325 322 322 321 321 322 322 324 323 323 321 323 326 327 329 331 333 334 332 332 331 329 326 325 326 327 326 326 325 325 325 325 323
319 319 321 321 321 321 322 322 323 324 325 324 322 321 320 320 319 320 321 323 325 324 323 323 324 327 330 332 332 332 332 331 330 328 327 327 327 327 327 326 326 324 323 323
319 320 322 322 323 323 323 323 322 323 323 323 322 321 320 320 320 322 322 322 322 325 326 325 325 326 327 329 330 330 329 330 330 329 327 326 326 326 326 326 325 324 323 323
319 320 320 321 321 321 321 321 323 323 321 322 323 322 320 321 321 320 320 321 323 323 326 327 328 328 328 328 328 328 328 329 329 329 328 326 325 326 325 325 324 323 323 322
319 319 320 320 319 320 320 321 321 322 321 322 327 322 320 320 320 319 319 321 323 323 325 327 329 329 329 329 329 328 328 328 328 328 326 325 326 325 324 323 322 322 322 321
318 319 319 320 319 319 320 320 320 321 323 322 323 321 321 321 321 321 320 318 318 319 325 327 328 329 329 329 329 329 327 327 327 327 327 327 326 325 323 322 321 321 320 318
319 319 319 318 318 318 318 318 320 320 321 322 322 321 321 321 322 321 319 316 318 319 323 325 327 329 329 329 329 328 327 327 327 326 326 324 322 322 320 319 319 318 317 315
319 319 320 320 319 318 318 318 318 319 319 321 321 321 320 321 320 318 317 318 319 320 321 322 322 323 323 324 324 323 322 321 321 321 321 321 319 319 316 315 312 310 307 305
320 320 320 319 319 319 320 320 319 320 321 321 321 321 321 320 320 319 318 318 318 318 317 317 316 316 316 316 315 315 316 316 316 317 317 317 316 314 311 308 306 305 303 303
321 321 321 321 318 327 319 319 320 320 321 321 320 320 320 319 318 316 317 317 315 313 313 313 312 313 313 313 313 313 313 314 314 314 314 313 311 309 307 305 303 302 301 300
320 322 322 327 322 320 318 317 319 320 321 320 320 319 318 315 314 313 314 314 313 312 311 311 311 312 312 312 312 312 312 312 311 311 309 308 306 305 303 302 301 301 301 301
318 319 325 319 323 330 320 319 318 318 322 319 318 318 318 315 319 318 311 309 309 309 310 310 311 311 312 311 311 310 310 309 308 306 304 302 301 301 300 301 301 301 300 297
318 319 324 324 326 323 320 317 315 321 323 318 317 317 316 317 318 315 310 308 308 308 309 309 308 309 310 309 309 309 307 305 304 302 301 301 301 301 300 300 298 295 294 293
320 322 324 323 327 326 316 314 320 321 319 318 317 317 316 315 313 310 308 306 306 306 308 306 306 306 304 305 306 304 304 302 301 302 302 301 300 298 296 293 292 291 291 290
321 322 324 322 323 322 315 319 317 319 319 316 317 316 315 312 310 308 307 305 305 304 304 303 303 303 302 302 302 301 300 301 301 300 298 295 292 291 290 290 290 292 292 291
318 316 321 320 320 320 318 317 316 315 316 315 315 315 314 311 309 307 305 304 304 303 303 302 301 300 300 299 299 300 300 298 295 293 291 290 290 290 289 289 288 287 286 285
319 316 319 321 321 317 317 317 317 315 313 313 313 314 312 310 308 306 305 303 303 302 301 300 299 298 297 298 298 296 294 292 291 290 290 289 289 288 286 285 284 284 283 282
317 319 322 322 320 320 321 320 318 316 313 312 313 312 311 309 307 305 304 303 301 300 299 298 297 297 297 296 294 292 291 290 289 289 288 287 285 285 284 283 283 283 282 281

GFSCGP_850_thetae_051.txt.gz
Theta_e
319 322 322 323 322 321 320 320 320 322 324 324 326 325 327 329 329 329 328 328 327 328 328 327 326 325 324 325 325 325 325 324 324 324 322 319 321 322 323 324 326 325 326 322
323 323 323 323 322 321 320 321 321 323 322 323 323 324 323 328 329 327 328 328 327 327 328 327 326 326 326 326 325 326 325 325 325 325 324 321 319 321 322 324 326 326 325 325
323 323 322 321 322 320 320 322 322 323 324 322 321 321 322 323 326 327 326 326 326 327 328 328 326 326 326 326 326 326 327 328 327 327 326 323 321 321 322 324 326 326 325 325
322 322 322 322 322 321 321 321 322 321 322 321 323 321 324 323 325 328 327 325 325 326 328 328 329 327 326 326 327 327 327 326 327 327 327 325 323 321 323 324 325 327 323 323
321 321 322 322 322 322 322 322 322 321 323 323 324 323 324 323 323 325 328 327 326 326 326 328 329 329 329 327 326 327 327 326 326 328 327 328 325 323 324 325 326 326 325 324
321 321 322 322 322 322 322 322 322 323 323 325 323 324 323 324 322 323 324 325 327 326 326 327 328 329 329 329 329 327 327 327 327 328 328 328 327 325 323 325 326 326 326 324
320 322 322 322 322 323 322 322 325 325 325 326 324 323 322 324 323 322 323 323 325 326 327 327 327 329 330 331 331 330 329 327 327 328 329 329 329 328 326 325 328 326 325 323
322 322 322 322 321 324 323 323 326 329 328 326 325 323 322 324 322 322 322 323 324 324 327 327 328 328 330 332 333 332 331 330 328 329 329 330 330 330 329 328 327 327 326 325
322 322 321 321 321 322 324 324 323 324 327 327 326 323 325 323 321 322 322 324 325 325 324 326 328 329 330 332 333 334 333 332 331 329 327 324 330 331 330 328 328 327 327 325
320 321 320 320 321 322 322 324 324 325 327 328 323 323 323 322 321 320 321 322 325 326 324 325 327 328 330 331 334 335 336 334 333 331 329 328 331 329 327 327 327 326 326 325
321 321 321 323 323 323 323 325 324 324 325 328 326 325 322 321 321 321 321 321 321 325 327 326 326 327 328 330 333 336 336 335 334 333 333 332 329 327 327 326 327 326 325 325
320 321 323 323 322 322 323 323 324 326 326 325 325 325 322 322 322 321 321 321 321 322 326 328 328 328 328 330 332 334 334 334 333 333 332 331 330 330 329 327 327 326 324 322
321 320 322 322 322 322 323 324 324 325 324 325 329 325 322 322 321 320 320 320 321 323 323 327 330 330 330 330 331 332 332 332 332 332 332 330 329 329 329 327 326 323 321 319
320 321 321 323 322 321 322 321 321 322 327 324 322 322 322 322 321 322 321 321 321 323 323 324 327 330 331 331 331 331 331 331 331 331 330 328 327 325 324 324 322 321 320 319
321 321 320 319 320 320 320 321 321 321 322 323 322 321 322 322 322 322 321 321 320 320 322 325 325 327 329 331 331 332 330 329 327 326 325 325 324 323 321 319 318 318 317 316
320 321 321 320 319 319 319 319 319 319 320 321 321 321 321 320 320 321 322 320 320 321 321 324 327 329 331 331 331 329 326 325 323 321 319 320 318 314 316 315 314 311 311 308
321 322 321 322 320 320 323 319 319 319 319 320 321 321 321 321 321 320 320 320 321 322 323 324 326 326 325 326 325 323 321 319 318 316 315 315 315 315 313 310 308 305 304 303
322 322 322 325 322 326 320 320 320 320 320 320 320 321 321 320 319 319 320 320 321 321 322 321 320 320 320 320 318 317 316 315 313 312 312 312 312 310 307 305 305 304 302 301
320 323 325 327 325 320 319 320 320 320 320 320 320 321 320 319 319 319 318 320 320 318 317 317 316 316 316 315 315 314 313 311 310 309 308 307 306 305 305 303 302 302 302 302
318 322 326 325 324 325 322 320 320 320 323 320 320 320 319 318 321 320 317 318 317 316 315 314 314 314 313 313 312 311 310 309 308 307 306 305 305 304 303 302 302 301 300 299
322 323 327 327 326 322 320 320 320 323 324 320 320 319 319 319 319 319 317 315 314 313 313 312 312 312 311 311 310 310 309 307 306 305 305 304 303 303 302 301 299 298 297 296
322 322 326 326 328 328 320 320 322 322 321 321 320 319 319 318 319 317 315 313 313 312 311 311 311 310 310 310 309 308 307 305 304 303 303 303 302 299 298 297 295 294 294 294
322 322 324 323 324 322 319 320 320 320 321 322 321 320 319 319 317 315 313 312 311 310 310 310 310 309 309 308 308 306 305 303 302 301 299 298 296 295 294 294 294 294 293 293
318 319 323 322 321 322 322 320 320 321 321 321 321 319 319 319 316 314 312 311 310 310 309 309 308 307 306 306 305 303 301 300 299 297 296 295 294 293 292 292 289 289 288 287
317 317 319 319 319 319 320 321 320 320 319 319 318 318 318 318 315 313 311 310 310 309 308 307 306 305 303 301 300 298 298 297 296 295 293 292 290 290 288 287 286 285 285 284
316 318 321 321 317 321 321 320 320 321 320 318 317 317 317 316 314 312 311 310 309 308 306 305 303 301 299 297 297 296 295 295 293 291 290 289 288 287 287 286 286 285 284 283

GFSCGP_850_thetae_054.txt.gz
Theta_e
318 319 319 321 322 323 322 321 320 323 324 324 326 326 327 325 328 327 328 327 328 328 327 325 323 321 320 319 319 317 316 315 318 317 314 318 321 320 317 319 320 324 322 321
320 321 321 322 323 323 321 321 321 322 324 322 321 323 328 328 329 328 327 327 327 328 328 327 324 322 322 323 321 320 318 316 318 319 319 317 321 321 318 320 325 323 323 322
321 322 323 322 323 321 320 320 320 323 323 323 321 321 321 327 327 327 327 328 327 328 329 327 326 324 323 325 325 323 322 322 321 321 323 322 320 319 321 322 324 323 326 324
322 322 323 323 322 321 321 320 321 323 323 322 323 322 321 323 325 327 326 327 327 328 329 328 327 327 325 326 325 326 325 325 325 322 325 325 322 320 321 321 323 324 325 324
322 322 322 322 322 322 322 323 323 321 321 322 323 324 323 323 323 326 327 326 326 327 329 329 327 327 327 327 326 326 326 326 325 326 324 326 324 322 321 322 323 325 326 324
321 321 322 322 322 322 322 322 323 322 322 325 322 323 325 324 324 324 326 326 325 326 328 329 329 326 327 326 327 326 327 327 326 328 326 327 327 325 323 322 324 325 325 326
321 320 321 322 322 323 322 322 325 326 326 328 324 324 325 324 324 323 324 325 326 326 326 328 329 329 328 327 326 327 327 327 327 327 327 328 327 328 326 324 324 325 325 325
322 322 320 322 322 323 323 323 327 328 331 328 326 326 324 323 323 323 322 322 324 326 326 327 328 330 330 330 329 328 327 328 328 327 327 328 326 327 327 326 324 327 327 327
321 321 320 322 322 322 324 323 323 326 327 331 329 324 324 324 323 321 322 322 323 324 327 327 327 328 330 330 330 330 330 329 328 328 327 324 323 325 326 326 327 325 326 327
321 324 322 322 322 322 321 324 325 325 329 330 326 325 325 324 322 321 321 322 324 326 325 325 327 328 329 330 331 331 331 331 331 328 327 327 323 325 323 324 328 329 327 326
321 322 323 322 321 321 321 323 326 326 325 329 329 327 324 324 323 321 322 321 321 324 326 325 325 327 329 330 333 333 333 333 333 332 329 329 327 325 324 329 330 328 327 327
321 322 323 322 321 321 321 323 324 328 326 328 330 327 323 324 323 322 322 321 321 322 326 327 326 327 328 330 332 333 334 335 334 332 331 331 330 329 330 328 329 327 326 324
320 321 323 321 322 323 322 323 323 325 326 328 331 327 323 322 322 322 321 321 321 322 325 328 328 328 328 328 331 336 336 336 334 332 330 330 330 329 328 327 326 324 324 323
320 322 322 324 324 323 323 322 324 325 328 327 328 326 325 322 322 321 321 321 320 321 322 326 329 330 330 330 331 333 334 334 333 332 330 331 330 328 326 325 324 324 322 321
322 322 323 321 321 322 323 322 322 323 323 328 327 324 322 323 323 323 321 322 321 320 322 323 327 330 331 331 332 333 332 332 332 331 330 330 329 325 323 322 321 320 319 318
321 323 322 323 320 320 321 321 321 321 321 321 322 323 322 322 321 322 321 322 321 320 320 321 324 328 330 331 331 332 332 331 330 329 327 325 323 321 319 317 316 315 314 313
322 323 323 323 321 320 320 321 321 320 321 320 321 322 322 321 321 321 320 320 321 320 320 321 324 328 330 332 332 330 328 327 325 324 322 318 316 315 315 312 311 309 308 307
321 322 322 324 322 323 320 321 320 320 320 320 319 320 320 321 320 320 320 320 320 321 323 324 327 330 330 330 327 324 323 321 319 316 314 314 313 312 309 307 307 306 304 302
319 321 325 325 324 321 320 320 320 321 320 320 320 320 320 320 320 320 320 320 321 322 323 324 324 324 325 323 321 319 317 315 313 312 311 310 309 307 307 305 304 303 304 302
318 318 322 327 324 324 322 321 320 321 321 321 320 322 321 320 322 321 319 319 321 321 321 320 320 320 319 318 316 315 313 311 310 309 308 307 307 306 304 303 303 302 301 300
318 317 322 325 326 324 320 320 319 322 322 322 321 321 321 321 320 319 319 320 320 319 318 317 317 316 315 315 313 312 311 309 308 307 307 306 306 305 304 302 301 300 298 297
318 319 322 324 326 326 321 320 321 321 320 321 321 321 319 319 319 319 319 319 318 316 315 315 314 314 313 312 311 310 309 308 307 307 306 305 304 303 301 299 298 296 295 295
319 317 321 322 323 323 321 320 320 320 321 322 322 321 321 320 320 319 318 317 316 315 314 313 313 312 312 311 310 309 307 306 305 304 303 302 299 298 297 296 295 295 295 294
318 317 320 321 319 317 321 321 320 320 320 321 322 322 321 320 319 318 316 315 314 313 312 312 312 311 310 310 309 307 306 304 302 301 299 297 296 295 294 294 292 293 292 290
316 317 320 320 319 318 316 318 319 321 320 320 320 320 319 320 319 317 315 314 313 312 312 311 310 310 309 308 306 304 303 301 299 297 296 295 294 292 291 290 289 289 287 285
315 315 317 321 319 319 320 320 318 316 317 321 320 319 318 319 319 316 315 313 312 311 311 310 309 307 306 304 302 300 299 298 297 295 293 292 290 289 288 288 287 286 286 285

GFSCGP_850_thetae_057.txt.gz
Theta_e
317 315 315 314 315 317 318 320 318 318 323 322 325 325 322 322 326 327 327 328 327 327 326 323 320 320 319 318 317 318 319 319 318 318 317 314 314 313 314 315 313 312 313 314
316 317 317 317 317 319 322 320 318 318 322 321 320 326 323 323 325 326 326 327 327 326 325 324 321 319 318 316 315 316 316 316 317 316 314 314 314 314 315 314 311 317 319 321
317 318 318 318 319 321 321 319 318 319 322 321 320 319 327 325 324 325 326 327 327 327 325 324 323 319 318 318 316 315 315 315 315 313 313 314 316 314 316 313 316 321 320 322
318 319 319 320 321 321 320 320 319 319 321 321 318 319 320 327 324 327 327 326 327 327 327 325 323 321 321 321 319 316 316 316 316 315 314 314 314 319 320 318 316 319 323 322
319 319 319 320 322 321 320 322 322 322 320 318 319 319 319 325 326 327 326 326 327 327 327 327 325 322 322 323 324 322 319 317 318 319 320 320 321 321 319 319 320 320 322 324
318 319 319 320 321 321 321 321 322 321 319 320 320 319 319 320 321 325 324 325 326 328 328 328 328 325 323 323 324 325 324 322 322 322 321 324 326 324 322 320 321 321 321 324
319 319 319 320 320 320 320 320 321 322 322 320 323 324 321 320 322 322 324 324 326 327 328 328 327 326 325 324 326 326 325 325 325 324 324 323 323 326 325 322 321 321 322 323
319 321 320 319 320 321 320 320 322 324 326 323 326 325 323 321 322 322 322 324 325 326 328 328 328 328 327 325 325 327 326 325 326 326 325 327 324 325 326 326 324 322 323 323
319 320 319 319 320 320 323 321 320 322 327 325 326 326 322 321 320 320 320 322 322 325 327 328 328 328 328 327 326 325 326 326 326 327 326 327 327 326 326 326 326 324 324 325
318 320 319 320 319 319 320 321 323 321 326 327 325 324 322 322 322 318 319 320 321 325 326 327 329 329 329 328 328 328 327 326 326 326 326 326 327 327 327 327 327 325 322 324
317 317 320 321 320 320 320 320 321 323 323 325 324 322 322 321 321 319 318 320 324 325 325 325 326 328 329 329 329 329 328 327 327 327 326 327 327 327 327 326 326 325 325 327
317 318 318 319 320 320 320 319 320 324 326 323 322 323 321 320 319 320 319 320 321 322 325 323 324 326 327 329 329 329 329 329 329 329 328 328 328 327 327 324 325 325 326 328
317 318 320 321 319 320 320 319 320 321 324 324 324 324 320 321 321 321 320 320 321 324 326 325 323 327 327 330 330 330 330 331 330 330 330 329 328 322 324 325 326 326 327 325
318 317 318 320 320 320 321 320 320 321 320 322 323 324 324 322 321 319 319 320 320 322 325 324 324 323 326 328 332 334 333 333 330 329 331 330 330 328 328 328 326 326 324 323
319 318 318 319 320 321 322 322 320 321 322 324 323 323 322 320 318 319 321 321 321 321 326 326 326 325 326 329 331 334 332 331 330 331 330 330 330 329 328 327 325 323 322 322
319 319 317 318 319 320 322 322 321 320 323 323 323 323 322 321 321 320 322 321 321 321 322 326 327 329 328 330 330 331 332 332 331 330 330 329 329 329 328 325 322 320 319 318
319 319 320 319 319 319 319 319 320 320 319 320 319 317 317 320 318 319 320 320 321 321 320 320 327 330 331 330 328 331 332 331 330 330 329 327 327 326 322 321 319 316 315 314
317 320 318 316 317 322 319 317 318 318 319 318 317 317 316 317 319 319 320 320 320 321 320 320 323 329 331 331 331 331 331 331 328 327 326 323 322 321 318 315 313 311 309 308
316 319 318 320 321 319 320 318 318 318 318 317 317 316 316 318 319 319 320 320 320 320 321 322 326 328 330 331 331 331 329 327 325 322 320 318 316 314 312 310 308 307 305 303
311 317 317 316 321 321 319 318 319 319 318 319 319 317 318 317 316 314 319 319 320 321 322 323 325 329 329 328 328 327 325 323 321 318 315 313 312 310 309 307 305 303 302 301
312 312 316 317 320 318 319 318 319 319 317 319 319 320 320 316 317 319 319 319 319 320 322 324 324 324 324 324 324 323 321 318 315 312 311 310 309 308 307 305 303 302 300 300
315 315 315 317 319 320 319 320 318 316 318 318 319 320 319 319 318 319 319 319 320 320 321 321 320 320 319 318 318 316 314 311 310 309 308 307 307 306 304 303 300 300 299 298
317 315 317 317 316 318 316 319 319 319 317 321 321 322 320 320 319 319 319 319 319 319 318 318 318 317 316 315 315 312 310 309 308 308 307 306 305 303 302 300 298 298 297 296
315 315 315 317 316 314 315 316 315 317 317 319 319 321 320 320 320 319 319 319 318 317 316 315 315 314 313 312 311 311 309 308 307 307 306 303 301 300 298 296 295 295 295 294
313 314 315 316 316 315 317 316 315 315 319 317 320 318 319 320 320 319 318 317 317 315 314 314 313 313 312 311 310 309 308 307 306 304 301 299 297 297 296 295 294 294 294 292
312 311 313 315 315 315 318 318 318 316 315 316 316 318 319 319 320 319 317 316 315 314 313 313 312 311 310 309 308 306 306 305 302 300 297 295 295 294 294 293 291 289 287 286

GFSCGP_850_thetae_060.txt.gz
Theta_e
315 313 314 313 313 315 316 316 316 316 319 323 323 324 320 323 323 327 326 326 326 326 325 321 320 321 319 319 320 320 318 317 315 315 315 315 315 314 315 316 315 318 320 319
314 315 315 314 315 315 316 316 317 316 320 320 323 324 321 320 324 326 326 327 326 326 325 321 320 320 319 318 319 318 316 315 314 315 315 315 316 316 316 316 316 317 315 314
315 316 316 316 316 317 316 317 318 317 317 319 320 320 324 323 323 325 326 327 327 326 326 323 320 319 319 318 318 318 317 317 316 317 317 316 316 316 316 317 316 315 315 312
315 316 316 317 317 317 317 318 319 319 318 319 317 318 321 324 324 323 325 326 325 326 326 325 319 319 318 317 316 318 319 319 319 317 317 315 315 315 314 314 314 315 312 315
319 318 317 318 318 318 319 320 320 321 318 317 317 317 316 324 325 324 323 325 326 326 326 325 322 318 317 317 315 317 318 318 317 318 316 315 315 314 314 314 315 312 311 316
317 318 317 318 318 318 320 320 320 318 317 320 318 317 317 325 326 324 324 324 325 326 326 326 326 320 318 318 316 315 315 314 314 313 313 313 313 314 314 314 314 313 312 315
317 318 317 317 317 318 319 317 319 320 320 321 321 321 319 318 318 324 325 324 325 326 326 325 325 323 320 319 319 317 316 316 315 314 314 314 314 314 315 318 318 318 319 319
316 318 317 318 318 319 318 318 319 323 322 321 322 324 322 319 318 321 325 325 325 325 326 326 326 326 324 320 321 322 321 318 317 317 317 318 319 320 322 323 323 322 319 320
318 318 318 318 318 318 320 319 318 320 323 323 323 323 321 320 319 318 320 324 324 325 326 326 326 327 327 324 321 321 322 323 322 320 320 319 319 320 321 323 325 325 322 321
316 318 317 318 318 317 319 320 321 320 322 324 322 322 321 321 321 319 318 318 322 324 325 327 326 327 327 327 326 322 321 322 322 323 322 322 322 324 324 323 324 326 325 324
314 316 317 318 318 318 319 319 321 320 320 322 322 320 317 319 319 318 317 319 319 321 324 326 327 327 327 327 327 326 324 323 323 324 325 324 325 325 325 326 325 326 326 325
316 315 317 316 317 318 318 319 319 321 323 321 319 321 319 317 318 319 318 321 324 324 324 324 326 327 327 327 327 327 326 325 325 325 325 326 325 326 326 325 325 322 324 325
318 316 318 318 317 317 317 318 319 320 320 321 323 324 319 317 318 320 319 319 320 322 324 324 325 325 326 327 327 327 327 327 326 326 326 326 325 325 326 322 324 323 320 321
318 321 319 318 318 317 319 319 319 319 319 320 322 323 321 320 320 319 321 321 319 321 322 323 324 326 327 327 328 328 328 326 326 326 327 327 327 327 325 326 324 323 322 322
319 321 318 318 317 318 319 320 319 319 319 320 319 322 321 320 320 320 322 319 319 322 324 324 323 323 322 320 326 330 328 329 329 328 327 328 327 323 324 327 326 323 325 326
316 319 319 319 318 317 318 319 320 320 318 319 320 321 320 320 321 320 319 320 320 320 322 325 324 323 323 322 320 328 330 331 331 330 329 328 328 328 326 326 325 325 324 324
314 317 317 319 316 318 318 318 319 319 319 319 320 319 320 320 319 319 319 319 321 320 320 323 325 324 324 323 322 321 331 332 331 331 329 329 327 327 326 326 324 323 322 321
313 313 316 317 314 321 318 317 317 318 318 318 317 316 318 318 320 320 320 321 321 320 320 320 324 324 325 325 325 325 327 330 330 330 329 328 328 326 326 325 321 320 319 316
316 315 314 318 319 318 319 318 317 318 318 317 317 315 314 316 316 318 319 320 320 320 320 320 321 324 327 329 329 329 329 330 329 328 328 326 326 324 322 319 319 317 314 312
312 312 314 314 317 320 317 317 317 317 317 316 316 316 316 316 313 313 320 320 320 320 320 319 320 323 328 330 330 330 330 329 328 327 326 325 323 321 320 318 314 311 309 306
310 308 313 315 317 316 316 318 318 320 318 317 318 318 318 316 316 319 319 320 319 319 319 320 321 324 330 331 330 329 328 326 324 323 321 320 318 316 313 310 309 307 305 303
311 311 312 314 318 317 317 319 319 316 318 319 319 319 319 319 318 318 319 318 319 319 320 321 322 327 328 330 329 327 326 324 322 319 317 314 312 310 308 307 305 303 302 301
313 313 313 314 314 314 317 317 317 317 316 317 317 318 320 318 317 318 319 319 319 318 318 320 322 324 325 325 325 325 323 321 318 315 311 309 308 307 306 304 302 301 300 300
310 313 315 315 315 316 315 315 316 316 316 316 319 317 316 318 319 318 319 319 320 319 320 320 321 320 320 319 319 318 318 315 313 310 308 307 306 304 303 301 300 300 299 297
309 313 314 314 314 315 315 316 318 317 315 317 316 319 318 317 318 319 319 319 319 319 318 318 318 317 316 315 315 314 313 312 310 308 307 305 305 303 300 298 298 296 296 296
309 311 313 314 314 313 314 312 314 317 315 315 315 317 317 317 318 319 319 318 317 317 316 316 315 315 313 312 311 310 309 309 308 307 305 303 301 299 297 296 294 293 293 292

GFSCGP_850_thetae_063.txt.gz
Theta_e
314 313 313 313 313 313 314 315 314 313 314 321 320 319 319 320 324 324 327 328 328 328 325 323 321 320 320 319 319 320 322 322 320 317 316 319 320 320 320 318 315 315 316 319
314 315 314 313 313 314 314 314 314 314 315 319 318 320 320 320 322 322 325 328 328 327 325 323 320 320 319 318 318 318 319 320 319 317 315 315 320 318 319 316 316 314 316 318
315 315 314 314 314 315 314 314 314 315 315 316 319 319 321 320 321 323 325 327 328 327 326 324 319 319 320 318 318 319 320 319 317 317 318 320 319 317 316 316 315 315 315 320
314 315 315 314 315 314 315 315 316 316 316 317 317 318 315 320 322 322 324 325 326 327 327 325 322 318 318 317 318 319 319 317 316 316 316 318 319 316 315 315 315 315 317 316
317 316 315 315 316 315 316 316 317 317 316 316 316 315 314 321 324 323 321 324 326 326 327 327 325 318 317 317 316 318 318 317 316 315 316 316 316 315 315 314 316 315 315 316
315 317 315 316 317 316 317 318 318 317 316 319 317 315 315 321 322 322 322 323 325 325 327 327 326 323 318 317 316 317 318 318 318 317 317 317 317 316 315 316 316 315 315 315
315 317 316 316 316 316 316 317 318 319 319 320 317 317 318 315 318 320 321 322 324 326 326 327 326 325 320 317 317 315 318 318 318 318 318 317 317 316 316 316 316 315 314 314
314 315 315 316 317 318 316 316 318 322 320 319 319 322 320 317 317 318 320 322 323 324 325 326 327 326 325 320 317 316 316 316 316 316 316 316 316 316 315 314 314 314 314 314
315 314 316 315 316 317 317 317 317 318 319 321 321 321 318 318 318 317 318 321 323 324 325 326 326 326 326 325 319 318 316 315 315 314 313 312 312 314 314 314 314 314 314 314
315 317 317 317 316 315 317 317 319 318 321 323 320 321 319 318 318 318 316 319 323 324 324 325 325 325 326 326 326 319 318 317 316 315 314 314 313 312 313 313 313 314 316 320
314 315 316 316 316 316 317 317 319 319 318 321 321 319 315 317 318 317 316 318 322 324 324 324 325 325 326 325 325 325 320 319 319 317 316 315 314 314 314 315 317 319 320 322
316 315 316 316 315 316 316 318 319 321 322 319 318 321 316 316 316 315 315 318 319 320 324 325 325 325 325 326 325 325 325 321 320 321 320 318 317 317 318 320 321 322 323 324
319 319 317 317 316 314 315 315 316 318 318 321 322 321 319 316 315 317 317 318 321 321 318 321 323 325 325 326 326 325 325 325 323 321 321 322 322 323 319 321 322 319 323 324
318 319 320 320 317 315 317 316 316 318 319 318 320 319 320 320 317 316 319 320 320 321 320 322 321 323 324 325 325 326 326 326 325 324 323 323 323 325 322 321 322 323 323 324
317 319 318 317 318 318 318 318 317 317 317 318 318 319 318 318 318 317 320 321 321 322 319 321 324 324 323 324 325 326 326 326 326 325 325 325 326 325 325 324 324 325 325 325
316 316 316 315 317 316 319 316 316 316 317 316 318 317 316 318 320 318 319 320 320 321 321 320 322 324 324 323 322 321 323 326 327 326 326 326 326 326 326 326 326 326 326 326
315 315 315 316 315 315 317 317 317 316 318 317 318 317 317 318 317 318 320 321 321 322 320 320 321 323 324 323 321 321 320 322 326 328 327 326 326 326 326 327 327 326 324 325
313 313 312 313 314 317 317 313 315 316 317 317 316 317 317 317 319 320 322 321 320 320 321 320 321 320 323 324 323 322 322 323 327 328 329 328 328 327 327 326 325 324 323 323
312 312 314 313 314 314 312 315 316 317 317 316 316 316 315 316 315 314 318 319 318 319 319 321 320 320 320 324 325 325 325 326 329 330 330 329 327 327 325 325 325 323 324 322
315 313 312 314 315 314 311 313 312 316 317 314 315 317 317 316 312 312 318 318 319 319 320 320 319 319 320 323 325 327 327 328 330 329 328 327 325 325 325 325 324 322 320 318
311 311 315 314 313 313 313 314 317 321 318 318 318 317 315 314 316 319 319 319 319 319 319 319 318 319 320 322 326 328 329 329 328 328 326 324 323 324 323 323 320 318 315 312
310 310 308 310 313 314 314 313 315 314 316 317 317 316 317 318 319 317 318 318 319 319 319 320 320 320 321 323 326 328 329 329 328 326 325 324 323 321 319 317 315 311 309 306
310 309 309 310 312 312 312 312 312 313 315 315 316 317 317 316 317 318 317 318 319 319 318 318 318 318 320 324 328 329 328 326 325 324 322 320 318 315 313 311 308 305 303 303
306 309 310 311 311 311 311 312 314 316 317 315 316 316 318 318 317 317 317 318 319 321 321 320 323 324 326 328 328 327 327 325 322 319 316 314 312 308 306 305 304 302 301 300
305 307 308 309 311 312 314 314 313 315 316 316 316 316 316 316 318 317 317 318 318 319 320 321 322 323 323 324 323 322 322 320 317 314 311 308 307 306 304 302 302 301 300 300
307 309 309 308 310 309 312 313 313 313 315 315 315 315 315 315 315 317 316 316 317 317 318 319 320 320 319 319 318 317 316 314 313 310 307 306 305 304 303 301 300 297 297 296

GFSCGP_850_thetae_069.txt.gz
Theta_e
315 315 317 315 315 313 314 314 315 314 314 314 316 317 319 317 321 323 323 325 327 325 326 327 325 320 320 320 321 323 324 324 324 325 325 325 323 319 320 319 319 318 315 315
314 316 316 314 313 314 314 315 315 315 314 315 316 317 318 318 321 322 323 324 326 326 326 327 326 321 319 319 320 321 322 323 324 324 322 321 320 316 318 317 322 321 316 315
312 314 315 315 314 315 315 316 316 315 314 315 316 318 319 319 319 320 322 323 325 326 326 327 326 324 317 318 319 320 321 321 322 323 323 320 319 318 321 319 321 321 317 316
313 312 314 315 315 315 316 314 315 315 315 314 317 321 318 320 318 319 321 322 324 325 326 327 326 325 320 317 317 319 320 321 322 321 321 321 321 320 319 318 321 321 318 316
315 314 315 314 315 314 315 315 315 315 315 315 316 319 319 317 320 320 320 320 321 322 323 324 327 326 325 318 317 317 318 319 320 321 321 321 320 319 320 321 320 318 316 316
314 313 314 314 314 314 315 315 316 316 317 319 318 319 320 319 321 321 320 319 319 321 322 322 326 326 326 322 317 317 318 319 320 320 320 319 321 320 320 319 316 316 316 316
314 315 314 314 315 314 315 317 318 321 321 321 318 319 321 319 318 319 320 319 318 319 321 322 324 325 326 325 320 316 316 318 318 319 319 318 318 318 318 320 317 316 317 316
314 314 316 315 317 317 316 317 320 319 323 322 316 320 320 318 318 316 316 317 319 318 320 321 323 324 325 326 325 319 316 316 318 318 317 317 318 318 319 319 319 318 318 316
314 312 313 315 317 318 317 317 318 318 318 321 320 320 320 319 320 318 319 317 319 319 319 320 322 323 325 325 326 325 319 316 317 318 317 317 317 317 317 317 318 319 317 315
315 316 315 315 315 316 318 317 319 318 320 321 320 321 321 319 320 320 319 318 319 319 319 320 321 322 324 324 325 326 325 319 316 316 317 317 316 316 317 318 319 319 318 317
313 315 315 315 315 316 317 318 318 318 319 320 321 321 319 321 321 320 320 318 319 318 320 321 321 322 323 324 325 326 326 325 321 317 316 316 316 316 316 316 317 317 318 318
317 315 315 314 314 314 316 317 318 321 320 320 320 321 318 319 318 318 319 319 319 319 318 319 322 322 323 323 324 324 325 325 325 323 318 316 316 315 315 315 314 313 313 314
317 318 320 318 316 317 318 316 317 317 318 319 322 320 318 317 317 318 318 319 320 319 319 319 321 322 322 323 323 324 324 325 325 324 323 320 318 316 316 315 315 315 315 314
317 318 319 321 320 318 319 317 316 317 319 318 318 317 318 318 318 318 319 319 320 319 319 320 320 320 320 321 322 323 323 323 323 324 324 324 322 321 321 317 315 315 314 314
316 316 317 316 316 318 317 317 315 314 317 320 319 317 316 317 318 318 318 318 318 319 319 320 320 321 321 321 321 322 322 323 323 323 323 323 324 324 321 320 319 317 315 315
309 315 317 316 316 316 316 315 315 314 316 316 315 317 316 316 316 315 316 317 317 318 319 320 320 320 321 320 320 321 321 321 322 321 320 322 322 323 323 323 321 319 319 318
308 314 315 315 314 315 313 314 314 316 314 315 316 315 312 313 315 316 317 318 318 319 319 320 320 320 321 321 320 321 321 321 321 321 321 322 322 322 323 323 323 323 322 321
307 310 312 314 312 314 310 310 313 314 314 315 313 313 317 316 316 315 315 316 318 318 319 319 319 319 321 322 321 320 321 322 321 321 321 322 323 323 324 324 324 324 323 323
306 309 312 315 314 312 310 310 311 313 313 315 317 317 316 315 315 315 315 315 314 315 317 318 318 317 319 320 320 320 319 321 322 322 322 323 323 324 324 325 325 324 324 323
308 309 312 313 313 313 310 311 315 314 314 315 314 315 316 315 318 317 316 316 317 316 316 316 317 318 318 318 317 318 319 320 322 322 323 323 324 324 324 325 324 325 324 324
310 310 310 313 313 313 311 311 316 315 315 314 313 313 314 315 315 314 315 315 316 316 316 317 317 319 318 317 316 317 318 320 323 324 325 324 324 324 324 324 323 323 322 321
310 311 312 311 313 312 310 313 314 311 311 311 311 312 314 313 313 314 313 315 315 316 318 319 318 318 318 317 317 318 320 322 325 325 325 324 323 323 323 322 321 321 320 319
309 310 312 312 313 310 311 312 310 310 311 311 311 312 313 314 314 313 314 315 315 316 318 321 321 320 319 321 320 322 323 324 324 323 323 323 323 322 322 321 320 319 318 317
307 306 309 309 308 309 308 308 310 310 310 311 312 312 312 314 312 313 314 314 314 315 316 320 319 320 322 323 323 324 324 321 322 323 323 322 321 321 320 318 315 314 313 308
306 306 308 308 308 308 308 308 307 309 310 311 311 311 313 313 312 312 313 312 312 312 315 317 320 316 316 319 320 322 322 322 321 321 320 320 319 318 316 312 310 308 306 306
306 307 309 309 306 306 306 307 306 305 305 305 306 309 308 309 309 310 313 313 308 308 310 314 316 318 313 312 315 315 317 319 319 318 316 314 313 312 310 307 304 302 303 302

GFSCGP_850_thetae_072.txt.gz
Theta_e
316 319 319 320 319 319 319 318 318 318 317 318 319 319 320 322 323 324 326 327 328 329 328 328 326 323 320 320 323 324 323 324 324 325 324 323 322 320 318 317 317 311 313 314
318 319 318 319 319 318 318 317 318 318 318 317 317 318 318 322 322 323 323 326 326 329 329 328 326 325 322 319 321 322 323 324 325 325 325 324 323 323 322 318 316 313 314 313
315 317 316 318 318 318 318 318 318 318 317 317 318 317 318 321 322 322 323 324 325 328 329 328 327 325 323 318 319 321 323 323 325 324 324 323 323 323 322 323 317 315 318 314
315 314 315 317 318 318 319 318 317 318 318 318 318 318 320 322 322 322 321 324 325 326 329 328 327 326 324 321 318 319 322 322 323 323 324 323 324 323 321 321 321 320 320 319
316 315 313 313 316 316 317 317 317 318 319 319 318 317 319 320 322 322 322 321 324 326 328 329 328 327 325 322 317 318 320 321 321 323 323 323 321 321 319 317 318 319 320 319
314 315 316 313 316 317 317 317 317 318 319 320 318 318 320 322 323 322 322 321 321 325 327 328 328 327 325 323 320 317 319 320 322 321 322 323 323 321 319 318 318 319 318 317
312 312 315 316 315 315 317 318 321 323 323 322 319 319 320 322 322 322 322 322 322 324 325 327 328 327 326 324 321 320 322 321 320 320 320 321 321 321 321 321 320 319 321 318
312 314 313 316 317 317 317 319 322 323 325 324 320 321 322 322 322 323 322 322 322 322 325 326 327 327 327 325 323 318 321 321 321 321 321 320 321 321 321 320 319 318 321 320
312 313 314 314 316 317 318 320 319 320 321 324 323 322 322 322 322 323 322 323 322 322 324 326 327 327 327 326 324 323 321 321 321 321 321 321 320 321 322 321 320 320 318 318
314 313 313 315 315 317 319 319 320 321 323 324 322 322 323 322 321 322 322 322 322 323 322 325 327 327 327 326 325 324 322 320 320 320 319 320 319 319 320 321 321 320 319 319
314 316 317 316 316 318 318 320 320 321 321 323 324 323 322 321 321 322 323 322 323 323 322 324 325 326 326 326 325 324 324 322 319 316 319 318 318 318 318 319 320 320 320 320
317 317 317 317 316 316 318 318 319 321 322 321 323 323 321 322 322 321 322 322 323 322 321 322 325 327 326 326 326 325 324 323 323 319 316 316 317 317 317 317 318 318 319 320
315 318 315 314 315 317 317 318 318 319 320 322 326 323 321 320 320 320 321 322 322 321 321 321 324 326 327 326 326 325 325 324 323 322 320 317 316 316 316 315 316 318 319 320
313 316 320 319 318 319 320 319 319 320 321 320 320 320 320 319 319 319 318 319 320 320 321 321 321 324 326 327 326 326 325 324 324 324 323 322 320 318 317 316 316 316 316 317
317 315 315 315 314 314 315 316 316 317 317 319 320 320 320 320 319 319 319 318 319 319 320 321 321 321 324 326 326 326 326 324 324 324 324 324 324 322 319 318 317 317 317 317
311 313 316 314 313 314 315 314 315 315 315 318 320 318 319 319 317 317 317 318 318 319 319 320 321 320 320 322 325 326 326 325 323 323 322 323 323 323 323 321 319 319 319 319
309 313 314 314 314 314 315 315 314 315 315 318 318 316 317 317 317 318 319 318 318 318 318 319 320 320 320 320 320 321 322 326 323 322 322 321 322 322 322 322 321 321 320 320
309 313 313 314 315 314 312 312 313 314 314 315 314 316 317 318 318 318 318 317 318 318 318 317 318 318 319 320 319 319 323 324 322 322 322 322 321 321 322 322 321 321 321 320
309 310 312 313 312 311 311 311 311 311 312 315 315 316 317 317 317 318 319 317 317 317 317 317 317 316 316 317 317 318 319 320 323 321 321 322 322 321 322 322 323 322 321 321
309 309 311 313 312 313 312 314 314 315 313 314 314 314 314 315 319 319 317 316 316 317 317 319 319 317 317 317 318 317 318 320 322 321 322 324 323 323 323 323 323 323 323 322
309 310 312 312 314 313 312 312 315 315 316 312 312 312 312 315 316 316 315 315 316 317 317 319 320 321 320 318 318 317 319 319 321 324 324 325 324 324 325 324 323 323 323 323
311 310 311 312 311 313 312 314 315 314 312 311 312 312 313 313 314 316 315 315 316 316 317 318 319 321 319 319 321 322 323 322 321 321 322 322 323 324 324 323 323 323 324 324
312 312 313 312 312 313 313 313 311 312 312 312 313 313 313 315 315 315 315 315 315 314 314 316 315 318 319 319 320 320 320 320 322 323 324 324 323 322 322 323 323 323 321 320
308 308 311 310 310 311 309 310 311 310 311 310 310 310 310 311 315 314 314 312 312 313 312 309 310 315 318 317 317 317 319 321 321 322 322 322 322 323 322 320 321 320 320 318
308 308 309 309 309 309 308 310 310 309 309 308 306 305 305 304 307 307 309 305 304 312 312 311 309 309 313 315 315 314 316 318 320 321 321 320 319 319 319 316 314 313 313 310
307 307 309 309 310 309 308 308 308 307 307 305 303 303 301 300 301 301 301 302 300 308 308 307 307 311 306 311 313 313 312 312 314 318 318 317 316 314 312 310 305 301 305 304

GFSCGP_850_thetae_075.txt.gz
Theta_e
310 314 316 317 318 320 322 323 323 323 322 320 321 321 322 322 322 324 324 326 328 330 330 330 330 327 326 326 325 324 326 324 325 325 326 324 323 323 321 316 316 317 318 316
311 316 317 319 320 321 322 322 323 322 321 320 320 320 321 321 321 322 323 325 326 328 330 330 330 329 326 326 324 324 325 324 325 326 324 325 324 323 322 318 318 315 312 313
315 314 318 319 320 321 322 323 323 322 322 320 320 321 321 321 321 321 322 323 324 326 329 330 330 330 328 326 325 325 324 324 325 325 325 324 324 322 321 319 319 312 312 313
315 317 316 319 320 321 322 321 321 321 321 322 322 322 322 322 322 323 323 323 323 325 327 330 331 330 329 326 325 323 323 324 325 325 325 324 323 322 321 318 318 315 310 313
315 316 318 317 318 319 320 320 321 321 321 322 322 321 322 322 322 322 324 322 323 324 327 330 331 330 329 327 325 325 324 323 325 325 325 325 324 324 323 322 316 318 311 313
315 315 317 317 316 316 318 319 319 320 321 324 323 323 323 323 324 324 323 322 322 323 326 329 330 330 330 328 325 325 322 322 324 325 323 324 324 323 323 323 323 318 313 315
311 314 315 316 316 315 318 320 322 323 324 324 323 323 323 323 324 324 323 323 322 323 326 328 330 330 330 329 326 324 324 325 324 323 323 323 324 324 322 323 321 322 318 315
311 312 313 315 316 316 318 320 323 326 328 326 324 323 323 323 322 323 322 322 323 324 325 326 329 330 330 329 328 324 324 325 325 323 322 323 324 324 323 322 321 320 320 320
313 314 315 315 316 316 318 319 319 321 324 326 326 324 324 323 323 323 323 324 323 323 324 326 328 329 330 330 329 326 324 325 325 325 324 322 323 324 322 322 322 321 319 318
314 314 314 315 315 316 316 319 320 321 324 326 324 324 326 324 323 323 323 324 323 323 324 325 327 328 330 330 329 328 325 325 325 325 325 324 324 324 323 323 322 322 322 320
312 316 316 315 316 317 317 317 319 321 322 325 327 326 324 324 323 322 324 323 323 324 324 325 327 328 329 330 330 329 327 325 324 324 325 325 324 324 324 323 323 322 322 321
314 319 318 316 315 316 317 317 320 323 324 324 324 325 322 323 323 322 322 322 322 323 323 323 325 327 329 329 330 329 328 327 325 324 324 324 324 324 323 324 324 323 322 322
312 317 319 319 317 317 318 319 319 321 322 324 330 325 323 322 322 320 320 320 321 321 322 323 324 326 328 329 329 329 329 328 327 325 324 323 324 323 322 322 322 323 324 323
311 317 318 316 318 319 318 319 320 320 322 321 322 322 321 321 321 320 320 320 320 320 320 321 322 323 327 329 329 329 329 329 328 326 325 324 324 322 321 322 322 323 323 323
314 318 318 318 317 316 318 319 319 320 320 321 322 322 321 321 321 320 320 320 319 319 320 320 321 322 323 327 329 329 329 329 329 328 326 325 324 324 324 323 323 322 322 322
312 312 313 316 315 315 315 316 317 317 317 318 318 319 320 319 319 317 317 319 320 320 320 320 320 321 322 322 326 328 329 328 328 328 327 327 327 326 325 324 323 322 322 321
311 312 312 315 312 314 316 315 315 316 317 317 318 320 318 318 317 318 318 319 320 320 320 320 320 320 320 321 322 323 327 328 328 328 328 328 327 327 326 325 324 323 322 321
310 312 313 315 315 315 313 313 314 315 316 316 316 317 317 317 317 317 318 320 319 319 319 319 320 320 320 320 319 320 322 326 328 328 327 327 327 326 327 326 325 324 323 322
310 311 313 315 314 313 312 312 312 313 313 315 315 316 316 316 316 317 319 318 318 318 318 319 319 321 322 321 319 318 319 322 326 328 327 327 326 326 326 326 325 325 324 323
310 310 312 313 313 312 311 314 315 314 315 315 315 315 315 314 317 318 316 317 316 317 318 318 320 321 322 323 323 323 320 320 323 326 327 327 326 326 326 325 325 324 324 324
312 312 313 313 313 312 313 313 314 315 316 313 313 314 314 316 315 314 314 316 316 317 317 318 319 317 317 317 316 322 323 322 321 322 325 326 326 326 325 325 325 325 324 323
312 312 312 312 314 313 311 313 314 316 315 314 314 313 313 313 313 314 315 315 316 316 315 314 313 314 316 318 317 318 323 322 323 322 323 325 326 326 326 326 326 325 324 323
313 311 312 311 312 313 314 314 313 313 313 313 312 312 312 312 313 314 315 316 314 312 311 310 310 314 314 313 313 312 316 318 320 321 322 324 325 325 325 325 325 325 323 322
311 311 313 313 314 313 313 311 312 312 311 311 310 310 310 309 310 312 312 314 310 308 306 305 310 313 314 309 310 308 309 314 316 317 320 321 322 323 323 323 322 322 321 320
309 310 310 310 310 310 310 311 310 310 310 309 308 308 307 306 307 307 309 306 305 303 300 303 306 306 313 307 308 309 308 308 311 310 309 311 315 316 319 315 313 310 313 311
309 309 310 310 311 312 311 308 308 308 307 306 305 304 303 303 302 303 303 299 298 297 296 300 302 305 305 304 300 309 309 307 308 307 304 301 302 303 306 307 302 301 302 302

GFSCGP_850_thetae_078.txt.gz
Theta_e
311 311 312 314 319 319 320 321 322 324 323 323 323 321 321 323 323 325 325 325 327 329 329 330 329 329 327 328 328 325 324 326 326 325 326 326 326 324 323 322 320 315 316 313
314 314 313 314 314 316 317 319 321 324 324 322 321 321 321 322 322 322 323 325 325 327 329 330 330 330 327 328 327 326 324 325 324 326 325 326 326 324 323 323 321 318 318 319
319 318 316 313 315 316 319 321 322 323 323 323 322 321 321 322 321 321 321 321 324 327 329 330 331 331 328 327 326 325 324 325 325 326 324 325 324 323 322 322 318 314 313 316
318 317 316 315 317 318 321 321 322 323 323 325 323 323 322 323 323 322 322 321 322 323 328 330 331 331 330 327 327 324 322 326 324 327 325 324 324 323 322 321 317 315 318 318
316 316 316 317 318 318 322 321 322 323 323 324 322 323 323 322 322 323 323 322 323 323 325 329 331 332 331 329 327 324 324 324 324 324 324 324 324 323 323 322 315 315 317 317
315 315 316 317 318 318 318 321 321 322 322 324 322 323 324 324 324 323 324 324 323 324 324 327 331 332 331 330 327 326 322 323 326 325 326 325 323 324 323 322 320 316 317 314
313 314 315 316 317 317 318 318 323 325 325 325 322 323 324 324 324 325 325 324 323 323 324 326 330 331 331 330 328 325 326 322 323 325 324 324 324 324 323 323 322 318 317 312
310 311 312 313 315 316 318 318 324 326 328 325 322 324 324 324 324 323 323 323 323 323 325 326 329 331 331 330 329 325 325 322 324 324 325 325 324 324 323 323 323 323 318 312
312 310 312 314 313 314 318 320 319 323 322 328 329 325 324 324 323 323 323 324 323 324 324 325 327 330 331 331 329 328 325 324 325 323 326 324 324 323 324 323 322 322 323 321
313 314 314 314 315 316 318 319 320 320 324 329 328 329 325 324 324 323 324 325 324 323 324 325 326 329 331 331 330 329 325 325 326 326 323 323 326 324 324 323 323 322 322 323
316 313 315 315 315 317 317 319 319 321 322 327 329 328 327 326 324 325 325 324 323 324 324 324 326 328 331 331 331 330 328 325 325 326 326 323 323 324 323 323 323 322 322 322
317 316 316 316 316 315 317 318 318 322 326 325 326 328 325 325 324 323 323 322 321 322 322 324 325 327 329 330 331 330 329 327 326 325 326 325 325 324 323 324 323 323 323 322
311 315 318 318 319 317 316 317 319 319 322 325 330 326 323 324 323 321 321 320 320 321 321 322 322 326 327 330 330 331 330 329 326 325 326 326 325 325 325 324 324 324 323 323
309 313 318 321 321 319 320 319 319 321 322 324 326 325 323 322 322 322 320 320 320 320 320 320 321 322 325 328 330 330 331 330 329 327 326 325 325 324 324 324 324 325 324 324
311 315 316 314 318 318 319 321 320 322 322 323 322 323 322 322 321 321 319 319 320 320 321 321 321 321 321 322 329 329 330 330 330 329 328 326 325 325 325 324 324 324 325 325
311 314 313 313 314 317 316 316 316 319 320 318 320 322 320 320 320 318 318 318 321 320 320 320 320 320 320 321 321 325 329 329 330 330 329 328 326 325 325 326 325 324 323 323
312 311 312 313 313 314 317 316 315 316 317 317 317 318 319 319 318 318 317 320 320 320 319 320 320 320 321 322 322 321 319 325 329 330 330 329 328 327 326 326 326 325 324 324
310 311 313 315 314 316 314 314 314 315 315 316 317 318 318 317 317 317 317 319 318 318 318 319 319 321 322 324 323 323 321 319 321 329 329 330 329 329 328 327 326 326 325 325
310 310 313 315 314 313 312 313 312 312 313 315 315 316 316 315 315 316 316 317 317 317 317 319 320 320 320 318 320 322 323 322 321 320 328 329 329 329 329 328 328 327 326 326
310 312 313 314 313 313 312 311 314 314 313 316 316 316 315 314 317 317 315 314 316 317 317 316 317 315 315 316 317 319 319 321 324 323 322 323 329 328 328 328 328 328 327 326
311 312 313 313 313 313 311 314 314 316 317 314 314 315 315 316 314 314 314 315 317 316 314 313 312 312 314 315 316 316 318 319 322 322 323 321 324 329 328 328 328 327 327 327
312 312 313 312 312 313 312 313 314 317 314 314 314 313 313 313 313 313 314 316 315 312 311 309 308 308 312 313 316 316 316 316 317 318 321 323 323 327 328 327 327 327 326 326
313 311 312 311 312 312 314 315 314 313 313 312 312 311 311 311 311 312 312 314 311 309 306 304 303 306 309 309 310 312 311 311 313 315 316 319 321 323 325 326 327 326 326 326
311 311 313 313 312 313 313 313 312 311 311 310 309 309 308 308 308 308 310 306 305 303 300 298 298 301 302 304 305 306 309 309 309 309 310 312 313 317 318 322 323 324 325 324
310 312 312 312 311 311 310 309 310 309 308 307 306 306 304 304 303 302 304 300 298 297 296 295 297 298 300 301 303 303 306 307 308 308 308 307 305 304 306 308 312 313 314 314
310 310 311 314 310 311 308 306 306 305 304 304 304 303 301 299 297 296 295 296 294 292 292 293 294 294 294 296 298 300 302 303 305 306 305 303 303 299 298 294 296 296 299 299

GFSCGP_850_thetae_081.txt.gz
Theta_e
310 307 308 310 314 316 317 317 317 318 318 320 321 318 316 317 319 319 322 323 326 328 328 329 329 328 329 327 328 327 321 327 329 325 325 326 325 324 325 326 325 324 320 320
310 309 309 311 312 312 312 313 315 316 318 318 320 321 318 316 317 319 322 323 324 328 329 330 329 328 329 327 327 327 322 322 327 325 325 325 325 324 323 324 324 322 320 320
313 314 313 315 313 314 314 315 316 317 317 319 321 321 319 318 319 320 320 324 324 327 329 330 329 329 328 327 326 326 321 321 325 326 324 326 325 324 323 323 322 321 319 318
314 315 317 316 316 314 314 315 318 320 324 325 322 325 322 318 318 319 320 320 321 324 329 330 330 329 329 328 326 326 321 322 323 325 324 324 325 323 323 323 320 318 317 316
313 315 315 315 315 315 315 317 319 320 324 324 325 325 322 319 319 319 319 319 321 321 329 330 330 330 330 329 327 326 322 320 323 323 324 324 323 324 323 323 322 316 318 316
310 313 313 314 316 317 318 319 319 319 322 327 324 323 321 320 320 320 320 320 320 321 328 329 330 330 331 330 328 326 323 322 325 324 324 324 324 323 324 322 323 322 319 317
310 311 314 316 317 317 317 320 325 325 326 325 322 322 321 321 321 321 321 320 321 320 325 330 330 331 331 331 330 328 325 323 325 323 325 324 324 323 322 323 322 320 315 314
309 311 312 316 315 315 317 318 324 326 326 326 321 322 320 320 321 321 322 322 322 323 324 330 330 331 331 331 330 329 327 322 320 326 325 324 323 323 323 322 322 321 316 314
310 311 311 311 313 314 315 317 317 321 323 325 326 323 321 320 321 320 320 322 324 323 326 330 330 330 331 331 330 330 329 323 322 321 327 326 325 323 323 323 322 323 320 314
312 314 313 312 313 313 313 316 321 320 325 327 325 328 327 322 321 320 320 319 323 325 325 328 330 330 330 330 330 330 330 327 322 321 322 324 323 323 324 323 322 322 322 322
314 314 314 313 315 316 316 317 318 320 321 330 330 330 325 324 322 322 320 320 321 322 324 324 327 330 330 330 330 330 330 329 324 322 322 322 323 324 323 323 323 323 322 322
312 313 314 312 313 314 316 317 318 323 325 323 326 326 325 325 323 320 319 320 320 321 321 321 323 329 331 331 331 330 330 330 329 323 324 325 324 321 324 325 323 322 323 322
309 312 316 317 318 317 317 317 318 319 320 324 326 328 323 322 321 321 320 319 320 320 321 320 321 323 329 331 330 331 330 330 330 327 324 325 326 325 321 322 324 323 323 322
308 311 314 318 321 317 320 318 318 319 323 321 324 323 322 322 321 320 320 320 320 320 320 320 320 321 321 324 330 331 330 330 330 329 326 325 326 325 325 323 322 322 321 323
309 312 314 314 314 315 319 318 319 321 320 322 322 323 323 322 322 321 320 320 320 320 320 320 320 320 321 322 322 324 327 331 331 330 329 327 325 326 326 325 325 324 324 323
310 310 312 313 313 312 315 317 318 317 319 320 320 321 320 319 319 319 319 319 319 319 319 320 320 320 321 321 321 322 322 325 330 331 330 330 328 326 326 326 325 325 325 325
311 311 311 312 313 315 315 314 315 317 319 319 320 318 319 319 319 317 318 317 317 318 320 321 320 319 318 318 317 318 321 322 322 327 330 330 330 329 328 327 326 325 325 325
310 310 310 310 311 315 316 315 315 315 315 314 315 317 317 316 315 315 317 317 317 319 319 318 318 315 315 315 315 316 318 320 321 322 321 326 329 329 329 328 327 327 326 326
308 309 307 310 312 312 311 313 312 312 313 315 313 316 315 315 314 314 314 317 316 316 315 315 314 313 313 314 315 315 316 317 320 320 321 322 323 326 328 329 329 328 327 326
308 307 308 308 314 311 311 313 314 314 315 315 315 315 314 314 314 313 314 313 311 312 312 313 312 313 313 314 315 315 315 316 317 319 320 322 322 322 323 328 329 329 328 328
308 307 309 309 311 312 312 314 314 315 316 314 313 313 312 312 312 313 313 310 310 309 309 308 309 310 310 312 313 313 312 313 313 314 315 317 319 321 322 324 328 328 329 328
309 309 308 308 309 310 311 313 315 314 313 312 311 311 310 310 310 310 309 306 306 306 307 305 307 306 305 305 308 309 309 309 309 310 311 313 316 318 320 322 325 327 327 328
312 310 309 309 308 312 313 314 312 312 311 310 309 309 309 308 307 306 305 304 303 303 304 304 305 302 301 301 303 304 306 307 308 308 309 309 310 314 316 317 321 322 322 325
311 309 312 310 312 311 310 309 308 308 307 307 307 306 306 305 305 303 304 301 300 301 301 300 300 301 301 302 303 303 303 304 305 306 306 306 305 306 310 313 313 313 314 311
310 311 310 311 310 309 306 305 305 305 305 305 304 303 302 302 300 300 299 298 298 299 299 299 299 299 299 299 299 301 302 302 303 303 303 301 300 298 298 302 305 304 300 299
307 307 311 309 304 306 303 303 303 302 301 302 300 299 298 297 295 295 296 295 295 295 294 294 293 292 292 293 294 296 297 297 297 298 299 297 296 294 293 291 293 294 295 295

GFSCGP_850_thetae_084.txt.gz
Theta_e
310 307 306 308 311 314 315 315 315 314 314 317 316 316 315 317 318 316 317 318 320 322 325 328 329 328 327 328 328 327 326 326 325 325 325 323 324 325 325 327 327 328 325 324
308 307 307 309 310 311 313 313 311 312 314 319 319 319 317 318 317 315 318 320 321 323 327 328 328 328 328 328 328 327 326 322 324 325 325 324 324 323 325 326 326 326 325 324
308 310 308 309 309 310 310 312 312 313 317 318 320 319 318 319 320 319 317 320 322 322 327 328 328 329 328 328 328 327 326 321 325 324 323 324 324 325 325 324 325 325 325 324
313 313 312 313 315 314 314 313 315 317 321 321 322 324 321 321 321 320 318 318 320 322 326 328 328 329 329 328 328 327 325 320 320 324 324 325 325 324 323 324 324 325 324 321
312 315 314 315 315 313 315 318 318 319 320 321 321 326 322 320 321 321 319 317 319 321 324 328 329 329 329 328 328 327 325 320 319 327 323 324 326 325 324 323 324 324 322 320
307 310 313 313 315 315 317 318 319 319 320 320 319 324 323 322 321 320 318 319 319 318 322 327 329 329 329 328 328 327 325 320 320 323 323 323 324 323 323 323 323 323 321 321
308 308 314 315 317 316 317 317 321 324 324 319 319 324 322 320 320 320 320 319 321 320 321 328 328 328 329 328 328 328 325 321 319 321 323 322 322 323 323 322 323 322 322 320
308 309 313 314 314 316 317 317 320 325 323 323 320 322 320 320 321 321 320 320 320 319 324 328 329 329 329 329 329 329 326 323 319 318 322 323 322 323 322 323 323 322 321 319
307 309 309 313 313 313 316 317 316 321 322 322 322 324 321 325 323 321 319 319 319 319 327 328 329 329 329 329 330 330 328 325 320 318 320 323 322 322 322 322 323 323 323 321
311 314 312 311 311 313 314 316 321 321 322 326 323 326 330 326 325 321 319 317 320 322 327 328 329 329 329 329 330 330 329 327 324 318 318 320 323 324 323 322 322 322 322 322
313 314 314 313 313 313 314 317 317 318 319 324 328 330 325 325 324 322 320 318 318 322 327 329 329 329 329 330 330 330 329 329 328 324 319 318 323 325 324 323 322 322 321 321
310 311 314 313 312 312 314 317 318 322 324 321 324 325 323 322 322 321 320 319 319 319 321 326 330 329 329 329 330 330 329 329 329 328 324 320 318 322 324 324 323 322 322 321
308 313 314 316 317 317 318 317 317 318 318 320 323 325 321 320 321 321 320 319 319 319 321 322 325 327 329 329 329 328 327 327 328 328 327 324 321 321 321 320 322 322 322 322
308 309 313 315 316 317 317 316 318 319 322 320 320 321 321 321 320 320 321 319 319 320 320 321 322 322 323 326 328 328 328 328 327 327 327 327 326 324 323 324 322 322 322 323
307 308 311 313 314 313 314 316 317 318 320 323 320 321 321 321 320 320 319 319 319 321 321 320 318 317 317 318 321 322 325 327 328 327 327 326 327 326 325 325 325 324 323 321
309 310 309 310 311 311 313 312 319 317 317 318 319 318 319 320 319 319 319 319 320 320 318 315 314 314 315 315 317 319 320 322 323 328 327 325 325 325 325 326 326 325 325 324
310 310 309 311 311 311 313 314 316 317 317 316 320 318 319 320 318 319 318 319 319 317 316 314 313 313 314 314 315 316 317 319 321 323 326 327 327 327 326 325 326 326 326 325
309 310 310 310 309 311 311 309 311 316 316 317 318 318 319 316 315 314 317 317 315 313 312 312 312 313 313 314 314 314 315 315 317 318 319 321 323 325 326 326 325 325 326 326
307 307 306 308 310 309 307 309 313 312 316 314 316 317 316 315 314 312 312 312 310 309 309 309 311 312 312 313 313 313 313 314 314 315 315 316 318 319 320 322 324 326 325 326
307 306 306 305 310 309 309 311 312 313 317 313 314 315 313 314 315 311 307 307 306 305 305 307 309 310 311 311 312 312 312 311 311 311 310 311 313 315 317 319 320 321 325 325
306 304 308 306 306 308 309 313 313 315 315 311 311 311 312 311 310 305 305 304 304 304 306 307 308 308 308 308 309 311 310 310 308 309 309 310 310 311 313 315 317 318 321 324
309 309 306 306 307 308 311 313 314 312 309 309 309 308 308 306 304 303 303 302 303 302 303 303 304 304 304 304 305 305 308 308 308 308 308 308 308 308 309 311 312 315 317 320
310 310 309 307 306 309 310 311 310 309 308 307 307 306 306 305 302 300 298 298 298 298 300 299 299 299 300 301 302 303 303 304 306 306 306 305 305 305 305 306 308 310 312 314
306 306 310 310 309 308 307 306 305 305 305 304 305 305 304 301 299 298 297 298 298 299 298 298 298 298 298 299 299 300 301 302 302 303 302 301 301 301 301 301 301 302 303 301
307 309 308 309 307 306 304 302 302 301 303 304 302 301 300 299 298 298 298 296 296 295 295 295 295 294 293 294 295 295 296 297 298 298 298 298 297 296 295 295 294 294 293 296
302 304 306 305 300 303 299 300 301 301 300 298 298 297 297 296 294 294 293 292 291 291 291 292 291 291 290 292 293 292 293 294 295 296 295 294 293 291 290 289 288 290 289 289

GFSCGP_850_thetae_087.txt.gz
Theta_e
308 307 305 306 311 314 315 315 315 313 313 316 316 316 315 314 314 315 317 318 318 317 318 317 324 327 329 329 329 328 328 326 322 320 325 323 326 324 327 328 328 328 327 327
307 306 307 306 308 311 313 314 313 310 312 316 316 316 315 314 316 316 317 318 319 316 317 320 325 328 329 328 328 328 327 325 322 319 324 324 324 327 324 325 327 328 328 327
307 308 308 307 308 309 309 309 310 311 316 316 318 316 314 316 315 317 319 320 320 316 319 323 326 328 329 328 328 327 327 324 322 320 324 323 324 324 325 324 326 325 327 327
310 310 309 307 308 308 310 312 313 316 317 316 319 318 316 317 318 318 318 320 321 320 318 324 326 328 328 328 328 328 327 325 321 320 324 323 324 322 323 324 325 326 327 327
313 314 312 313 313 312 314 316 317 318 318 319 318 320 314 318 319 319 318 320 321 321 319 324 327 327 328 328 328 328 327 325 321 320 321 323 323 324 325 323 325 322 326 325
309 308 311 313 315 314 316 316 316 318 318 318 315 318 316 314 316 318 319 320 320 320 317 321 325 328 328 328 328 328 327 326 321 318 321 323 323 323 325 325 322 322 325 325
307 307 312 315 316 315 315 313 310 314 320 317 316 318 316 316 317 319 319 320 320 320 319 320 325 327 328 328 328 328 327 326 321 317 320 323 324 324 324 324 323 323 323 324
306 308 312 314 314 316 316 313 311 318 322 322 317 319 318 320 320 319 320 320 320 320 319 319 322 325 327 328 328 328 328 326 322 318 321 322 323 323 323 324 323 323 324 324
308 308 308 313 312 313 316 315 314 316 315 319 320 319 318 323 323 321 319 317 318 318 319 319 322 325 327 328 328 328 328 327 323 319 318 321 323 323 323 323 323 323 322 323
311 311 312 310 312 312 313 314 316 320 320 322 321 321 327 325 323 322 319 317 317 320 319 322 324 324 326 328 328 328 328 328 325 320 318 319 321 323 323 322 322 322 323 322
313 313 314 312 311 312 314 316 316 316 320 324 322 325 325 323 321 321 320 318 318 321 326 326 325 325 326 327 328 328 328 328 326 324 320 319 320 321 322 322 322 322 322 322
308 311 313 313 312 311 311 314 316 318 320 322 321 322 322 318 318 319 319 319 320 322 326 328 327 327 326 326 326 327 328 327 327 325 323 320 319 320 322 322 322 321 321 321
308 311 312 313 315 315 316 317 316 317 318 320 320 321 318 317 317 317 318 319 321 320 319 324 327 327 327 327 327 327 327 327 327 327 326 324 321 320 320 322 322 323 321 321
307 309 311 309 311 315 316 317 316 317 320 321 320 319 321 318 317 318 319 319 320 317 315 315 319 323 325 325 325 325 325 326 326 327 327 326 324 323 321 320 320 322 322 321
307 308 309 310 311 312 313 314 314 316 317 320 319 320 320 320 319 318 318 319 318 314 313 312 314 316 319 321 322 323 325 326 326 326 325 325 325 325 325 324 323 323 322 322
308 309 308 309 309 309 310 310 312 315 317 318 317 319 316 318 320 319 318 320 316 313 311 310 311 314 314 316 317 319 321 323 325 325 323 323 324 324 325 324 324 324 325 324
308 309 308 310 308 308 310 310 308 317 316 316 318 318 318 319 317 317 318 318 313 310 308 309 308 311 312 313 314 314 316 318 320 322 322 322 322 324 324 325 324 325 325 325
307 308 308 309 308 309 308 307 308 311 317 315 315 316 318 316 315 316 317 313 308 306 310 310 310 310 310 312 312 312 313 313 314 315 317 318 320 321 322 323 323 324 323 323
305 306 305 307 308 307 306 306 310 312 312 314 313 315 315 312 311 308 307 308 305 307 306 308 309 309 309 311 311 311 311 311 311 311 311 311 312 314 315 318 319 320 321 323
305 304 305 304 308 305 306 309 311 312 313 311 314 315 314 314 314 307 302 302 303 304 304 306 307 307 307 308 309 309 310 310 310 309 310 310 310 310 311 312 313 315 317 319
305 305 308 307 308 306 307 310 311 313 312 310 310 310 312 308 307 301 301 302 302 302 301 302 303 303 304 305 306 307 308 309 307 307 306 306 307 307 308 309 310 311 313 313
306 306 305 306 308 308 310 311 311 309 308 308 308 306 303 301 300 299 298 298 299 300 299 299 300 300 301 301 302 303 304 304 305 305 305 305 305 305 305 305 306 307 308 311
303 305 309 307 306 308 307 307 307 307 307 306 305 304 302 300 298 296 296 298 296 295 296 297 297 297 298 299 299 300 301 302 302 303 303 303 303 303 303 304 303 304 304 304
305 303 306 308 309 307 305 303 303 303 300 300 300 301 302 300 299 297 295 295 298 294 295 295 294 295 296 296 297 297 298 299 298 299 299 300 299 299 298 299 299 299 299 298
304 303 306 306 304 302 301 301 300 301 300 300 298 296 295 297 295 294 292 290 290 290 292 292 293 292 292 292 293 294 295 295 295 295 294 293 293 294 293 292 291 290 288 291
299 300 302 304 299 299 296 298 299 301 300 298 295 295 294 295 292 291 289 286 286 287 288 289 289 288 288 289 289 290 291 292 292 292 292 291 290 290 289 288 287 287 287 287

GFSCGP_850_thetae_090.txt.gz
Theta_e
307 306 305 307 309 311 314 314 314 313 312 311 312 313 313 312 312 312 314 316 317 318 319 319 319 316 322 329 328 330 330 329 327 327 325 324 324 323 329 327 328 327 325 328
306 306 306 307 308 311 312 314 313 311 310 315 313 314 311 311 312 314 314 315 317 318 319 320 318 317 320 328 328 330 330 329 327 325 324 322 323 323 325 324 327 328 326 325
308 308 307 307 307 308 308 310 309 310 313 312 315 312 312 312 312 314 315 316 317 318 319 320 319 318 322 327 327 329 329 328 327 323 322 323 323 325 325 325 326 327 327 325
308 308 308 306 307 307 307 307 310 315 314 313 316 315 313 312 312 312 314 317 318 319 319 320 319 319 323 325 328 329 329 328 326 323 321 320 322 323 322 324 325 326 324 327
312 313 310 309 308 308 311 314 315 317 316 317 318 314 310 311 311 311 311 316 318 319 320 320 320 319 321 328 328 329 328 327 326 323 320 321 322 323 322 324 323 325 324 326
310 307 310 312 315 313 316 314 316 316 316 315 314 314 311 309 311 316 318 316 317 318 320 320 320 320 323 327 329 329 328 327 326 323 319 320 322 323 322 322 323 324 325 325
306 306 311 314 316 315 312 312 310 309 316 314 313 315 313 312 314 320 318 316 317 319 319 319 319 320 322 326 329 329 328 327 327 324 319 318 322 323 323 324 322 324 323 325
305 305 310 313 313 315 314 313 313 315 320 319 315 319 315 318 320 320 320 318 317 318 317 318 319 320 321 325 328 328 328 327 327 325 319 317 321 322 323 323 324 323 322 323
305 307 309 313 312 312 315 314 312 314 314 314 313 317 316 320 319 318 318 318 318 319 319 316 318 320 321 325 326 327 328 327 327 326 320 317 321 322 323 324 324 323 322 322
309 310 311 311 311 312 313 313 313 316 320 320 317 318 320 320 321 319 318 318 320 321 322 318 317 320 322 325 326 328 328 327 327 326 321 317 321 322 322 323 323 323 322 322
312 312 313 310 312 314 314 315 314 315 315 319 319 318 320 319 320 319 318 318 319 319 325 322 322 323 324 325 325 327 327 327 327 326 322 318 320 321 322 321 322 323 322 322
309 312 314 314 313 311 311 314 314 313 315 319 320 317 319 319 319 318 316 317 318 316 320 324 324 324 325 325 325 327 326 326 327 327 324 321 319 319 321 320 321 321 321 322
307 311 310 316 315 312 315 315 316 316 315 318 318 316 317 318 318 317 316 318 315 314 314 318 322 323 324 325 325 326 326 326 327 327 326 324 322 320 320 321 320 320 320 320
308 309 308 310 309 313 315 315 315 315 316 318 318 317 317 319 318 317 318 318 313 310 310 311 314 315 319 322 323 324 324 325 326 326 326 325 325 323 322 321 320 321 320 320
307 307 308 309 309 311 311 311 312 315 315 316 314 316 316 316 318 318 317 314 311 309 307 307 308 312 314 317 320 322 323 325 325 325 325 325 325 325 325 324 323 322 322 321
307 309 308 309 308 307 308 308 308 309 311 314 315 316 316 316 317 318 318 314 311 308 306 307 308 310 311 314 314 318 320 322 324 324 323 323 323 323 323 324 324 324 324 324
307 307 307 308 308 307 307 307 306 305 314 315 316 316 317 316 317 317 314 311 308 307 304 305 307 309 311 312 310 313 314 320 320 321 321 322 322 323 323 323 322 322 321 323
307 307 306 308 307 306 306 304 305 309 310 314 314 313 317 312 309 309 310 307 303 302 304 307 307 307 309 308 305 306 309 311 312 315 316 318 320 321 321 321 321 321 322 322
304 305 305 306 308 305 305 307 310 309 308 310 312 313 315 309 307 304 302 305 304 302 302 303 307 307 307 308 307 308 309 308 309 310 310 310 310 310 312 314 317 319 320 321
303 303 304 304 307 304 304 307 309 309 305 309 310 313 313 313 314 305 301 301 304 302 301 302 303 303 306 305 304 304 306 306 307 307 306 306 307 308 309 309 310 310 311 313
305 304 307 306 306 306 305 309 309 308 307 307 306 310 310 306 305 299 297 298 301 299 301 299 300 302 301 301 301 302 301 303 302 303 304 305 305 306 306 306 306 307 308 308
305 305 304 306 307 306 307 309 308 308 306 306 304 302 300 298 296 296 296 297 298 298 298 299 299 299 299 300 301 301 300 298 299 300 301 302 303 303 303 303 304 304 305 305
301 305 308 306 306 306 304 303 303 303 302 303 302 300 300 297 296 297 298 295 294 296 295 295 295 295 296 297 299 298 297 297 298 299 300 301 301 300 299 300 301 301 301 301
301 302 305 305 303 304 302 300 298 299 297 299 300 299 297 295 293 292 292 291 293 292 292 293 293 293 293 294 294 295 295 295 295 297 298 298 298 297 296 297 296 297 297 296
301 302 301 305 302 300 298 297 296 295 296 298 297 296 295 295 292 291 289 289 289 290 291 290 289 289 290 291 292 292 293 293 293 294 294 294 294 293 293 293 292 292 290 290
298 298 298 302 297 298 295 294 294 293 292 293 295 295 294 293 291 290 290 288 289 290 288 287 287 286 286 288 289 290 290 291 291 291 291 290 289 289 289 288 288 287 287 287

GFSCGP_850_thetae_093.txt.gz
Theta_e
306 308 309 309 311 311 314 315 316 315 314 315 317 317 316 315 315 314 315 315 315 316 317 317 318 318 320 318 319 328 328 330 330 329 328 328 326 327 325 325 326 325 325 327
307 309 308 308 309 311 313 313 314 314 314 314 315 315 314 314 314 315 315 315 315 315 316 317 317 318 320 318 317 326 328 329 330 329 328 326 323 323 327 327 327 327 326 326
307 308 308 308 308 310 311 312 312 313 313 313 316 314 315 314 314 314 313 314 315 315 316 317 318 318 320 318 317 321 327 329 330 329 328 326 321 324 325 324 324 327 326 324
309 308 308 308 309 309 309 309 310 311 313 313 317 315 314 314 314 313 313 316 316 315 315 316 318 319 320 319 318 324 328 329 330 329 327 324 318 322 323 324 325 327 325 324
312 312 309 308 308 308 309 309 310 315 316 317 316 317 313 312 312 318 321 320 318 317 316 316 317 318 320 319 320 325 329 330 330 328 327 323 319 322 322 323 326 325 326 327
311 308 310 310 314 309 315 316 317 317 317 317 314 314 313 314 313 318 321 320 319 319 318 316 317 318 319 321 323 326 327 329 330 328 326 322 318 321 323 322 323 324 326 324
307 307 313 315 316 315 313 314 317 315 317 313 314 316 315 317 321 320 320 319 319 320 321 319 315 318 319 323 323 324 326 328 329 327 326 322 318 322 323 322 324 322 323 325
308 308 312 313 316 317 314 315 315 314 317 318 315 313 317 321 319 319 319 318 318 320 321 322 319 317 318 323 325 325 326 328 328 327 325 322 319 322 322 322 323 323 323 324
307 307 311 313 314 314 316 316 313 315 315 316 314 314 316 319 320 320 318 317 317 319 319 322 322 316 318 322 324 325 327 329 328 327 325 322 319 321 322 322 322 322 322 322
308 313 311 313 313 313 314 314 316 316 319 319 316 318 320 322 321 320 319 317 317 317 318 323 323 318 320 323 326 326 328 329 328 327 326 322 318 319 323 322 322 323 325 324
312 314 313 312 313 315 315 315 315 315 315 317 318 318 322 321 321 321 320 317 315 314 314 322 323 321 323 324 325 326 329 327 327 327 326 322 317 318 323 323 323 323 323 322
311 314 315 314 313 313 313 315 315 315 316 315 317 317 319 319 319 319 318 317 313 311 311 315 324 324 324 324 324 323 325 325 327 326 325 321 317 318 323 321 321 322 322 322
310 311 318 316 314 312 314 316 316 316 315 315 318 316 319 317 317 317 317 313 311 308 307 309 317 319 322 322 322 322 322 325 325 326 325 322 320 318 320 320 320 320 321 321
310 310 310 313 312 313 312 311 314 315 314 313 315 314 314 315 316 317 315 311 309 306 305 305 308 311 315 320 319 321 322 325 325 325 325 324 323 322 320 320 320 320 320 320
309 310 310 309 310 311 311 310 310 313 313 314 312 312 313 315 317 318 315 311 309 307 304 302 303 305 313 315 318 320 321 322 323 323 323 324 324 324 323 322 321 321 321 320
308 311 309 308 308 308 308 307 308 309 310 311 312 314 314 315 314 317 313 310 307 304 302 303 299 303 304 307 311 314 318 321 322 323 323 323 323 322 322 322 323 323 322 322
308 308 306 307 308 306 305 307 305 306 307 313 314 314 316 312 310 312 310 307 303 300 301 301 302 302 302 304 306 311 314 316 318 318 317 321 323 322 322 322 322 323 322 322
308 307 308 307 308 305 305 306 306 308 308 312 313 315 316 311 306 304 303 304 303 303 303 301 306 306 304 304 304 306 309 314 315 314 309 317 319 319 320 320 320 321 321 321
306 307 308 307 306 305 305 309 308 308 307 310 311 313 313 308 305 300 299 299 301 300 300 300 302 303 306 307 306 307 307 310 308 308 307 306 308 310 313 316 318 318 318 318
305 305 307 307 305 305 305 307 309 309 306 307 308 315 313 311 314 302 297 298 297 298 298 300 300 302 303 304 304 305 305 305 304 303 304 302 305 306 307 308 308 309 310 311
307 306 306 305 305 306 307 308 307 307 308 305 305 304 306 302 300 295 296 294 296 295 296 296 299 301 300 300 300 300 301 302 302 301 301 302 304 304 305 304 304 305 305 305
306 306 306 305 306 306 305 308 309 308 305 304 302 299 297 296 295 293 295 295 294 296 295 295 296 296 296 296 296 296 298 296 297 299 300 300 301 301 301 302 302 302 302 301
307 307 306 307 308 302 301 301 298 300 299 299 298 297 297 296 295 296 295 292 293 293 293 295 295 294 294 294 294 293 291 292 294 296 297 298 297 297 297 298 298 298 298 298
303 301 305 305 303 299 297 297 295 295 294 294 295 296 296 295 294 293 292 292 289 289 289 290 292 291 291 292 293 293 292 292 293 293 293 293 293 293 294 295 295 295 295 294
301 300 300 304 300 298 295 294 294 294 293 293 293 292 292 293 290 289 287 285 286 288 288 288 288 289 290 290 291 292 292 292 292 291 291 291 291 290 291 292 290 290 289 289
298 298 299 301 296 296 293 292 293 293 292 291 289 289 288 288 287 286 284 286 285 285 287 288 288 288 288 288 289 290 290 291 291 290 290 290 290 289 289 289 289 289 289 289

GFSCGP_850_thetae_099.txt.gz
Theta_e
308 307 308 311 315 316 317 318 320 320 321 322 322 322 322 322 321 321 321 322 322 322 322 321 321 320 321 322 326 331 337 339 336 331 330 329 329 328 327 326 329 329 328 326
310 307 308 312 314 315 316 317 320 320 319 320 321 321 321 322 323 322 322 321 321 322 322 322 322 322 321 321 322 327 334 338 336 332 331 330 330 329 329 326 329 329 327 326
312 308 308 310 312 313 316 317 317 317 316 318 320 320 319 320 320 320 320 320 321 321 321 321 321 321 322 322 324 324 329 335 337 332 332 334 333 332 330 327 329 327 326 327
312 309 310 310 311 313 314 315 315 314 316 319 318 319 320 319 320 321 320 320 320 323 323 323 323 322 322 321 323 326 328 333 336 333 335 335 332 331 329 329 328 326 326 326
313 309 311 311 312 313 313 314 314 315 315 316 317 319 319 320 319 319 319 321 323 324 324 324 324 325 323 322 322 327 329 332 335 334 335 335 334 332 330 328 327 325 328 326
312 311 312 311 311 311 312 312 312 313 313 315 315 317 319 317 317 319 322 323 323 323 323 323 324 325 325 323 322 327 331 334 334 332 335 334 334 332 329 327 328 328 326 327
314 315 312 311 312 312 311 312 314 315 316 317 318 318 318 320 322 322 322 322 322 322 322 321 322 324 326 327 322 327 332 335 331 333 334 335 334 332 328 327 328 326 326 327
316 317 312 313 312 312 312 312 319 319 321 319 317 315 317 321 321 321 320 321 321 321 320 319 320 321 324 328 325 328 333 333 331 332 333 334 334 330 328 326 327 326 325 326
316 312 313 313 312 312 313 315 316 319 319 319 318 320 321 321 321 321 320 320 320 319 318 317 317 317 323 326 327 330 334 330 328 329 333 333 332 329 327 326 326 324 325 325
312 313 311 313 315 313 313 314 317 318 318 316 317 318 323 322 321 320 320 320 318 317 315 313 312 312 319 325 327 331 333 330 327 327 330 331 331 327 326 326 326 325 325 324
311 314 311 313 315 314 315 317 316 316 317 321 321 324 321 318 318 319 320 318 316 315 311 309 306 312 322 327 328 333 331 329 328 327 327 331 330 327 325 325 326 326 324 324
311 313 313 313 313 315 314 316 315 318 318 317 320 324 318 315 317 320 319 316 314 311 309 305 304 308 317 324 328 329 328 327 326 326 326 328 328 326 324 325 325 324 324 323
314 314 314 315 315 316 317 317 316 317 318 319 320 323 316 318 318 317 315 310 309 308 306 303 305 302 305 313 321 325 326 325 325 325 325 326 326 327 324 324 323 323 323 322
313 315 313 315 315 314 317 316 316 316 317 317 317 315 320 319 319 313 309 307 306 305 305 303 303 302 300 303 310 319 323 324 324 325 325 325 324 321 322 323 323 323 323 324
313 317 315 315 314 314 315 316 316 316 315 315 315 315 320 317 313 309 307 305 303 302 300 299 299 303 300 299 303 309 318 323 324 324 324 323 322 321 321 323 324 323 323 325
310 311 311 311 313 312 311 310 310 310 311 312 313 318 318 314 311 307 305 302 300 298 297 299 299 300 303 298 299 301 305 314 320 322 322 322 321 320 321 323 323 321 320 321
309 309 310 310 308 309 310 310 309 311 312 313 316 317 317 312 307 304 302 299 298 297 296 298 298 298 300 301 299 300 300 303 309 315 317 318 320 321 321 323 323 323 321 320
309 307 309 309 308 310 310 311 311 312 312 311 312 312 314 306 298 297 296 296 295 295 295 298 299 299 299 300 301 301 301 301 302 304 306 308 310 314 319 321 322 322 322 321
308 309 308 308 310 310 310 310 311 312 312 309 310 311 308 302 300 296 294 295 294 294 295 295 298 300 300 300 300 300 301 301 303 303 301 301 302 304 306 308 308 312 314 313
308 309 310 309 307 310 312 309 309 311 313 308 308 307 306 305 312 298 293 294 294 294 294 293 293 298 300 300 300 300 300 301 302 301 300 300 300 301 301 300 303 304 309 302
308 309 310 309 309 311 305 306 307 312 309 305 303 301 298 298 296 293 292 292 293 293 293 292 291 292 294 296 298 300 300 300 299 300 300 300 300 298 299 300 302 302 305 305
310 311 311 311 309 311 300 307 308 301 299 301 300 299 297 295 293 292 291 291 291 291 292 292 291 289 291 293 296 294 294 293 297 298 296 296 300 298 298 301 303 301 300 300
309 308 308 306 305 300 298 298 296 297 297 297 297 298 297 294 292 291 291 290 290 291 291 291 291 289 288 289 290 290 290 291 291 293 293 295 294 297 298 296 296 298 297 296
307 305 308 305 301 299 298 297 296 296 294 295 296 296 296 294 292 291 291 291 291 290 290 290 290 289 288 287 286 288 288 288 290 290 289 292 294 292 292 292 293 293 291 292
304 304 305 302 300 299 297 295 295 295 295 295 295 294 295 295 293 293 292 291 290 289 289 289 288 287 286 285 284 285 287 288 288 287 286 286 287 288 289 290 287 288 288 288
301 301 304 303 298 298 295 293 292 292 292 293 293 293 292 292 292 291 289 288 288 287 287 287 286 285 284 284 286 287 286 286 287 286 286 285 285 285 285 287 287 287 288 288

GFSCGP_850_thetae_102.txt.gz
Theta_e
308 312 310 307 309 312 314 315 318 318 320 321 322 322 322 322 322 322 323 323 322 323 322 321 320 319 320 321 323 331 336 334 331 335 329 336 332 331 328 326 331 333 328 326
306 310 311 307 307 308 312 316 318 319 319 321 322 323 324 323 323 322 322 322 322 323 323 323 322 321 321 320 322 325 336 337 334 336 332 335 335 330 329 328 329 328 328 328
304 307 312 308 307 307 311 314 318 319 320 317 320 319 321 322 322 322 322 322 322 322 322 322 322 323 323 323 323 322 326 338 336 335 337 335 336 333 334 331 330 330 329 328
304 306 310 310 307 308 312 314 317 318 319 320 317 322 320 321 321 320 321 322 321 321 323 323 323 324 324 323 322 324 322 328 337 335 337 335 333 332 331 331 331 329 328 328
304 306 310 312 307 309 312 315 316 316 317 317 317 321 320 320 320 319 320 322 323 324 325 324 324 325 325 325 325 323 324 324 333 335 336 335 334 335 332 331 330 329 327 326
305 308 312 313 311 310 313 315 315 315 315 321 319 320 319 320 320 320 321 322 323 323 323 323 323 323 324 325 326 326 324 325 329 333 337 335 334 334 333 331 330 329 326 325
307 308 311 312 311 312 314 315 315 317 320 318 315 316 318 319 319 322 323 322 322 322 321 320 320 320 320 323 325 328 326 328 330 333 336 335 336 334 333 331 328 326 322 325
307 318 314 314 311 312 312 314 317 314 315 314 313 321 320 321 322 321 322 321 320 320 318 317 316 316 316 318 323 328 328 330 332 334 335 335 337 334 333 330 327 326 324 326
317 318 313 313 312 313 312 313 315 323 321 324 320 321 319 322 322 321 320 320 319 318 316 314 312 310 311 314 321 326 328 331 334 335 333 335 335 333 332 329 328 325 325 325
313 317 314 313 312 312 313 313 316 319 326 327 320 322 324 323 321 320 319 317 315 314 312 310 307 306 312 317 323 327 328 333 334 333 332 332 335 333 331 328 326 325 325 324
312 314 313 315 316 313 313 315 317 318 319 323 323 327 318 319 320 320 317 313 311 310 309 306 303 306 311 316 323 332 332 333 333 331 327 331 333 332 329 328 326 325 325 325
312 315 313 312 315 315 315 316 316 321 317 321 322 323 319 320 319 316 312 310 308 307 305 303 301 303 309 314 322 326 330 330 331 329 327 330 332 330 328 327 326 325 325 325
315 314 317 314 313 316 316 316 317 318 319 320 322 324 320 316 313 311 309 306 305 304 302 301 299 300 304 308 313 321 325 327 328 328 327 328 329 327 326 326 325 324 324 324
315 315 316 316 315 317 318 318 318 318 319 318 319 318 318 315 312 309 306 305 304 302 300 299 299 298 301 304 305 311 317 323 326 325 326 327 327 326 324 324 324 324 324 323
312 315 315 316 316 315 317 318 317 316 315 318 317 320 316 313 309 307 304 303 301 300 298 297 299 298 298 302 303 303 307 314 320 324 325 325 324 324 323 323 323 323 322 323
310 315 311 314 316 314 313 312 312 312 314 316 319 317 313 309 307 304 302 301 299 298 296 296 298 299 300 299 303 302 301 303 308 314 320 323 324 323 321 322 325 325 325 325
310 311 313 310 310 311 312 311 313 312 311 313 316 315 311 306 302 300 300 298 297 297 296 296 295 296 298 300 299 303 300 301 302 306 309 313 318 321 321 321 323 324 323 323
310 310 311 309 309 315 312 313 312 311 310 309 310 311 305 300 296 295 295 295 295 295 296 295 296 296 296 298 300 299 302 301 301 302 303 304 307 311 315 318 320 321 320 321
308 310 312 314 312 312 312 310 309 313 309 308 309 307 304 299 298 295 294 294 294 295 295 294 293 293 295 296 297 300 299 301 301 300 301 302 303 304 305 305 306 308 312 316
308 311 314 313 311 315 308 305 307 309 309 305 305 304 305 304 309 297 293 292 294 294 294 293 292 291 293 293 295 298 298 298 299 298 299 300 301 302 303 302 301 300 301 301
311 311 312 312 312 309 302 304 305 312 305 303 301 300 298 297 295 292 292 293 293 293 294 293 291 290 289 290 292 294 293 294 293 295 298 299 300 301 300 301 299 297 301 301
308 311 310 310 311 310 300 304 304 300 298 299 300 299 297 294 293 292 291 292 292 293 293 292 291 289 288 289 289 290 291 290 292 294 296 295 296 298 297 299 297 295 296 299
309 307 306 305 304 300 299 298 297 298 297 297 297 298 296 294 293 292 292 291 291 291 291 291 290 289 288 287 288 289 289 290 289 291 293 294 295 294 294 294 293 292 294 296
307 305 306 305 301 299 298 298 297 297 296 297 297 297 297 296 295 294 293 292 292 291 290 290 289 288 286 286 288 288 289 289 289 289 289 291 293 293 293 292 291 292 291 290
305 305 305 302 300 299 296 296 296 296 296 296 296 295 295 295 294 292 292 291 290 289 289 288 287 285 284 284 285 287 288 288 287 287 287 287 288 288 289 290 290 290 289 289
301 300 302 301 298 298 296 294 294 293 293 294 294 294 292 293 292 291 289 288 288 287 286 286 284 283 282 285 286 287 287 287 286 286 286 286 286 286 286 286 287 286 287 288

GFSCGP_850_thetae_105.txt.gz
Theta_e
302 301 304 309 305 305 305 308 311 311 312 318 320 320 318 319 320 319 319 320 320 320 321 321 321 320 318 319 320 325 331 333 336 334 331 328 329 337 334 331 331 330 328 326
307 302 302 304 311 308 305 306 308 310 314 319 318 320 318 317 318 319 320 319 321 321 322 322 321 321 319 319 320 323 325 333 334 333 333 331 329 335 336 333 333 332 328 328
308 308 305 303 307 311 308 305 306 307 317 319 318 318 318 319 319 320 321 320 321 322 322 322 323 323 322 322 324 333 330 335 333 333 333 334 333 334 336 335 333 331 329 329
308 308 309 306 308 311 306 305 306 307 318 321 318 321 319 319 319 321 321 320 321 322 324 324 324 325 325 325 325 326 336 336 335 334 334 331 331 330 329 331 332 329 330 329
309 307 305 304 305 310 311 307 307 309 317 317 318 320 319 321 321 320 320 323 323 322 322 321 322 322 323 325 325 326 327 332 332 333 334 331 329 331 328 333 331 331 331 331
309 306 304 308 311 310 311 315 317 316 316 315 317 319 320 320 320 320 323 321 320 319 318 319 320 321 323 324 325 325 326 326 329 330 329 333 332 332 333 332 331 332 331 330
308 304 305 309 309 311 313 313 314 319 316 315 315 318 318 318 321 322 322 319 317 315 315 316 317 318 318 318 321 324 325 326 327 334 328 330 332 335 334 332 333 331 330 329
304 308 309 309 310 312 313 313 313 317 317 315 315 318 317 320 321 320 317 315 312 311 311 312 311 312 314 316 318 319 322 325 327 336 333 331 335 336 334 334 333 331 330 329
310 312 309 312 313 312 312 314 314 318 320 316 316 320 321 322 319 316 313 311 309 308 306 306 307 310 312 317 320 322 323 321 326 334 336 333 335 336 335 334 333 332 329 327
311 310 313 313 312 311 310 312 311 316 321 323 323 323 324 319 316 313 310 308 305 304 304 304 305 306 309 312 315 320 324 323 325 329 336 331 333 333 335 334 332 331 329 325
311 311 315 314 316 312 312 316 316 318 318 321 326 322 317 318 314 311 308 306 304 303 302 301 300 302 304 308 311 316 324 329 329 332 333 333 332 332 334 333 331 330 328 324
312 313 314 313 313 313 314 315 317 318 322 320 322 319 314 313 310 308 306 305 303 302 301 301 299 299 301 305 309 313 322 328 330 331 331 331 329 332 334 333 330 329 327 324
312 314 315 317 314 313 316 315 315 316 318 321 320 317 313 310 308 306 305 303 302 301 299 299 299 298 298 301 306 308 317 324 328 329 328 327 329 332 331 330 328 328 324 325
312 314 314 316 318 316 317 317 317 317 319 319 320 317 313 311 308 305 303 301 300 298 297 298 298 298 299 299 300 304 307 315 321 325 327 328 328 329 328 328 327 325 324 323
309 313 312 315 315 314 315 316 316 316 318 319 316 315 312 308 306 304 302 300 299 298 296 297 297 298 299 299 300 301 304 307 312 316 323 326 327 326 326 326 325 324 323 324
309 312 312 316 311 313 313 311 311 313 316 316 314 314 307 305 303 301 299 299 299 298 295 295 296 297 298 299 299 300 302 304 306 308 311 315 322 325 325 325 323 324 324 324
310 310 312 314 312 314 314 311 310 309 310 311 312 310 305 301 298 296 296 296 296 296 295 294 294 295 296 297 298 299 301 302 304 304 304 305 311 320 323 324 323 323 324 322
308 309 311 310 312 316 308 308 308 306 306 307 307 304 301 298 295 294 294 295 295 295 294 293 292 293 294 296 299 299 300 301 301 303 301 301 302 308 315 318 319 321 321 320
308 310 311 313 314 313 309 305 305 309 306 304 304 304 299 297 297 293 293 294 294 294 293 292 292 292 292 294 296 298 299 299 300 299 301 300 298 300 304 306 306 308 311 310
309 310 311 312 313 313 305 302 302 305 304 302 300 299 299 302 301 294 292 293 294 294 293 292 291 290 291 291 294 296 298 298 296 296 296 300 299 299 300 301 300 302 303 303
307 307 308 310 311 306 300 301 302 307 303 300 298 296 295 294 293 292 292 293 293 292 291 290 289 289 290 290 292 292 293 294 295 295 296 297 296 299 298 300 299 301 302 302
306 308 305 306 307 304 298 300 301 300 298 298 298 296 295 293 292 292 292 292 291 291 290 289 288 288 288 289 289 290 290 290 292 294 296 296 296 296 297 299 298 298 300 301
306 306 303 303 302 299 298 297 297 297 297 298 298 296 295 293 293 292 292 291 291 290 289 288 287 287 287 288 289 288 288 289 290 291 292 292 293 295 295 295 295 296 297 296
306 305 300 302 300 298 298 297 297 297 296 296 296 296 295 295 294 292 291 290 289 288 288 287 286 284 285 286 288 288 288 287 288 289 289 289 290 291 291 293 293 292 292 293
302 303 303 301 299 297 296 295 295 295 295 295 294 294 294 293 291 290 289 288 287 287 286 285 284 283 283 284 286 287 287 287 286 286 286 287 287 288 289 289 289 290 289 289
299 299 302 299 299 297 295 294 293 293 293 293 293 291 291 290 289 289 288 286 286 285 284 284 283 284 284 284 284 285 286 285 286 286 286 286 286 286 286 286 287 287 287 287

GFSCGP_850_thetae_108.txt.gz
Theta_e
304 303 301 300 302 308 306 303 303 303 304 308 309 309 317 315 315 316 318 319 320 320 321 320 320 320 320 319 319 317 318 322 339 338 336 334 333 332 331 332 329 329 325 326
304 305 305 307 306 303 304 308 307 304 304 306 314 316 315 316 317 317 317 318 320 319 320 321 321 320 320 320 319 320 318 319 328 337 336 335 331 331 331 331 330 330 330 328
305 305 305 307 307 306 302 303 308 308 304 307 314 315 316 316 317 318 319 320 320 320 319 320 320 321 321 322 321 323 325 323 329 336 337 335 332 336 336 333 332 330 332 332
304 305 305 307 307 308 306 305 308 310 306 306 315 314 316 316 317 317 318 319 320 319 320 320 321 321 323 325 330 337 338 336 338 339 338 335 331 331 331 329 329 331 332 332
306 306 307 307 308 308 307 306 307 308 305 307 313 318 316 317 319 318 317 317 315 313 315 319 317 316 316 320 323 328 337 342 340 337 337 336 333 333 332 331 331 330 332 332
307 307 307 306 305 306 308 310 310 311 309 307 309 317 315 319 318 322 317 313 310 311 313 315 316 316 316 316 318 322 325 330 331 338 338 335 334 334 333 331 331 329 329 330
307 308 304 307 307 306 309 311 310 310 312 314 314 318 316 322 323 318 312 309 306 305 308 312 315 317 317 318 317 317 318 322 325 327 333 336 336 334 332 330 330 330 330 329
307 307 309 310 308 306 311 310 311 317 319 317 316 318 319 316 313 310 307 305 304 303 304 306 308 311 313 315 317 318 318 319 319 323 327 330 334 335 335 332 333 333 331 330
311 309 307 307 307 309 310 312 311 316 316 312 316 319 318 314 312 308 306 304 303 301 301 302 306 309 311 314 316 319 319 320 321 320 324 328 331 334 334 333 335 334 332 332
311 311 309 313 312 311 311 312 313 311 311 311 319 320 321 313 310 307 305 304 302 301 300 301 302 306 308 311 314 317 320 322 324 323 321 327 331 334 333 331 334 334 333 332
312 309 314 313 314 314 312 313 315 315 317 317 320 319 313 310 308 305 303 302 301 300 300 300 300 302 305 309 311 313 318 320 325 326 328 327 333 333 331 330 332 334 333 332
310 311 314 314 314 313 314 315 315 315 317 317 319 313 306 308 306 304 302 302 300 298 298 299 301 301 302 304 307 308 313 314 321 326 331 333 333 333 332 330 330 334 333 330
311 314 313 314 315 314 315 315 315 316 315 319 319 313 307 307 305 303 301 300 299 298 298 299 300 300 300 301 302 305 308 311 314 326 329 329 330 329 328 329 330 331 330 329
309 312 312 313 313 310 315 317 316 316 319 316 316 313 309 306 304 302 301 300 298 297 296 297 298 298 299 300 300 303 305 306 311 316 323 326 327 328 328 330 331 331 328 328
309 311 311 314 313 314 313 313 315 318 314 314 313 310 307 305 303 301 300 299 298 296 294 294 295 297 299 299 300 301 302 305 307 308 316 322 323 326 327 327 327 328 327 324
309 311 310 313 311 311 311 309 311 312 312 312 309 306 303 299 299 298 298 297 297 295 292 293 294 295 296 297 298 300 301 302 303 305 307 309 318 319 320 325 327 327 326 324
309 309 312 314 312 312 308 308 307 307 308 309 310 305 301 298 296 295 295 295 296 294 292 292 293 293 294 295 297 298 299 301 302 302 303 305 307 311 314 317 315 324 324 324
309 308 311 312 313 309 306 304 305 304 303 304 305 302 298 295 294 293 294 294 293 292 291 291 292 293 294 294 296 297 298 300 300 300 301 302 303 305 303 307 307 315 317 321
308 309 312 314 313 309 306 302 302 306 304 301 302 301 297 295 295 292 293 293 293 291 290 290 290 291 292 293 294 295 297 298 299 299 299 299 301 302 302 301 301 302 302 307
307 307 311 312 310 310 304 300 300 302 303 300 298 297 296 299 298 294 292 292 292 291 290 290 290 290 291 290 291 293 294 296 296 296 297 298 299 299 299 300 300 301 301 301
306 306 306 308 307 305 299 299 301 306 301 298 296 295 294 294 292 292 291 291 291 290 289 289 289 289 289 290 290 291 291 292 293 294 296 297 298 297 298 298 298 300 299 301
306 307 303 304 304 303 298 299 301 300 298 297 296 295 293 292 291 291 291 290 290 289 289 288 289 288 288 289 289 287 288 288 290 292 293 294 294 296 296 296 296 297 297 297
305 303 302 302 301 298 297 297 297 297 297 297 296 295 293 292 291 290 289 289 288 288 287 287 288 288 288 288 288 288 287 287 288 289 290 292 292 293 294 294 294 295 295 295
305 303 299 299 299 298 296 296 296 296 295 295 295 295 294 293 291 289 289 288 287 287 286 286 287 287 286 287 287 287 287 286 287 288 288 288 290 290 291 292 292 292 292 292
299 301 301 299 297 296 295 294 294 294 295 293 293 293 292 292 289 289 288 287 286 285 285 286 286 286 285 284 286 286 286 286 286 287 286 287 287 288 289 290 289 288 287 288
299 299 301 298 298 297 295 293 292 292 292 292 292 291 290 290 289 288 287 285 285 284 284 285 284 284 284 284 284 285 286 286 286 286 285 285 286 286 286 286 288 288 287 286

GFSCGP_850_thetae_111.txt.gz
Theta_e
303 303 303 302 300 301 301 300 301 304 305 304 303 302 303 305 309 311 315 313 315 317 319 319 319 319 322 325 327 325 327 326 331 337 339 336 332 332 332 331 328 327 325 323
303 303 302 304 305 305 305 304 303 303 304 307 306 304 303 306 312 312 313 316 314 317 318 317 318 318 318 317 316 319 322 319 320 327 329 335 335 333 334 334 332 332 327 325
303 303 303 304 304 303 305 306 306 305 302 307 308 307 304 307 311 314 315 317 318 319 319 318 319 319 319 320 318 317 317 319 324 330 340 339 337 335 335 335 333 333 330 328
303 304 303 303 304 304 306 306 306 305 305 305 306 307 305 308 311 314 315 316 314 314 315 316 317 320 323 326 330 328 331 330 331 336 338 339 338 336 334 333 332 333 333 330
307 305 304 305 305 307 307 307 307 306 305 308 308 308 306 314 316 317 313 310 307 307 309 311 312 313 318 323 330 334 336 335 337 339 340 338 339 337 335 334 333 332 333 332
306 306 306 306 306 306 307 308 308 307 307 310 307 308 309 313 318 313 308 305 304 304 304 306 307 310 315 316 318 323 330 334 334 337 338 338 337 335 336 333 332 332 331 331
308 306 306 307 308 306 307 308 306 311 305 309 307 309 309 314 311 310 308 304 303 302 302 305 305 308 313 315 317 318 319 323 326 332 335 338 337 335 336 333 332 333 331 331
309 309 306 309 306 306 308 308 310 312 316 315 314 315 316 309 306 306 304 303 302 301 300 300 302 303 309 312 315 317 318 318 318 320 324 332 334 336 336 335 334 334 332 330
311 308 307 308 308 306 309 310 310 312 314 317 317 318 311 308 306 303 302 303 302 300 299 299 299 302 306 310 313 316 318 318 317 318 318 322 326 330 332 332 333 334 333 332
311 312 309 312 311 309 310 311 315 314 316 308 316 316 312 307 307 303 301 300 300 299 298 298 298 300 303 305 311 314 315 317 319 323 322 318 320 326 327 329 330 330 332 332
310 310 311 312 314 313 312 312 313 314 313 312 313 314 308 306 304 303 301 299 298 297 297 298 300 301 304 306 309 311 314 317 320 322 324 324 321 324 330 330 330 329 330 330
309 312 311 313 313 312 313 313 314 313 315 316 314 311 304 305 303 301 299 298 297 297 296 298 300 301 302 304 304 307 310 312 315 320 324 327 326 328 330 335 332 330 329 330
309 311 312 310 313 312 314 313 315 315 315 315 315 311 305 304 303 300 300 298 297 296 296 296 298 299 300 301 301 303 306 309 312 316 320 322 327 329 329 330 331 329 329 329
309 311 312 312 312 313 314 315 315 315 316 313 311 309 306 304 302 301 299 297 295 294 294 294 295 296 298 299 300 301 302 304 308 311 315 319 322 326 326 327 327 328 329 329
309 310 311 310 310 308 309 311 316 315 312 311 308 306 303 301 300 299 298 296 294 293 292 293 294 295 296 298 299 300 301 301 303 307 311 313 313 316 323 326 325 327 326 330
309 309 309 311 307 306 306 306 306 311 309 307 305 302 300 298 297 297 297 296 293 292 290 291 292 294 294 295 297 298 299 299 301 303 304 307 308 311 316 319 323 323 325 324
308 309 311 312 311 310 306 305 304 304 304 307 306 302 298 296 295 295 295 294 292 290 289 291 291 291 293 293 295 297 298 300 300 301 301 302 303 305 308 310 314 314 319 322
308 308 311 312 311 308 305 302 304 302 301 303 301 299 296 294 293 293 293 293 290 289 289 290 291 291 292 293 294 296 298 299 299 299 299 300 301 301 302 305 306 306 306 307
307 308 312 313 309 307 305 301 301 304 302 299 301 298 296 295 296 292 292 291 290 289 288 289 290 290 291 292 292 293 296 297 298 298 297 297 299 300 300 301 302 301 304 304
307 305 309 311 309 308 302 299 299 300 303 298 297 296 296 297 297 292 291 291 289 288 288 288 289 290 290 289 290 292 292 294 294 295 295 296 297 298 299 300 300 300 301 300
305 306 305 308 307 304 298 299 300 305 301 297 295 294 292 293 292 291 290 289 289 288 287 287 288 288 289 289 290 290 290 291 292 293 293 294 295 296 296 297 298 299 300 300
304 305 303 304 302 302 297 299 300 299 297 296 295 293 292 291 291 289 289 288 288 287 287 286 287 287 288 288 288 288 288 288 288 290 292 293 293 294 294 295 295 295 297 298
303 301 302 301 299 297 297 296 297 297 296 296 294 293 292 290 289 289 288 287 287 286 286 286 286 286 287 287 287 288 287 288 289 289 289 290 292 292 293 293 293 294 294 295
302 301 299 298 298 297 296 295 295 295 294 295 296 294 293 290 289 288 287 287 286 286 286 285 286 286 286 286 286 286 287 287 288 288 289 289 289 290 291 291 291 291 290 290
299 300 299 298 297 295 294 293 293 294 293 293 294 293 291 290 288 287 286 285 285 284 284 285 285 285 285 285 285 285 286 286 286 287 287 287 287 288 288 289 289 288 287 287
299 299 300 295 296 296 294 292 292 293 292 291 291 290 289 288 288 286 285 284 284 284 284 284 284 284 284 284 284 285 285 285 285 286 286 285 285 285 285 285 286 287 287 287

GFSCGP_850_thetae_114.txt.gz
Theta_e
302 301 301 300 299 301 301 301 300 301 301 301 301 303 303 304 304 303 303 304 307 309 311 313 314 315 316 331 337 336 336 337 337 339 339 336 330 328 327 327 326 325 324 324
302 303 302 302 301 303 303 304 304 303 302 304 303 303 303 304 305 305 305 304 309 310 313 315 315 315 315 318 331 337 338 338 338 339 339 339 337 333 330 329 329 329 327 324
302 303 303 302 302 302 302 303 302 302 304 305 303 302 303 304 304 305 306 308 312 313 316 316 317 317 317 316 317 322 335 339 338 337 339 338 339 337 335 334 331 330 330 329
303 303 303 303 303 302 303 303 303 304 306 307 304 306 305 304 304 306 308 306 305 307 309 311 315 319 321 320 318 317 319 320 325 333 338 339 338 337 335 335 333 332 332 331
306 305 305 306 305 303 304 305 306 306 307 307 306 308 305 307 309 311 307 305 302 303 304 305 308 312 317 324 325 326 323 320 324 335 334 341 340 336 337 336 335 334 333 331
304 306 305 305 305 305 305 305 306 307 306 308 306 306 306 315 315 310 307 304 303 301 302 303 305 309 313 317 325 327 329 330 330 332 334 336 336 337 335 337 336 334 333 330
307 306 305 306 307 305 305 306 307 308 310 310 307 305 309 310 309 307 306 304 302 301 300 300 301 304 310 313 316 321 324 329 331 332 332 334 335 336 335 336 335 328 331 331
310 308 305 305 306 305 305 306 310 312 313 315 311 312 310 306 303 302 303 302 301 300 299 298 298 300 302 308 313 315 318 322 326 329 331 332 333 335 338 337 336 335 334 332
308 308 307 308 307 307 307 308 310 312 312 314 317 311 308 305 303 301 299 299 299 298 298 297 297 300 302 304 308 313 315 317 318 319 320 327 332 336 336 336 336 333 332 332
307 312 308 308 311 306 308 309 314 312 315 314 315 311 309 304 303 301 299 298 297 297 296 296 296 300 303 304 305 309 313 316 318 319 320 321 320 323 330 333 334 333 333 331
304 310 309 309 312 311 312 311 312 313 313 315 314 310 307 303 301 300 299 298 296 296 295 295 296 297 299 303 303 307 313 316 318 321 322 323 323 321 320 324 330 332 332 332
306 311 309 310 309 311 312 313 313 315 314 315 313 307 303 303 302 299 297 295 295 295 294 295 296 297 301 301 299 304 308 312 314 316 320 321 323 324 325 322 327 330 333 331
308 310 311 309 311 311 312 312 312 313 315 313 313 308 305 303 301 298 296 294 293 293 293 293 294 294 296 299 300 302 304 306 308 312 316 319 321 322 325 326 329 328 328 332
307 312 312 309 310 308 309 313 314 315 312 309 308 305 302 301 300 298 295 294 292 292 292 294 295 294 296 298 298 301 301 303 304 307 311 314 317 318 321 323 326 326 326 327
308 311 309 308 306 306 305 309 309 308 308 307 304 302 300 299 298 296 295 292 291 291 291 290 290 292 294 297 298 298 300 301 302 304 305 306 310 312 316 319 322 324 324 324
306 308 309 311 310 309 304 304 304 306 306 304 302 300 298 296 295 295 293 292 290 290 289 290 289 290 291 293 295 297 298 299 300 301 302 303 305 308 311 313 316 317 320 322
306 309 310 312 308 307 304 303 302 302 303 305 303 300 297 295 294 293 293 290 289 288 288 288 289 289 289 290 293 296 296 298 299 299 300 300 301 302 303 305 308 310 312 312
305 309 310 313 310 308 303 301 302 301 299 301 299 297 295 293 292 291 291 289 288 287 287 288 289 289 290 290 292 293 295 296 297 298 298 299 299 300 301 302 302 304 305 307
304 308 311 312 309 306 304 300 300 302 300 298 300 299 296 294 294 290 290 289 287 287 287 287 288 289 289 289 288 290 293 294 295 296 296 296 298 298 299 300 300 300 302 303
305 304 308 309 309 307 300 298 299 300 302 297 295 294 296 297 295 290 288 288 287 286 286 287 288 288 288 288 288 289 289 291 292 293 294 295 296 297 297 298 298 299 300 300
304 305 305 307 306 303 298 298 300 305 300 296 293 292 291 292 290 288 288 288 287 286 286 286 287 287 287 288 288 288 288 288 288 290 292 293 294 295 295 296 297 297 297 297
302 304 303 305 303 303 297 300 300 299 296 295 293 292 291 289 289 288 288 287 286 286 286 286 286 286 287 287 288 288 288 287 287 288 289 290 292 293 294 294 294 295 295 296
304 301 302 300 299 297 296 296 296 297 297 294 293 293 291 290 289 288 288 287 286 286 285 285 286 286 286 287 287 287 287 287 287 288 288 288 289 290 291 292 292 292 292 292
302 300 299 299 297 296 295 295 295 295 296 295 293 293 292 290 288 288 287 286 286 285 285 285 285 285 285 285 285 285 286 286 287 287 287 287 288 288 289 289 290 290 289 289
299 300 299 297 296 294 293 293 293 293 293 294 293 292 290 289 288 287 286 285 284 284 284 284 284 284 284 284 284 285 285 285 285 285 285 285 285 285 286 286 286 286 285 285
298 299 300 299 296 295 293 292 292 292 291 291 290 290 288 287 287 285 285 284 283 283 283 283 283 283 283 283 284 284 283 283 284 284 283 283 283 283 283 283 284 284 284 284

GFSCGP_850_thetae_117.txt.gz
Theta_e
301 303 305 305 303 303 303 303 303 303 303 304 304 303 304 306 305 305 304 304 304 304 304 305 306 308 311 314 314 324 327 334 335 333 329 330 328 325 325 324 323 323 322 321
304 306 306 303 303 303 303 303 304 304 304 303 304 305 306 306 306 305 305 304 304 304 305 306 309 311 313 314 314 333 334 335 336 334 334 335 335 331 327 327 326 326 324 323
306 307 303 303 304 304 304 304 304 304 304 304 305 307 306 307 306 306 305 305 306 308 308 309 311 314 315 314 317 335 337 338 337 336 336 336 336 335 332 329 328 328 326 325
306 304 304 305 306 305 305 304 304 304 305 307 306 309 308 308 310 309 307 305 303 303 304 304 308 311 315 316 315 326 338 339 338 336 336 335 333 334 334 334 331 330 330 328
308 307 307 308 308 304 305 304 305 306 307 307 307 309 307 310 309 308 304 304 303 302 302 301 302 304 309 317 320 319 324 338 336 336 336 336 336 335 334 336 335 334 333 331
306 306 306 307 306 305 306 307 307 308 308 309 308 308 309 307 306 305 302 302 302 301 300 300 300 303 306 312 319 322 327 331 334 335 338 338 335 335 335 335 336 335 335 334
307 308 306 306 307 306 307 308 311 310 312 311 311 309 308 307 304 302 300 298 300 299 299 299 298 301 305 310 315 319 322 325 327 328 331 332 333 334 335 336 335 337 336 335
308 308 306 306 307 309 307 308 311 313 312 313 312 312 307 305 301 300 298 297 297 298 297 297 297 299 302 305 310 316 320 322 325 327 329 330 332 333 334 334 334 336 336 334
306 308 307 307 309 308 309 310 309 313 312 314 314 309 307 302 301 299 298 297 296 295 296 295 295 296 300 303 306 311 315 319 321 324 327 329 329 331 333 333 333 334 334 335
305 309 307 308 309 309 310 309 315 313 315 314 315 309 306 303 302 299 297 296 295 294 294 294 294 294 296 301 304 309 312 314 315 316 319 322 324 328 330 331 332 333 334 333
303 305 308 309 310 311 311 312 313 315 315 317 316 309 305 303 300 298 296 294 294 293 293 293 293 293 294 299 303 306 309 311 313 315 317 318 320 321 321 322 328 331 331 331
305 309 308 309 309 311 311 313 313 314 315 316 311 306 303 302 300 296 295 293 292 292 292 291 292 292 295 299 301 303 307 309 311 312 314 317 318 320 322 323 321 321 329 330
307 309 311 310 310 306 309 310 312 313 314 316 314 308 302 299 298 295 294 292 292 291 291 290 290 291 294 296 299 300 301 303 306 308 312 315 317 320 321 322 323 325 324 327
307 309 309 308 308 308 306 307 311 314 312 306 305 302 300 299 297 295 293 291 291 290 290 289 289 291 294 294 298 299 300 300 301 305 309 310 312 314 316 319 321 323 325 326
307 309 309 309 307 305 305 304 306 306 307 305 303 301 299 297 296 293 292 291 290 289 289 288 288 289 292 295 296 297 299 299 300 302 303 304 306 308 311 315 316 319 320 323
306 308 309 310 310 309 304 303 303 305 304 302 301 299 297 295 293 292 291 290 289 289 288 287 287 287 289 292 294 297 297 298 299 300 300 301 302 304 305 308 309 312 313 315
304 306 309 311 310 308 306 303 302 302 302 304 303 299 295 294 293 291 290 289 288 287 286 287 287 288 287 289 292 294 295 297 299 299 299 299 300 300 301 303 304 306 307 308
305 305 308 312 310 310 305 301 301 300 299 300 298 297 294 292 291 290 288 287 286 286 285 286 287 287 287 287 289 291 294 295 296 297 298 298 298 298 299 300 300 302 302 303
303 306 308 312 310 307 304 300 301 302 300 297 298 298 294 293 293 289 286 285 285 284 286 287 287 288 287 287 287 289 291 292 293 294 295 296 297 297 298 299 299 299 300 301
305 305 307 310 311 310 301 299 299 300 301 296 294 295 294 297 297 291 286 287 286 284 285 286 287 288 288 288 288 289 289 289 290 291 292 293 295 296 296 296 297 297 298 297
304 305 305 305 307 302 298 298 300 304 301 295 293 292 293 292 290 287 287 286 285 285 286 287 287 287 287 287 287 288 288 287 288 289 290 292 292 293 293 294 295 295 295 296
302 303 303 304 305 305 297 300 302 298 295 294 293 292 290 288 287 287 286 286 286 286 286 286 286 287 287 288 288 288 288 287 287 288 289 289 290 291 291 292 292 292 293 293
303 301 301 300 299 297 296 295 296 297 295 294 293 291 290 289 287 286 285 284 284 284 284 284 285 285 285 286 285 286 285 285 286 286 287 287 288 289 289 290 290 291 290 291
301 300 300 299 298 296 295 294 294 295 294 293 292 291 289 288 287 285 284 284 284 284 284 284 284 284 284 284 284 284 285 285 285 286 285 285 285 286 286 287 287 287 287 288
300 300 299 297 296 294 293 293 293 293 293 293 291 290 288 287 285 283 282 282 282 282 283 283 283 283 283 283 283 283 282 282 282 282 283 284 284 284 284 284 284 284 283 284
299 299 300 300 296 296 293 293 292 291 290 290 289 288 287 286 285 284 282 283 283 283 282 282 282 281 281 282 282 282 282 281 281 281 280 281 281 282 282 282 282 283 283 283

GFSCGP_850_thetae_120.txt.gz
Theta_e
306 309 309 308 308 307 307 307 308 309 309 307 308 308 309 309 308 309 308 308 308 308 307 306 306 306 307 308 314 315 316 327 337 337 334 332 333 329 332 335 334 324 323 324
309 311 308 307 307 307 308 308 309 309 308 308 309 309 311 310 311 311 311 310 309 309 308 307 306 307 312 313 314 317 319 324 336 336 336 333 331 330 332 333 333 327 322 324
310 310 307 308 309 309 310 309 309 308 309 310 310 311 311 311 310 307 306 306 306 307 307 308 310 311 311 312 313 316 324 325 334 335 337 336 335 334 334 333 333 324 323 324
310 309 308 309 310 310 311 308 307 307 310 312 311 314 312 310 309 306 304 302 302 302 302 304 305 305 306 307 310 313 323 333 335 336 337 336 335 333 334 334 331 325 325 326
311 309 310 311 311 308 309 309 308 309 311 312 312 313 313 309 307 305 303 300 299 299 300 301 300 300 301 307 312 313 320 334 338 336 337 336 339 338 338 336 335 331 328 328
310 309 309 311 310 309 309 310 312 312 312 315 313 314 314 308 305 303 301 299 298 296 298 299 299 299 300 302 308 314 316 332 337 338 338 337 337 337 337 334 334 333 334 332
310 311 310 309 311 311 310 313 316 316 318 314 314 315 310 306 304 302 300 298 297 295 295 296 297 297 298 298 304 312 313 323 330 334 334 337 335 328 337 336 337 335 332 334
311 312 311 309 311 311 312 313 314 316 316 316 313 315 310 304 302 299 298 296 296 294 293 293 295 295 296 297 300 312 312 320 323 327 329 333 335 337 336 335 338 336 335 336
310 311 309 309 310 311 312 313 313 314 315 316 317 312 307 304 302 299 297 295 295 293 292 292 293 293 294 295 297 310 310 315 321 325 328 331 332 333 333 333 332 333 334 333
308 311 309 310 310 311 313 312 314 316 318 319 318 312 309 304 301 300 297 295 293 293 292 291 291 291 292 294 297 305 304 312 314 320 321 325 328 328 328 330 332 332 333 333
306 308 310 310 312 311 312 313 313 314 315 318 318 313 305 303 300 298 295 294 292 292 291 290 290 290 290 292 296 299 302 310 312 314 316 318 319 322 324 325 327 329 330 330
308 310 311 311 311 309 309 312 314 317 317 317 317 310 303 301 298 296 294 293 292 291 290 289 289 290 291 292 294 301 304 307 308 310 312 316 317 319 320 321 321 322 323 327
309 310 313 312 313 310 308 307 308 311 315 317 318 310 302 299 297 295 294 292 291 290 290 289 289 289 291 292 293 294 299 302 305 309 311 312 314 316 317 318 320 322 323 323
307 310 312 312 310 308 308 306 308 314 318 312 309 304 301 299 297 295 293 292 291 290 289 289 288 288 291 290 292 294 296 296 297 303 304 308 309 310 312 314 317 320 321 322
308 309 311 309 309 310 306 306 307 308 310 312 305 302 299 297 296 293 292 291 291 290 289 288 288 288 288 291 293 295 296 299 299 300 301 301 303 305 307 309 311 313 315 317
308 311 311 311 311 311 307 305 306 307 306 304 303 300 297 295 293 292 291 291 290 290 289 288 287 287 287 287 288 293 294 298 298 297 298 299 300 301 302 303 305 306 308 308
308 308 309 312 312 310 311 304 304 304 303 306 306 301 297 296 293 291 290 290 289 289 288 286 285 286 286 287 288 291 291 293 296 296 298 299 299 300 300 300 301 302 303 303
307 306 307 312 312 315 306 303 303 302 301 302 301 298 296 294 291 290 289 288 288 287 287 286 285 286 287 286 287 287 290 293 294 295 297 297 298 298 299 300 300 300 300 301
305 305 309 312 314 307 305 303 304 305 301 299 300 299 296 293 294 290 288 287 287 286 286 286 285 286 286 287 288 289 290 291 292 292 292 294 295 296 296 296 297 297 298 298
306 306 308 310 312 312 304 301 300 302 305 298 298 298 299 297 301 294 287 285 286 286 286 286 286 285 285 285 285 288 288 288 288 289 290 292 293 293 294 293 294 295 296 296
308 307 308 309 310 305 300 299 299 306 304 298 297 297 297 296 293 288 287 285 285 285 285 286 286 285 285 285 286 285 285 286 287 289 290 290 291 291 291 292 292 293 293 294
305 306 307 307 309 308 298 301 304 299 297 297 296 294 292 290 288 286 284 284 285 285 285 285 285 284 284 284 285 284 284 285 285 286 287 288 288 289 289 290 290 290 291 291
306 305 305 303 302 298 296 296 297 297 296 296 295 293 292 290 286 285 284 283 284 284 284 284 284 284 283 283 283 283 283 285 285 286 286 285 285 286 287 287 288 288 288 288
303 301 302 302 299 297 295 294 295 296 295 294 293 292 291 289 287 286 285 285 284 283 283 283 283 283 282 282 282 282 283 284 284 284 284 285 285 284 284 285 285 285 286 284
302 302 301 299 297 296 294 293 293 293 292 291 291 290 289 289 287 286 285 284 283 282 282 281 281 281 280 281 282 282 282 282 283 283 283 283 283 283 283 282 282 282 284 284
301 301 303 304 297 298 295 292 292 291 290 290 289 288 287 287 286 285 284 283 282 281 280 280 279 279 279 280 280 281 281 281 281 282 282 281 282 282 281 281 281 281 280 280

GFSCGP_850_thetae_123.txt.gz
Theta_e
311 311 313 313 312 311 311 312 312 313 313 311 312 312 312 313 314 313 311 310 309 309 309 309 311 311 309 308 308 309 309 312 315 326 336 335 337 335 332 334 336 335 323 329
312 313 313 311 310 311 312 313 314 313 312 311 312 313 314 313 314 310 309 308 306 304 304 305 306 310 312 314 314 314 314 316 317 318 334 335 336 335 331 333 335 338 326 321
312 313 310 309 311 312 313 314 314 312 311 312 314 314 314 315 313 309 307 305 304 302 301 301 302 303 306 308 310 313 314 314 317 320 334 335 337 334 334 333 335 336 336 325
312 312 311 310 312 313 314 313 311 311 312 314 313 316 315 314 311 308 306 303 301 300 300 298 298 299 300 302 302 307 309 313 316 321 332 334 336 335 334 334 334 336 337 331
313 312 311 312 313 312 313 313 313 313 315 316 315 317 316 313 310 307 305 301 299 299 298 297 296 296 298 299 300 305 309 312 312 311 331 336 335 336 335 334 335 336 337 336
312 312 311 312 313 312 313 314 315 316 317 317 317 316 317 309 306 305 302 300 298 298 296 296 295 294 296 297 299 302 306 310 316 319 332 335 334 337 336 336 337 337 337 334
314 313 312 312 313 313 314 315 317 316 319 318 316 316 312 308 305 303 301 298 297 296 295 294 292 293 294 295 297 300 302 309 320 322 332 334 335 336 337 338 338 338 337 333
311 315 313 313 312 313 313 314 315 315 317 316 315 318 312 307 304 301 299 297 296 295 294 291 291 291 292 293 295 297 300 305 318 317 325 331 335 335 335 331 327 337 338 336
312 313 312 311 312 312 314 314 315 318 316 320 318 315 310 306 304 300 297 296 295 294 292 291 290 290 290 292 293 295 297 302 313 314 319 323 326 327 326 323 320 334 336 336
311 315 311 312 312 313 313 314 315 317 320 319 317 315 313 305 302 300 298 295 294 293 291 290 290 289 290 291 292 295 296 301 310 314 314 316 321 323 323 321 324 331 333 333
310 311 313 312 314 313 314 315 315 316 316 319 319 315 305 303 300 299 297 294 293 292 291 290 289 289 289 290 291 294 295 302 306 305 305 312 313 318 323 325 326 329 331 332
310 311 313 313 313 311 311 313 312 316 316 318 323 313 303 302 299 297 295 294 292 291 290 290 289 289 289 290 291 294 297 300 302 305 309 311 314 321 321 319 322 324 324 326
310 312 315 315 314 312 312 310 309 310 312 316 318 312 302 301 299 296 295 293 292 291 290 290 289 289 289 289 290 291 293 300 305 301 305 308 310 308 310 314 316 319 320 321
308 311 313 317 315 311 311 309 308 311 315 319 312 306 302 300 299 296 294 293 292 291 290 289 289 288 289 289 289 290 292 294 294 294 294 299 304 305 308 309 311 315 316 320
310 311 311 312 311 311 309 307 308 308 311 313 308 305 301 299 297 295 294 294 293 291 290 289 288 288 288 289 289 290 294 294 294 295 296 297 300 302 305 306 308 310 312 312
309 312 312 312 312 311 311 307 308 308 307 306 305 303 299 297 296 294 294 294 292 291 290 288 287 287 288 288 288 288 290 293 294 298 298 297 300 301 301 303 304 306 306 307
310 310 311 313 313 312 314 307 307 306 306 308 310 303 299 298 296 293 292 292 291 290 290 288 287 287 287 287 287 287 288 293 295 296 298 299 299 299 299 298 299 301 301 302
308 308 309 312 313 314 307 307 307 306 305 304 302 301 299 297 294 292 291 291 290 290 290 289 288 287 287 287 287 287 289 291 292 293 295 297 296 296 296 297 298 297 298 298
308 308 310 312 313 309 306 305 306 307 305 303 303 301 298 296 296 293 290 289 289 289 289 289 289 288 288 288 287 288 289 289 289 290 290 292 292 293 294 295 296 296 296 297
307 308 310 311 311 314 308 304 303 304 307 301 301 301 299 298 301 297 289 288 289 289 289 289 289 288 288 288 288 288 287 288 288 288 289 289 290 291 292 292 292 292 293 293
309 309 310 310 311 308 302 301 302 308 307 300 300 301 301 299 294 290 289 287 289 289 288 289 288 288 287 287 288 287 288 288 288 288 288 289 290 290 290 290 291 291 291 292
309 309 309 309 309 310 300 301 305 302 300 299 298 297 295 292 290 288 286 286 288 289 288 288 288 287 286 286 287 287 287 288 288 288 288 287 287 287 287 287 288 289 290 290
307 307 308 306 305 299 298 300 300 299 299 298 297 296 293 291 288 287 286 286 287 288 288 287 287 286 285 285 285 285 285 286 287 287 287 287 286 286 286 285 285 286 287 286
305 304 304 304 300 298 297 297 297 297 297 296 295 294 293 291 289 289 289 288 287 286 286 286 285 284 284 283 283 283 284 285 285 286 286 285 286 285 285 285 284 283 282 282
305 304 303 301 299 298 296 296 295 295 294 294 294 293 292 291 290 290 289 287 286 285 285 284 283 282 282 281 281 282 282 282 283 284 284 284 285 284 284 284 283 282 281 280
303 304 304 307 299 300 296 294 294 293 293 292 291 291 290 290 289 288 287 286 285 284 283 283 282 281 280 280 281 281 281 281 281 283 282 283 283 283 283 283 283 283 281 280

GFSCGP_850_thetae_126.txt.gz
Theta_e
312 312 312 313 314 313 312 311 311 313 314 313 312 312 312 313 315 313 311 309 308 307 305 304 303 302 304 306 310 312 313 311 313 309 314 323 327 333 336 339 335 332 329 328
313 312 313 314 312 311 311 312 313 314 314 313 312 311 313 314 313 310 309 307 306 304 302 302 301 299 299 301 303 307 312 314 315 315 316 320 325 330 333 339 335 336 330 325
313 313 313 312 312 310 312 313 314 314 312 312 312 313 313 314 311 309 307 305 303 301 300 300 299 298 297 297 300 301 307 311 314 314 315 316 319 329 332 337 334 338 336 334
312 313 313 313 312 311 312 314 313 313 313 314 314 316 315 315 312 308 305 303 301 299 299 298 297 296 295 296 297 299 300 307 309 311 312 314 316 320 332 336 335 337 338 335
311 313 312 311 311 313 314 313 314 313 314 315 316 317 314 314 310 307 304 301 299 298 297 296 294 294 294 294 294 296 298 302 308 308 307 309 310 317 330 334 336 337 337 336
312 312 313 312 312 313 313 313 314 315 316 319 317 318 315 310 307 305 302 300 298 297 295 294 292 291 291 292 294 295 298 301 305 307 309 310 307 307 322 333 335 336 339 338
312 312 312 312 312 313 313 315 316 315 319 318 315 315 314 308 305 303 301 298 296 296 294 293 291 290 290 291 293 295 297 299 303 307 309 315 313 314 311 331 335 336 339 338
311 314 314 313 313 313 314 314 315 314 317 318 315 316 310 307 304 301 299 297 295 295 293 292 290 290 290 291 293 295 296 299 302 306 308 316 319 316 325 333 333 337 338 339
315 312 313 314 313 312 314 314 315 317 315 318 317 315 311 306 303 300 297 296 294 294 292 291 290 290 290 292 292 294 296 297 299 302 305 318 322 323 330 327 325 327 337 336
312 314 312 313 312 312 312 313 315 317 319 317 316 319 315 304 302 300 297 295 294 293 291 291 290 289 291 291 292 293 295 296 297 299 303 317 321 321 324 327 325 322 321 324
310 311 313 312 312 312 314 315 316 316 317 318 320 315 305 303 300 298 296 295 293 292 291 290 289 289 290 291 291 292 293 295 296 296 303 316 317 320 321 323 322 324 326 327
309 312 313 313 313 313 312 313 312 314 313 316 316 314 303 302 299 297 295 294 293 292 291 290 289 289 289 290 290 291 292 293 295 297 307 309 307 308 314 320 321 322 325 325
311 311 313 315 313 312 312 312 311 310 311 313 314 312 303 301 298 297 296 294 293 292 291 289 289 289 289 289 289 290 291 291 294 299 304 307 306 304 312 314 319 321 322 322
309 311 314 317 317 314 313 311 310 310 313 315 316 307 303 300 298 296 296 295 294 292 290 289 289 289 289 290 289 289 291 292 293 296 299 307 302 301 301 306 310 315 318 319
307 312 311 312 312 313 311 309 309 309 310 313 309 306 301 298 297 295 296 295 294 292 291 289 289 289 289 289 290 289 292 294 294 296 297 299 303 301 300 304 307 307 312 312
308 312 309 311 311 312 313 309 308 309 307 307 306 303 299 298 297 295 295 294 293 292 291 289 289 289 288 288 289 289 288 293 295 294 291 292 296 297 295 297 298 299 301 303
311 311 311 312 313 312 314 311 309 309 308 308 310 305 301 299 296 294 294 293 292 291 291 290 289 289 289 288 289 288 288 288 291 293 294 294 294 293 294 294 296 297 299 299
310 310 310 312 314 315 309 308 308 308 307 305 304 302 301 298 295 293 292 292 291 291 291 290 289 289 289 288 288 288 289 289 289 290 291 292 292 293 293 294 295 295 295 295
305 309 310 311 312 310 308 308 308 308 307 305 304 302 299 297 295 292 291 291 291 291 291 290 289 289 289 289 288 288 289 289 289 289 288 288 289 290 289 290 291 292 294 294
305 310 310 311 311 310 308 307 305 306 309 304 303 302 300 298 301 295 290 289 290 291 290 290 289 288 288 288 288 288 288 288 288 288 287 288 288 289 289 290 291 290 291 290
310 310 309 310 309 308 304 303 303 308 307 303 303 302 301 300 295 291 290 289 290 290 290 289 288 287 287 287 287 287 287 287 287 287 287 287 286 286 286 287 287 288 289 289
310 309 310 310 310 310 301 302 306 304 302 301 300 298 295 292 291 289 288 289 290 290 289 288 287 286 285 285 285 285 286 286 287 286 287 286 286 285 285 285 285 285 285 286
310 309 310 306 305 300 299 302 301 301 300 299 296 295 293 291 289 288 288 288 289 289 288 287 286 285 284 284 284 284 284 285 285 285 285 286 285 285 285 284 284 284 284 284
307 305 306 304 300 299 298 299 298 298 297 296 296 294 292 290 289 289 289 289 288 287 286 285 284 283 282 282 282 282 283 283 284 284 284 284 284 284 284 284 283 283 282 282
306 305 304 302 299 298 297 297 296 296 295 295 295 294 292 291 291 291 289 288 287 286 285 284 283 282 281 281 281 281 281 281 282 283 282 283 283 283 283 283 283 282 281 281
305 305 305 307 300 300 297 295 295 294 293 293 292 292 292 291 290 289 287 286 285 284 284 283 282 281 280 280 280 280 280 280 280 281 281 281 282 282 281 281 282 281 281 280

GFSCGP_850_thetae_129.txt.gz
Theta_e
309 307 307 307 308 311 310 309 307 307 309 311 309 308 308 309 308 306 304 303 302 302 301 300 299 299 298 300 302 301 300 304 308 311 312 310 310 318 326 325 332 338 337 338
308 309 310 312 312 310 309 309 309 309 311 311 308 307 308 309 307 305 303 302 300 299 298 298 297 296 296 297 297 298 298 300 303 306 311 312 314 313 325 328 329 331 338 337
310 311 313 312 311 312 309 309 309 311 311 310 310 309 310 309 307 305 303 300 299 298 297 296 295 294 294 294 295 294 294 296 300 303 307 311 313 314 316 324 327 330 337 337
309 310 312 312 312 311 309 310 312 312 312 311 310 310 312 310 307 305 302 299 298 297 296 295 294 293 292 291 291 292 294 295 298 301 304 307 310 312 313 317 322 331 333 336
310 310 310 311 312 310 309 313 312 312 311 310 312 313 311 311 308 304 301 298 297 296 295 294 292 291 291 290 290 292 293 294 296 299 302 304 307 309 312 312 318 324 331 336
310 311 310 311 312 311 312 312 311 312 312 311 313 314 313 307 305 302 300 297 296 295 294 293 291 290 290 291 292 293 294 295 296 298 301 303 305 307 308 311 311 317 321 332
310 310 309 310 310 311 311 311 312 312 312 314 314 312 307 304 302 300 298 296 295 294 293 291 290 290 290 290 291 293 294 295 297 298 301 303 306 308 309 307 309 311 312 320
310 309 312 311 310 311 311 311 313 314 313 313 313 313 306 303 300 299 297 295 294 293 291 291 290 290 290 290 292 293 294 294 296 298 301 304 307 310 309 309 314 321 319 320
312 314 312 311 312 312 312 311 312 315 314 309 312 310 308 303 301 299 297 295 294 292 291 290 290 290 290 290 291 293 293 293 295 296 299 304 307 311 313 316 321 320 319 320
312 310 311 310 312 311 311 311 313 313 312 315 314 312 306 300 301 299 296 295 293 292 291 290 290 289 289 290 291 294 293 293 294 295 297 300 306 311 316 317 322 323 323 324
310 308 311 310 312 311 311 311 316 316 314 310 305 309 305 301 297 297 295 294 293 292 291 291 290 290 289 290 292 293 293 293 294 294 294 296 299 312 315 320 324 323 321 321
309 312 313 311 311 311 312 314 315 311 312 309 312 305 302 300 298 297 295 294 292 291 291 291 291 290 290 290 291 292 292 291 292 293 293 293 297 306 311 316 320 320 319 321
311 310 311 313 313 314 314 311 310 310 308 307 304 301 302 300 298 296 296 294 292 291 290 291 291 290 289 291 290 290 290 290 291 291 291 292 298 308 307 306 313 315 313 314
309 311 312 312 313 313 316 313 310 309 303 306 308 306 302 299 297 296 295 294 292 291 290 290 290 290 290 290 290 291 291 291 291 291 292 293 294 300 302 301 304 311 310 311
307 308 311 311 311 310 312 312 310 310 308 310 308 304 301 299 297 295 295 293 292 291 290 289 289 289 290 290 290 290 292 292 292 294 294 293 293 295 300 305 303 302 302 304
305 306 307 307 308 309 310 308 306 309 307 306 306 302 300 298 296 295 294 293 292 291 290 289 289 289 289 289 289 289 290 290 292 293 293 294 296 297 298 300 303 302 300 301
306 307 309 310 311 313 312 308 306 309 308 308 307 304 299 298 295 293 293 292 291 291 290 289 289 289 289 288 288 288 288 289 290 290 291 292 293 294 295 298 300 298 297 296
308 309 309 310 308 311 308 308 308 309 307 303 301 299 299 296 293 292 292 291 291 291 290 289 288 288 288 288 288 288 288 287 288 288 289 290 290 292 293 294 295 295 295 295
305 308 308 308 309 309 308 307 308 309 307 303 301 298 295 294 292 291 290 291 291 290 290 289 288 288 288 287 288 287 287 287 287 287 286 287 288 289 290 291 291 291 292 292
304 308 306 307 310 308 307 304 304 306 307 304 301 298 296 294 298 293 290 290 290 290 289 288 288 287 287 286 287 287 287 286 287 286 286 285 286 286 287 287 287 287 289 290
303 305 308 307 308 306 303 302 304 307 303 303 302 300 298 296 294 291 290 290 290 289 289 288 287 285 285 286 286 286 286 285 286 286 285 285 285 285 284 285 285 286 286 286
305 308 308 307 308 307 301 302 305 302 300 299 298 298 296 292 291 290 290 290 289 289 287 286 285 284 284 284 284 285 285 284 285 285 285 284 284 284 284 284 283 283 284 284
310 308 307 304 303 299 300 301 301 300 297 296 296 294 293 291 290 289 289 289 288 287 286 284 283 283 282 282 282 282 283 284 283 283 283 283 283 283 282 283 282 282 282 282
306 305 302 300 300 299 299 299 299 299 297 295 294 293 292 290 289 289 289 288 287 286 285 284 283 283 281 280 280 280 281 281 282 282 282 282 282 282 282 282 281 281 281 280
305 303 302 300 299 298 298 298 297 296 295 295 293 292 291 291 290 290 288 287 285 284 284 283 282 281 280 280 280 280 280 280 281 281 280 281 281 281 280 280 280 280 280 280
304 302 299 299 298 297 297 296 295 295 294 294 293 292 292 291 289 288 287 286 285 284 283 282 281 280 280 280 280 280 279 279 280 281 280 279 280 280 279 280 280 279 280 279

GFSCGP_850_thetae_135.txt.gz
Theta_e
307 305 306 305 304 306 306 307 306 304 304 307 307 306 303 302 301 300 299 298 298 299 299 299 300 300 301 301 301 301 301 301 300 300 301 301 301 302 304 304 306 311 312 312
305 305 307 307 307 307 306 307 307 305 306 308 307 307 303 303 301 299 298 297 297 298 299 298 299 299 299 299 299 298 298 298 297 296 296 297 298 299 301 303 304 308 311 313
305 307 308 308 308 308 308 308 306 307 308 308 309 306 305 303 301 300 298 296 295 295 295 296 297 297 297 297 296 296 296 296 295 295 295 296 297 297 298 301 303 305 308 311
305 307 307 308 308 308 308 308 308 308 309 309 308 308 307 304 302 300 297 296 295 295 295 295 295 296 295 294 295 295 295 294 294 294 294 293 293 295 296 298 301 303 307 310
306 307 306 307 307 309 309 310 310 310 309 309 308 305 306 305 306 301 297 296 295 295 295 295 295 294 295 295 294 293 293 293 292 292 291 292 293 294 296 298 299 302 305 309
306 307 307 307 308 307 309 310 309 309 308 309 309 308 307 306 302 300 297 295 295 294 295 295 294 294 295 295 293 292 293 292 291 291 291 292 294 294 296 297 300 301 304 307
306 306 307 308 307 307 309 308 309 310 310 312 310 309 307 302 299 298 296 295 294 293 294 294 293 295 295 294 293 292 292 291 291 292 291 293 294 295 296 298 300 302 306 307
306 307 309 309 309 308 308 309 310 314 310 310 310 312 307 301 298 297 296 295 294 294 294 293 293 293 293 291 292 291 291 290 291 291 292 292 292 293 296 298 301 303 305 308
308 308 308 308 308 309 309 310 310 312 310 309 309 307 302 300 299 297 296 295 293 292 293 292 292 291 293 291 290 291 291 291 290 290 290 291 292 294 296 299 302 305 308 311
308 307 308 309 309 309 310 309 313 311 313 314 311 309 306 304 301 296 293 294 292 291 292 291 291 292 292 290 291 292 291 291 290 290 290 290 290 293 297 299 300 305 309 310
308 304 307 309 309 310 309 310 311 311 310 310 306 308 303 301 295 293 295 294 292 291 291 290 290 291 291 290 291 292 293 293 291 290 289 289 290 291 294 297 297 301 310 312
308 306 308 309 309 309 309 311 312 314 314 310 305 307 301 298 296 296 295 293 292 291 290 290 289 290 292 290 289 291 292 293 292 291 291 289 289 290 292 293 295 295 302 312
307 307 307 308 311 311 312 312 311 310 308 311 310 306 300 298 296 296 294 292 292 291 291 290 289 289 289 289 288 289 290 291 293 293 294 291 290 290 289 290 291 292 292 300
309 307 308 308 308 310 311 310 311 310 308 307 307 307 303 299 297 296 293 292 292 290 290 289 289 288 288 288 287 287 288 288 290 291 294 295 291 291 292 288 289 290 290 292
305 304 307 307 308 308 308 308 308 309 309 308 305 307 303 300 296 295 293 292 291 290 290 289 288 288 287 287 287 286 286 286 286 288 290 292 293 292 293 293 292 288 287 292
303 300 301 301 305 305 305 305 306 306 307 309 308 307 300 298 296 294 293 292 291 290 289 289 288 287 287 287 287 286 285 285 285 284 284 286 287 289 291 290 290 293 294 294
303 302 303 305 305 305 306 305 305 307 307 308 308 306 297 296 295 294 292 292 290 290 288 288 288 287 287 287 286 286 285 285 284 284 283 283 284 285 285 286 288 289 291 292
302 303 303 306 306 307 303 306 306 307 308 305 302 298 297 296 295 294 292 291 290 290 288 288 287 287 287 286 286 286 285 284 284 283 283 282 283 283 283 284 284 284 285 288
303 302 305 307 306 304 305 306 307 307 308 303 300 297 294 293 293 291 291 290 290 289 288 288 287 287 286 286 285 285 285 284 284 283 283 282 282 283 283 284 283 283 283 283
303 303 305 307 309 309 303 304 303 305 307 301 298 294 293 292 295 291 291 290 289 288 288 287 286 285 285 285 285 284 284 283 283 283 282 282 282 282 282 282 282 282 281 280
303 305 307 307 307 306 304 303 303 307 304 300 298 295 293 294 295 295 291 290 289 288 287 286 284 284 283 284 284 283 283 283 282 282 282 282 282 282 281 281 281 281 281 281
304 306 305 305 307 305 302 301 304 300 297 298 298 295 293 295 295 291 290 289 289 287 286 285 283 282 281 282 282 282 282 282 282 281 281 281 281 281 281 282 281 280 280 280
304 303 305 305 304 300 300 301 301 299 299 297 297 295 295 293 291 290 289 288 288 286 285 284 282 281 281 281 281 281 281 281 281 281 281 280 280 280 280 280 280 280 279 279
307 305 305 304 300 299 300 299 299 298 299 298 298 296 295 293 290 289 288 288 286 286 285 284 281 281 281 281 280 281 281 281 281 280 280 280 279 279 279 279 279 279 279 278
304 303 302 301 298 298 299 299 297 297 296 296 295 296 294 292 288 287 287 287 287 285 284 283 281 281 281 280 280 280 280 280 280 279 279 279 279 279 278 278 278 278 278 278
303 302 301 301 299 298 298 298 297 297 296 295 295 292 291 290 287 287 288 287 285 284 283 281 280 280 280 280 280 279 279 279 279 279 278 278 278 278 277 277 277 276 276 277